| time (UTC) | temp F | wind direction | speed knots | gust knots | rain 1hr in | rain 24hr in | rain mn in | humidity % | barometer mb |
| 20260506211859 | 58 | 173 | 1.7 | 7.8 | 0.00 | 0.00 | 0.00 | 100 | 1006.5 |
| 20260506211830 | 58 | 174 | 1.7 | 7.8 | 0.00 | 0.00 | 0.00 | 100 | 1006.4 |
| 20260506211716 | 58 | 174 | 1.7 | 7.8 | 0.00 | 0.00 | 0.00 | 100 | 1006.4 |
| 20260506211659 | 58 | 174 | 2.6 | 7.8 | 0.00 | 0.00 | 0.00 | 100 | 1006.5 |
| 20260506211557 | 58 | 174 | 2.6 | 7.8 | 0.00 | 0.00 | 0.00 | 100 | 1006.5 |
| 20260506211455 | 57 | 174 | 2.6 | 7.8 | 0.00 | 0.00 | 0.00 | 100 | 1006.4 |
| 20260506211357 | 58 | 174 | 2.6 | 7.8 | 0.00 | 0.00 | 0.00 | 100 | 1006.3 |
| 20260506211327 | 57 | 174 | 2.6 | 7.8 | 0.00 | 0.00 | 0.00 | 100 | 1006.4 |
| 20260506211156 | 58 | 174 | 2.6 | 7.8 | 0.00 | 0.00 | 0.00 | 100 | 1006.4 |
| 20260506211056 | 57 | 174 | 2.6 | 7.8 | 0.00 | 0.00 | 0.00 | 100 | 1006.4 |
| 20260506210956 | 58 | 174 | 2.6 | 7.8 | 0.00 | 0.00 | 0.00 | 100 | 1006.4 |
| 20260506210855 | 58 | 174 | 1.7 | 7.8 | 0.00 | 0.00 | 0.00 | 100 | 1006.4 |
| 20260506210756 | 57 | 174 | 1.7 | 7.8 | 0.00 | 0.00 | 0.00 | 100 | 1006.5 |
| 20260506210720 | 58 | 174 | 1.7 | 4.3 | 0.00 | 0.00 | 0.00 | 100 | 1006.4 |
| 20260506210715 | 58 | 174 | 1.7 | 7.8 | 0.00 | 0.00 | 0.00 | 100 | 1006.5 |
| 20260506210657 | 58 | 174 | 1.7 | 7.8 | 0.00 | 0.00 | 0.00 | 100 | 1006.4 |
| 20260506210556 | 57 | 174 | 1.7 | 6.1 | 0.00 | 0.00 | 0.00 | 100 | 1006.4 |
| 20260506210457 | 58 | 174 | 1.7 | 6.1 | 0.00 | 0.00 | 0.00 | 100 | 1006.4 |
| 20260506210354 | 57 | 174 | 1.7 | 4.3 | 0.00 | 0.00 | 0.00 | 100 | 1006.4 |
| 20260506210325 | 58 | 174 | 1.7 | 4.3 | 0.00 | 0.00 | 0.00 | 100 | 1006.4 |
| 20260506210154 | 58 | 174 | 1.7 | 4.3 | 0.00 | 0.00 | 0.00 | 100 | 1006.6 |
| 20260506210053 | 58 | 174 | 1.7 | 7.0 | 0.00 | 0.00 | 0.00 | 100 | 1006.5 |
| 20260506205951 | 58 | 174 | 1.7 | 7.0 | 0.00 | 0.00 | 0.00 | 100 | 1006.6 |
| 20260506205851 | 58 | 174 | 1.7 | 9.6 | 0.00 | 0.00 | 0.00 | 100 | 1006.5 |
| 20260506205751 | 58 | 174 | 1.7 | 9.6 | 0.00 | 0.00 | 0.00 | 100 | 1006.7 |
| 20260506205715 | 58 | 174 | 1.7 | 9.6 | 0.00 | 0.00 | 0.00 | 100 | 1006.7 |
| 20260506205649 | 58 | 174 | 1.7 | 9.6 | 0.00 | 0.00 | 0.00 | 100 | 1006.6 |
| 20260506205547 | 58 | 174 | 1.7 | 9.6 | 0.00 | 0.00 | 0.00 | 100 | 1006.8 |
| 20260506205449 | 58 | 174 | 2.6 | 9.6 | 0.00 | 0.00 | 0.00 | 100 | 1006.6 |
| 20260506205347 | 58 | 174 | 2.6 | 9.6 | 0.00 | 0.00 | 0.00 | 100 | 1006.7 |
| 20260506205218 | 58 | 173 | 2.6 | 9.6 | 0.00 | 0.00 | 0.00 | 100 | 1006.7 |
| 20260506205213 | 58 | 174 | 2.6 | 7.0 | 0.00 | 0.00 | 0.00 | 100 | 1006.8 |
| 20260506205145 | 58 | 174 | 2.6 | 9.6 | 0.00 | 0.00 | 0.00 | 100 | 1006.7 |
| 20260506205046 | 58 | 173 | 2.6 | 9.6 | 0.00 | 0.00 | 0.00 | 100 | 1006.7 |
| 20260506204945 | 58 | 174 | 2.6 | 7.0 | 0.00 | 0.00 | 0.00 | 100 | 1006.7 |
| 20260506204844 | 58 | 174 | 2.6 | 7.0 | 0.00 | 0.00 | 0.00 | 100 | 1006.8 |
| 20260506204821 | 58 | 174 | 2.6 | 7.0 | 0.00 | 0.00 | 0.00 | 100 | 1006.8 |
| 20260506204645 | 58 | 174 | 2.6 | 7.0 | 0.00 | 0.00 | 0.00 | 100 | 1006.9 |
| 20260506204544 | 58 | 174 | 2.6 | 7.0 | 0.00 | 0.00 | 0.00 | 100 | 1006.8 |
| 20260506204444 | 58 | 174 | 2.6 | 7.0 | 0.00 | 0.00 | 0.00 | 100 | 1006.9 |
| 20260506204345 | 58 | 174 | 2.6 | 7.0 | 0.00 | 0.00 | 0.00 | 100 | 1006.9 |
| 20260506204212 | 58 | 174 | 2.6 | 9.6 | 0.00 | 0.00 | 0.00 | 100 | 1006.9 |
| 20260506204142 | 58 | 174 | 2.6 | 9.6 | 0.00 | 0.00 | 0.00 | 100 | 1006.9 |
| 20260506204042 | 58 | 174 | 2.6 | 9.6 | 0.00 | 0.00 | 0.00 | 100 | 1006.9 |
| 20260506203942 | 58 | 174 | 2.6 | 9.6 | 0.00 | 0.00 | 0.00 | 100 | 1006.9 |
| 20260506203840 | 58 | 174 | 2.6 | 9.6 | 0.00 | 0.00 | 0.00 | 100 | 1006.9 |
| 20260506203739 | 58 | 174 | 2.6 | 9.6 | 0.00 | 0.00 | 0.00 | 100 | 1006.8 |
| 20260506203711 | 58 | 173 | 2.6 | 9.6 | 0.00 | 0.00 | 0.00 | 100 | 1006.8 |
| 20260506203639 | 58 | 174 | 2.6 | 9.6 | 0.00 | 0.00 | 0.00 | 100 | 1006.9 |
| 20260506203535 | 58 | 174 | 2.6 | 9.6 | 0.00 | 0.00 | 0.00 | 100 | 1006.9 |
| 20260506203436 | 58 | 174 | 2.6 | 9.6 | 0.00 | 0.00 | 0.00 | 100 | 1006.9 |
| 20260506203336 | 58 | 174 | 2.6 | 8.7 | 0.00 | 0.00 | 0.00 | 100 | 1006.8 |
| 20260506203217 | 59 | 174 | 2.6 | 6.1 | 0.00 | 0.00 | 0.00 | 100 | 1006.6 |
| 20260506203212 | 59 | 174 | 2.6 | 8.7 | 0.00 | 0.00 | 0.00 | 100 | 1007.0 |
| 20260506203132 | 59 | 173 | 2.6 | 8.7 | 0.00 | 0.00 | 0.00 | 100 | 1007.0 |
| 20260506203033 | 59 | 174 | 2.6 | 8.7 | 0.00 | 0.00 | 0.00 | 100 | 1006.8 |
| 20260506202933 | 59 | 174 | 2.6 | 8.7 | 0.00 | 0.00 | 0.00 | 100 | 1006.9 |
| 20260506202838 | 59 | 174 | 2.6 | 6.1 | 0.00 | 0.00 | 0.00 | 100 | 1006.6 |
| 20260506202820 | 59 | 174 | 2.6 | 6.1 | 0.00 | 0.00 | 0.00 | 100 | 1006.6 |
| 20260506202633 | 59 | 174 | 2.6 | 6.1 | 0.00 | 0.00 | 0.00 | 100 | 1006.6 |
| 20260506202533 | 59 | 174 | 2.6 | 6.1 | 0.00 | 0.00 | 0.00 | 100 | 1006.7 |
| 20260506202432 | 59 | 174 | 2.6 | 7.8 | 0.00 | 0.00 | 0.00 | 100 | 1006.8 |
| 20260506202332 | 59 | 174 | 2.6 | 13.0 | 0.00 | 0.00 | 0.00 | 100 | 1006.7 |
| 20260506202214 | 59 | 174 | 2.6 | 13.0 | 0.00 | 0.00 | 0.00 | 100 | 1006.8 |
| 20260506202132 | 59 | 174 | 2.6 | 13.0 | 0.00 | 0.00 | 0.00 | 100 | 1007.0 |
| 20260506202032 | 59 | 174 | 2.6 | 13.0 | 0.00 | 0.00 | 0.00 | 100 | 1006.9 |
| 20260506201933 | 59 | 174 | 2.6 | 13.0 | 0.00 | 0.00 | 0.00 | 100 | 1006.9 |
| 20260506201836 | 59 | 174 | 3.5 | 13.0 | 0.00 | 0.00 | 0.00 | 100 | 1006.8 |
| 20260506201710 | 59 | 174 | 3.5 | 13.0 | 0.00 | 0.00 | 0.00 | 100 | 1006.8 |
| 20260506201630 | 59 | 174 | 3.5 | 13.0 | 0.00 | 0.00 | 0.00 | 100 | 1006.9 |
| 20260506201530 | 59 | 174 | 3.5 | 13.0 | 0.00 | 0.00 | 0.00 | 100 | 1006.9 |
| 20260506201430 | 59 | 174 | 2.6 | 13.0 | 0.00 | 0.00 | 0.00 | 100 | 1006.9 |
| 20260506201330 | 59 | 174 | 2.6 | 11.3 | 0.00 | 0.00 | 0.00 | 100 | 1006.9 |
| 20260506201231 | 59 | 173 | 2.6 | 11.3 | 0.00 | 0.00 | 0.00 | 100 | 1006.8 |
| 20260506201211 | 59 | 174 | 2.6 | 11.3 | 0.00 | 0.00 | 0.00 | 100 | 1006.8 |
| 20260506201131 | 59 | 174 | 2.6 | 11.3 | 0.00 | 0.00 | 0.00 | 100 | 1006.8 |
| 20260506201029 | 59 | 173 | 2.6 | 11.3 | 0.00 | 0.00 | 0.00 | 100 | 1006.7 |
| 20260506200929 | 59 | 174 | 2.6 | 11.3 | 0.00 | 0.00 | 0.00 | 100 | 1006.8 |
| 20260506200830 | 60 | 174 | 2.6 | 11.3 | 0.00 | 0.00 | 0.00 | 100 | 1006.6 |
| 20260506200709 | 60 | 174 | 2.6 | 9.6 | 0.00 | 0.00 | 0.00 | 100 | 1006.6 |
| 20260506200629 | 60 | 174 | 2.6 | 9.6 | 0.00 | 0.00 | 0.00 | 100 | 1006.6 |
| 20260506200528 | 60 | 173 | 2.6 | 9.6 | 0.00 | 0.00 | 0.00 | 100 | 1006.7 |
| 20260506200428 | 60 | 173 | 2.6 | 9.6 | 0.00 | 0.00 | 0.00 | 100 | 1006.8 |
| 20260506200327 | 60 | 173 | 2.6 | 9.6 | 0.00 | 0.00 | 0.00 | 100 | 1006.7 |
| 20260506200208 | 60 | 173 | 2.6 | 9.6 | 0.00 | 0.00 | 0.00 | 100 | 1006.8 |
| 20260506200128 | 60 | 174 | 2.6 | 9.6 | 0.00 | 0.00 | 0.00 | 100 | 1006.8 |
| 20260506200029 | 60 | 173 | 2.6 | 9.6 | 0.00 | 0.00 | 0.00 | 100 | 1006.8 |
| 20260506195929 | 60 | 174 | 2.6 | 7.0 | 0.00 | 0.00 | 0.00 | 100 | 1006.8 |
| 20260506195830 | 60 | 173 | 2.6 | 9.6 | 0.00 | 0.00 | 0.00 | 100 | 1006.8 |
| 20260506195713 | 60 | 174 | 2.6 | 7.8 | 0.00 | 0.00 | 0.00 | 100 | 1006.9 |
| 20260506195709 | 60 | 174 | 2.6 | 13.0 | 0.00 | 0.00 | 0.00 | 100 | 1006.9 |
| 20260506195629 | 60 | 174 | 2.6 | 13.0 | 0.00 | 0.00 | 0.00 | 100 | 1006.9 |
| 20260506195527 | 60 | 173 | 2.6 | 13.0 | 0.00 | 0.00 | 0.00 | 100 | 1006.9 |
| 20260506195427 | 60 | 174 | 2.6 | 13.0 | 0.00 | 0.00 | 0.00 | 100 | 1007.0 |
| 20260506195332 | 60 | 173 | 2.6 | 13.0 | 0.00 | 0.00 | 0.00 | 100 | 1007.0 |
| 20260506195319 | 60 | 174 | 2.6 | 13.0 | 0.00 | 0.00 | 0.00 | 100 | 1006.9 |
| 20260506195206 | 60 | 174 | 2.6 | 13.0 | 0.00 | 0.00 | 0.00 | 100 | 1007.0 |
| 20260506195126 | 60 | 174 | 2.6 | 13.0 | 0.00 | 0.00 | 0.00 | 100 | 1007.0 |
| 20260506195027 | 60 | 174 | 2.6 | 13.0 | 0.00 | 0.00 | 0.00 | 100 | 1006.9 |
| 20260506194927 | 60 | 174 | 2.6 | 13.0 | 0.00 | 0.00 | 0.00 | 100 | 1006.9 |
| 20260506194828 | 60 | 174 | 2.6 | 13.0 | 0.00 | 0.00 | 0.00 | 100 | 1006.9 |
| 20260506194813 | 60 | 174 | 2.6 | 7.8 | 0.00 | 0.00 | 0.00 | 100 | 1006.9 |
| 20260506194625 | 60 | 174 | 2.6 | 10.4 | 0.00 | 0.00 | 0.00 | 100 | 1006.9 |
| 20260506194526 | 60 | 174 | 2.6 | 10.4 | 0.00 | 0.00 | 0.00 | 100 | 1007.0 |
| 20260506194426 | 60 | 173 | 2.6 | 10.4 | 0.00 | 0.00 | 0.00 | 100 | 1007.0 |
| 20260506194325 | 60 | 174 | 2.6 | 10.4 | 0.00 | 0.00 | 0.00 | 100 | 1007.1 |
| 20260506194206 | 60 | 174 | 1.7 | 10.4 | 0.00 | 0.00 | 0.00 | 100 | 1007.1 |
| 20260506194124 | 60 | 174 | 2.6 | 10.4 | 0.00 | 0.00 | 0.00 | 100 | 1007.1 |
| 20260506194023 | 60 | 174 | 2.6 | 11.3 | 0.00 | 0.00 | 0.00 | 100 | 1007.0 |
| 20260506193924 | 60 | 174 | 2.6 | 11.3 | 0.00 | 0.00 | 0.00 | 100 | 1007.1 |
| 20260506193825 | 60 | 174 | 1.7 | 11.3 | 0.00 | 0.00 | 0.00 | 100 | 1007.2 |
| 20260506193706 | 60 | 174 | 1.7 | 11.3 | 0.00 | 0.00 | 0.00 | 100 | 1007.1 |
| 20260506193625 | 60 | 174 | 1.7 | 11.3 | 0.00 | 0.00 | 0.00 | 100 | 1007.1 |
| 20260506193524 | 60 | 174 | 2.6 | 11.3 | 0.00 | 0.00 | 0.00 | 100 | 1007.1 |
| 20260506193424 | 60 | 175 | 2.6 | 11.3 | 0.00 | 0.00 | 0.00 | 100 | 1007.2 |
| 20260506193324 | 60 | 175 | 2.6 | 11.3 | 0.00 | 0.00 | 0.00 | 100 | 1007.2 |
| 20260506193207 | 60 | 174 | 2.6 | 11.3 | 0.00 | 0.00 | 0.00 | 100 | 1007.2 |
| 20260506193123 | 60 | 174 | 1.7 | 11.3 | 0.00 | 0.00 | 0.00 | 100 | 1007.2 |
| 20260506193024 | 60 | 174 | 1.7 | 6.1 | 0.00 | 0.00 | 0.00 | 100 | 1007.3 |
| 20260506192923 | 60 | 174 | 1.7 | 6.1 | 0.00 | 0.00 | 0.00 | 100 | 1007.3 |
| 20260506192821 | 60 | 174 | 1.7 | 6.1 | 0.00 | 0.00 | 0.00 | 100 | 1007.3 |
| 20260506192707 | 60 | 174 | 1.7 | 6.1 | 0.00 | 0.00 | 0.00 | 100 | 1007.4 |
| 20260506192621 | 60 | 174 | 1.7 | 6.1 | 0.00 | 0.00 | 0.00 | 100 | 1007.4 |
| 20260506192522 | 60 | 174 | 1.7 | 6.1 | 0.00 | 0.00 | 0.00 | 100 | 1007.4 |
| 20260506192422 | 60 | 174 | 1.7 | 6.1 | 0.00 | 0.00 | 0.00 | 100 | 1007.5 |
| 20260506192323 | 60 | 174 | 1.7 | 6.1 | 0.00 | 0.00 | 0.00 | 100 | 1007.4 |
| 20260506192207 | 60 | 174 | 1.7 | 6.1 | 0.00 | 0.00 | 0.00 | 100 | 1007.5 |
| 20260506192122 | 60 | 174 | 1.7 | 6.1 | 0.00 | 0.00 | 0.00 | 100 | 1007.5 |
| 20260506192022 | 60 | 174 | 1.7 | 6.1 | 0.00 | 0.00 | 0.00 | 100 | 1007.5 |
| 20260506191921 | 60 | 174 | 1.7 | 6.1 | 0.00 | 0.00 | 0.00 | 100 | 1007.6 |
| 20260506191822 | 60 | 174 | 1.7 | 6.1 | 0.00 | 0.00 | 0.00 | 100 | 1007.6 |
| 20260506191722 | 60 | 174 | 1.7 | 7.8 | 0.00 | 0.00 | 0.00 | 100 | 1007.6 |
| 20260506191707 | 60 | 174 | 1.7 | 7.8 | 0.00 | 0.00 | 0.00 | 100 | 1007.7 |
| 20260506191619 | 60 | 174 | 1.7 | 7.8 | 0.00 | 0.00 | 0.00 | 100 | 1007.7 |
| 20260506191521 | 60 | 174 | 1.7 | 7.8 | 0.00 | 0.00 | 0.00 | 100 | 1007.6 |
| 20260506191421 | 60 | 174 | 1.7 | 7.8 | 0.00 | 0.00 | 0.00 | 100 | 1007.6 |
| 20260506191319 | 60 | 174 | 1.7 | 7.8 | 0.00 | 0.00 | 0.00 | 100 | 1007.5 |
| 20260506191205 | 60 | 174 | 1.7 | 7.8 | 0.00 | 0.00 | 0.00 | 100 | 1007.6 |
| 20260506191121 | 60 | 174 | 1.7 | 7.8 | 0.00 | 0.00 | 0.00 | 100 | 1007.6 |
| 20260506191020 | 59 | 174 | 1.7 | 7.8 | 0.00 | 0.00 | 0.00 | 100 | 1007.7 |
| 20260506190919 | 59 | 174 | 1.7 | 7.8 | 0.00 | 0.00 | 0.00 | 100 | 1007.7 |
| 20260506190820 | 59 | 174 | 1.7 | 7.8 | 0.00 | 0.00 | 0.00 | 100 | 1007.7 |
| 20260506190702 | 59 | 174 | 1.7 | 8.7 | 0.00 | 0.00 | 0.00 | 100 | 1007.7 |
| 20260506190619 | 59 | 174 | 1.7 | 8.7 | 0.00 | 0.00 | 0.00 | 100 | 1007.7 |
| 20260506190517 | 59 | 174 | 1.7 | 8.7 | 0.00 | 0.00 | 0.00 | 100 | 1007.7 |
| 20260506190418 | 59 | 174 | 1.7 | 8.7 | 0.00 | 0.00 | 0.00 | 100 | 1007.7 |
| 20260506190318 | 59 | 175 | 1.7 | 8.7 | 0.00 | 0.00 | 0.00 | 100 | 1007.7 |
| 20260506190217 | 59 | 175 | 1.7 | 8.7 | 0.00 | 0.00 | 0.00 | 100 | 1007.8 |
| 20260506190202 | 59 | 174 | 1.7 | 8.7 | 0.00 | 0.00 | 0.00 | 100 | 1007.8 |
| 20260506190118 | 59 | 174 | 1.7 | 8.7 | 0.00 | 0.00 | 0.00 | 100 | 1007.8 |
| 20260506190018 | 59 | 174 | 1.7 | 8.7 | 0.00 | 0.00 | 0.00 | 100 | 1007.7 |
| 20260506185919 | 59 | 174 | 1.7 | 8.7 | 0.00 | 0.00 | 0.00 | 100 | 1007.7 |
| 20260506185818 | 59 | 174 | 2.6 | 8.7 | 0.00 | 0.00 | 0.00 | 100 | 1007.7 |
| 20260506185703 | 59 | 174 | 2.6 | 8.7 | 0.00 | 0.00 | 0.00 | 100 | 1007.8 |
| 20260506185618 | 59 | 174 | 2.6 | 8.7 | 0.00 | 0.00 | 0.00 | 100 | 1007.8 |
| 20260506185518 | 59 | 174 | 2.6 | 8.7 | 0.00 | 0.00 | 0.00 | 100 | 1007.7 |
| 20260506185418 | 59 | 174 | 2.6 | 8.7 | 0.00 | 0.00 | 0.00 | 100 | 1007.7 |
| 20260506185319 | 59 | 174 | 2.6 | 8.7 | 0.00 | 0.00 | 0.00 | 100 | 1007.7 |
| 20260506185219 | 59 | 174 | 2.6 | 8.7 | 0.00 | 0.00 | 0.00 | 100 | 1007.6 |
| 20260506185201 | 59 | 174 | 2.6 | 8.7 | 0.00 | 0.00 | 0.00 | 100 | 1007.7 |
| 20260506185117 | 59 | 174 | 2.6 | 8.7 | 0.00 | 0.00 | 0.00 | 100 | 1007.7 |
| 20260506185015 | 59 | 174 | 2.6 | 8.7 | 0.00 | 0.00 | 0.00 | 100 | 1007.7 |
| 20260506184916 | 59 | 174 | 2.6 | 8.7 | 0.00 | 0.00 | 0.00 | 100 | 1007.7 |
| 20260506184816 | 59 | 174 | 1.7 | 8.7 | 0.00 | 0.00 | 0.00 | 100 | 1007.7 |
| 20260506184702 | 59 | 174 | 1.7 | 8.7 | 0.00 | 0.00 | 0.00 | 100 | 1007.8 |
| 20260506184616 | 59 | 174 | 1.7 | 8.7 | 0.00 | 0.00 | 0.00 | 100 | 1007.8 |
| 20260506184516 | 59 | 174 | 1.7 | 8.7 | 0.00 | 0.00 | 0.00 | 100 | 1008.0 |
| 20260506184416 | 59 | 174 | 1.7 | 7.0 | 0.00 | 0.00 | 0.00 | 100 | 1007.9 |
| 20260506184317 | 59 | 174 | 1.7 | 7.0 | 0.00 | 0.00 | 0.00 | 100 | 1007.9 |
| 20260506184202 | 59 | 174 | 1.7 | 7.0 | 0.00 | 0.00 | 0.00 | 100 | 1007.8 |
| 20260506184115 | 59 | 174 | 1.7 | 7.0 | 0.00 | 0.00 | 0.00 | 100 | 1007.8 |
| 20260506184015 | 58 | 174 | 2.6 | 7.8 | 0.00 | 0.00 | 0.00 | 100 | 1007.8 |
| 20260506183915 | 59 | 174 | 2.6 | 7.8 | 0.00 | 0.00 | 0.00 | 100 | 1007.7 |
| 20260506183817 | 58 | 174 | 2.6 | 7.8 | 0.00 | 0.00 | 0.00 | 100 | 1007.8 |
| 20260506183715 | 58 | 174 | 2.6 | 7.8 | 0.00 | 0.00 | 0.00 | 100 | 1007.7 |
| 20260506183703 | 58 | 174 | 2.6 | 7.8 | 0.00 | 0.00 | 0.00 | 100 | 1007.8 |
| 20260506183614 | 59 | 174 | 2.6 | 7.8 | 0.00 | 0.00 | 0.00 | 100 | 1007.8 |
| 20260506183514 | 59 | 174 | 2.6 | 7.8 | 0.00 | 0.00 | 0.00 | 100 | 1007.8 |
| 20260506183414 | 58 | 174 | 2.6 | 7.8 | 0.00 | 0.00 | 0.00 | 100 | 1007.8 |
| 20260506183314 | 58 | 174 | 2.6 | 7.8 | 0.00 | 0.00 | 0.00 | 100 | 1007.9 |
| 20260506183214 | 58 | 174 | 2.6 | 7.8 | 0.00 | 0.00 | 0.00 | 100 | 1007.9 |
| 20260506183207 | 59 | 174 | 1.7 | 7.0 | 0.00 | 0.00 | 0.00 | 100 | 1008.0 |
| 20260506183201 | 58 | 174 | 1.7 | 7.8 | 0.00 | 0.00 | 0.00 | 100 | 1007.9 |
| 20260506183114 | 58 | 174 | 1.7 | 7.8 | 0.00 | 0.00 | 0.00 | 100 | 1007.9 |
| 20260506183013 | 59 | 174 | 1.7 | 7.0 | 0.00 | 0.00 | 0.00 | 100 | 1008.0 |
| 20260506182914 | 59 | 174 | 1.7 | 7.0 | 0.00 | 0.00 | 0.00 | 100 | 1007.9 |
| 20260506182821 | 59 | 174 | 1.7 | 7.0 | 0.00 | 0.00 | 0.00 | 100 | 1007.9 |
| 20260506182808 | 59 | 174 | 1.7 | 7.0 | 0.00 | 0.00 | 0.00 | 100 | 1008.0 |
| 20260506182615 | 59 | 174 | 1.7 | 7.0 | 0.00 | 0.00 | 0.00 | 100 | 1008.0 |
| 20260506182512 | 59 | 174 | 1.7 | 7.8 | 0.00 | 0.00 | 0.00 | 100 | 1008.0 |
| 20260506182411 | 59 | 174 | 1.7 | 7.8 | 0.00 | 0.00 | 0.00 | 100 | 1008.1 |
| 20260506182312 | 59 | 174 | 1.7 | 7.8 | 0.00 | 0.00 | 0.00 | 100 | 1008.2 |
| 20260506182211 | 59 | 174 | 1.7 | 7.8 | 0.00 | 0.00 | 0.00 | 100 | 1008.1 |
| 20260506182159 | 59 | 174 | 1.7 | 7.8 | 0.00 | 0.00 | 0.00 | 100 | 1008.1 |
| 20260506182110 | 59 | 174 | 1.7 | 7.8 | 0.00 | 0.00 | 0.00 | 100 | 1008.1 |
| 20260506182009 | 59 | 174 | 1.7 | 7.8 | 0.00 | 0.00 | 0.00 | 100 | 1008.1 |
| 20260506181910 | 59 | 174 | 1.7 | 7.8 | 0.00 | 0.00 | 0.00 | 100 | 1008.1 |
| 20260506181811 | 59 | 174 | 1.7 | 7.8 | 0.00 | 0.00 | 0.00 | 100 | 1008.2 |
| 20260506181711 | 59 | 174 | 1.7 | 7.8 | 0.00 | 0.00 | 0.00 | 100 | 1008.2 |
| 20260506181657 | 59 | 174 | 1.7 | 7.8 | 0.00 | 0.00 | 0.00 | 100 | 1008.2 |
| 20260506181610 | 59 | 174 | 1.7 | 7.8 | 0.00 | 0.00 | 0.00 | 100 | 1008.2 |
| 20260506181511 | 59 | 174 | 1.7 | 7.0 | 0.00 | 0.00 | 0.00 | 100 | 1008.2 |
| 20260506181410 | 59 | 174 | 1.7 | 7.0 | 0.00 | 0.00 | 0.00 | 100 | 1008.1 |
| 20260506181310 | 59 | 174 | 1.7 | 7.0 | 0.00 | 0.00 | 0.00 | 100 | 1008.2 |
| 20260506181210 | 59 | 174 | 1.7 | 7.0 | 0.00 | 0.00 | 0.00 | 100 | 1008.2 |
| 20260506181202 | 59 | 174 | 1.7 | 7.0 | 0.00 | 0.00 | 0.00 | 100 | 1008.2 |
| 20260506181157 | 59 | 174 | 1.7 | 7.0 | 0.00 | 0.00 | 0.00 | 100 | 1008.3 |
| 20260506181109 | 59 | 174 | 1.7 | 7.0 | 0.00 | 0.00 | 0.00 | 100 | 1008.3 |
| 20260506181009 | 59 | 174 | 1.7 | 7.0 | 0.00 | 0.00 | 0.00 | 100 | 1008.2 |
| 20260506180909 | 59 | 174 | 1.7 | 7.0 | 0.00 | 0.00 | 0.00 | 100 | 1008.3 |
| 20260506180820 | 59 | 174 | 1.7 | 7.0 | 0.00 | 0.00 | 0.00 | 100 | 1008.3 |
| 20260506180804 | 59 | 174 | 1.7 | 7.0 | 0.00 | 0.00 | 0.00 | 100 | 1008.3 |
| 20260506180610 | 59 | 174 | 1.7 | 6.1 | 0.00 | 0.00 | 0.00 | 100 | 1008.2 |
| 20260506180510 | 59 | 174 | 1.7 | 6.1 | 0.00 | 0.00 | 0.00 | 100 | 1008.3 |
| 20260506180411 | 59 | 174 | 1.7 | 6.1 | 0.00 | 0.00 | 0.00 | 100 | 1008.4 |
| 20260506180311 | 59 | 174 | 1.7 | 6.1 | 0.00 | 0.00 | 0.00 | 100 | 1008.3 |
| 20260506180210 | 59 | 174 | 1.7 | 6.1 | 0.00 | 0.00 | 0.00 | 100 | 1008.4 |
| 20260506180203 | 60 | 174 | 2.6 | 7.0 | 0.00 | 0.00 | 0.00 | 100 | 1008.5 |
| 20260506180158 | 59 | 174 | 2.6 | 6.1 | 0.00 | 0.00 | 0.00 | 100 | 1008.3 |
| 20260506180110 | 59 | 174 | 2.6 | 6.1 | 0.00 | 0.00 | 0.00 | 100 | 1008.3 |
| 20260506180009 | 59 | 174 | 2.6 | 6.1 | 0.00 | 0.00 | 0.00 | 100 | 1008.3 |
| 20260506175909 | 59 | 174 | 2.6 | 6.1 | 0.00 | 0.00 | 0.00 | 100 | 1008.3 |
| 20260506175818 | 59 | 174 | 2.6 | 6.1 | 0.00 | 0.00 | 0.00 | 100 | 1008.3 |
| 20260506175804 | 60 | 174 | 2.6 | 7.0 | 0.00 | 0.00 | 0.00 | 100 | 1008.4 |
| 20260506175610 | 60 | 174 | 2.6 | 7.0 | 0.00 | 0.00 | 0.00 | 100 | 1008.5 |
| 20260506175509 | 60 | 174 | 2.6 | 7.0 | 0.00 | 0.00 | 0.00 | 100 | 1008.6 |
| 20260506175409 | 60 | 174 | 2.6 | 7.0 | 0.00 | 0.00 | 0.00 | 100 | 1008.6 |
| 20260506175310 | 60 | 174 | 2.6 | 7.0 | 0.00 | 0.00 | 0.00 | 100 | 1008.7 |
| 20260506175209 | 60 | 174 | 2.6 | 7.0 | 0.00 | 0.00 | 0.00 | 100 | 1008.7 |
| 20260506175158 | 60 | 174 | 2.6 | 7.0 | 0.00 | 0.00 | 0.00 | 100 | 1008.7 |
| 20260506175110 | 60 | 174 | 2.6 | 7.0 | 0.00 | 0.00 | 0.00 | 100 | 1008.7 |
| 20260506175009 | 60 | 174 | 2.6 | 7.0 | 0.00 | 0.00 | 0.00 | 100 | 1008.8 |
| 20260506174911 | 60 | 174 | 2.6 | 11.3 | 0.00 | 0.00 | 0.00 | 100 | 1008.8 |
| 20260506174811 | 60 | 174 | 2.6 | 11.3 | 0.00 | 0.00 | 0.00 | 100 | 1008.7 |
| 20260506174710 | 60 | 175 | 2.6 | 11.3 | 0.00 | 0.00 | 0.00 | 100 | 1008.8 |
| 20260506174658 | 60 | 175 | 2.6 | 11.3 | 0.00 | 0.00 | 0.00 | 100 | 1008.7 |
| 20260506174609 | 60 | 175 | 2.6 | 11.3 | 0.00 | 0.00 | 0.00 | 100 | 1008.7 |
| 20260506174509 | 60 | 174 | 2.6 | 11.3 | 0.00 | 0.00 | 0.00 | 100 | 1008.8 |
| 20260506174411 | 60 | 174 | 2.6 | 11.3 | 0.00 | 0.00 | 0.00 | 100 | 1008.9 |
| 20260506174310 | 60 | 174 | 2.6 | 11.3 | 0.00 | 0.00 | 0.00 | 100 | 1008.9 |
| 20260506174211 | 61 | 174 | 2.6 | 11.3 | 0.00 | 0.00 | 0.00 | 100 | 1009.0 |
| 20260506174205 | 62 | 174 | 2.6 | 8.7 | 0.00 | 0.00 | 0.00 | 100 | 1009.1 |
| 20260506174158 | 61 | 174 | 2.6 | 11.3 | 0.00 | 0.00 | 0.00 | 100 | 1009.0 |
| 20260506174110 | 61 | 175 | 2.6 | 11.3 | 0.00 | 0.00 | 0.00 | 100 | 1009.0 |
| 20260506174011 | 61 | 174 | 2.6 | 11.3 | 0.00 | 0.00 | 0.00 | 100 | 1009.1 |
| 20260506173910 | 61 | 174 | 2.6 | 8.7 | 0.00 | 0.00 | 0.00 | 100 | 1009.1 |
| 20260506173822 | 61 | 175 | 2.6 | 8.7 | 0.00 | 0.00 | 0.00 | 100 | 1009.1 |
| 20260506173808 | 61 | 174 | 2.6 | 8.7 | 0.00 | 0.00 | 0.00 | 100 | 1009.0 |
| 20260506173657 | 61 | 174 | 2.6 | 8.7 | 0.00 | 0.00 | 0.00 | 100 | 1008.8 |
| 20260506173611 | 61 | 174 | 2.6 | 8.7 | 0.00 | 0.00 | 0.00 | 100 | 1008.8 |
| 20260506173509 | 61 | 174 | 2.6 | 8.7 | 0.00 | 0.00 | 0.00 | 100 | 1009.0 |
| 20260506173410 | 61 | 174 | 2.6 | 8.7 | 0.00 | 0.00 | 0.00 | 100 | 1009.1 |
| 20260506173319 | 62 | 174 | 2.6 | 8.7 | 0.00 | 0.00 | 0.00 | 100 | 1009.0 |
| 20260506173305 | 62 | 174 | 2.6 | 8.7 | 0.00 | 0.00 | 0.00 | 100 | 1009.1 |
| 20260506173110 | 62 | 174 | 2.6 | 8.7 | 0.00 | 0.00 | 0.00 | 100 | 1009.1 |
| 20260506173011 | 62 | 174 | 2.6 | 8.7 | 0.00 | 0.00 | 0.00 | 100 | 1009.1 |
| 20260506172910 | 62 | 174 | 2.6 | 8.7 | 0.00 | 0.00 | 0.00 | 100 | 1009.1 |
| 20260506172810 | 62 | 175 | 2.6 | 8.7 | 0.00 | 0.00 | 0.00 | 100 | 1009.1 |
| 20260506172711 | 62 | 174 | 2.6 | 8.7 | 0.00 | 0.00 | 0.00 | 100 | 1009.1 |
| 20260506172702 | 62 | 174 | 2.6 | 8.7 | 0.00 | 0.00 | 0.00 | 100 | 1009.0 |
| 20260506172657 | 62 | 174 | 2.6 | 8.7 | 0.00 | 0.00 | 0.00 | 100 | 1009.1 |
| 20260506172609 | 62 | 174 | 2.6 | 8.7 | 0.00 | 0.00 | 0.00 | 100 | 1009.1 |
| 20260506172511 | 62 | 174 | 2.6 | 8.7 | 0.00 | 0.00 | 0.00 | 100 | 1009.0 |
| 20260506172410 | 62 | 174 | 2.6 | 8.7 | 0.00 | 0.00 | 0.00 | 100 | 1009.0 |
| 20260506172319 | 62 | 174 | 2.6 | 8.7 | 0.00 | 0.00 | 0.00 | 100 | 1008.9 |
| 20260506172307 | 62 | 174 | 2.6 | 8.7 | 0.00 | 0.00 | 0.00 | 100 | 1008.9 |
| 20260506172109 | 62 | 174 | 2.6 | 8.7 | 0.00 | 0.00 | 0.00 | 100 | 1009.0 |
| 20260506172009 | 62 | 174 | 2.6 | 8.7 | 0.00 | 0.00 | 0.00 | 100 | 1009.1 |
| 20260506171910 | 62 | 174 | 2.6 | 8.7 | 0.00 | 0.00 | 0.00 | 100 | 1009.0 |
| 20260506171810 | 63 | 174 | 2.6 | 8.7 | 0.00 | 0.00 | 0.00 | 100 | 1009.0 |
| 20260506171709 | 63 | 174 | 2.6 | 8.7 | 0.00 | 0.00 | 0.00 | 100 | 1008.9 |
| 20260506171657 | 63 | 174 | 2.6 | 7.0 | 0.00 | 0.00 | 0.00 | 100 | 1008.9 |
| 20260506171609 | 63 | 174 | 2.6 | 8.7 | 0.00 | 0.00 | 0.00 | 100 | 1008.9 |
| 20260506171511 | 63 | 174 | 2.6 | 8.7 | 0.00 | 0.00 | 0.00 | 100 | 1009.0 |
| 20260506171411 | 63 | 174 | 2.6 | 8.7 | 0.00 | 0.00 | 0.00 | 100 | 1009.0 |
| 20260506171309 | 63 | 174 | 2.6 | 8.7 | 0.00 | 0.00 | 0.00 | 100 | 1009.0 |
| 20260506171211 | 63 | 174 | 2.6 | 8.7 | 0.00 | 0.00 | 0.00 | 100 | 1009.1 |
| 20260506171204 | 63 | 174 | 2.6 | 8.7 | 0.00 | 0.00 | 0.00 | 100 | 1009.2 |
| 20260506171159 | 63 | 174 | 2.6 | 8.7 | 0.00 | 0.00 | 0.00 | 100 | 1009.1 |
| 20260506171109 | 63 | 174 | 2.6 | 8.7 | 0.00 | 0.00 | 0.00 | 100 | 1009.1 |
| 20260506171011 | 63 | 174 | 2.6 | 8.7 | 0.00 | 0.00 | 0.00 | 100 | 1009.0 |
| 20260506170909 | 63 | 174 | 2.6 | 8.7 | 0.00 | 0.00 | 0.00 | 100 | 1009.1 |
| 20260506170818 | 63 | 174 | 2.6 | 8.7 | 0.00 | 0.00 | 0.00 | 100 | 1009.2 |
| 20260506170803 | 63 | 174 | 2.6 | 8.7 | 0.00 | 0.00 | 0.00 | 100 | 1009.2 |
| 20260506170610 | 63 | 174 | 2.6 | 8.7 | 0.00 | 0.00 | 0.00 | 100 | 1009.2 |
| 20260506170510 | 63 | 174 | 2.6 | 8.7 | 0.00 | 0.00 | 0.00 | 100 | 1009.2 |
| 20260506170410 | 63 | 174 | 2.6 | 8.7 | 0.00 | 0.00 | 0.00 | 100 | 1009.2 |
| 20260506170309 | 63 | 174 | 2.6 | 8.7 | 0.00 | 0.00 | 0.00 | 100 | 1009.1 |
| 20260506170212 | 63 | 174 | 2.6 | 8.7 | 0.00 | 0.00 | 0.00 | 100 | 1009.2 |
| 20260506170159 | 63 | 174 | 3.5 | 8.7 | 0.00 | 0.00 | 0.00 | 100 | 1009.2 |
| 20260506170111 | 63 | 174 | 3.5 | 8.7 | 0.00 | 0.00 | 0.00 | 100 | 1009.2 |
| 20260506170012 | 63 | 174 | 3.5 | 8.7 | 0.00 | 0.00 | 0.00 | 100 | 1009.2 |
| 20260506165911 | 63 | 174 | 2.6 | 8.7 | 0.00 | 0.00 | 0.00 | 100 | 1009.1 |
| 20260506165811 | 63 | 174 | 2.6 | 9.6 | 0.00 | 0.00 | 0.00 | 100 | 1009.1 |
| 20260506165710 | 63 | 174 | 2.6 | 9.6 | 0.00 | 0.00 | 0.00 | 100 | 1009.3 |
| 20260506165658 | 63 | 174 | 2.6 | 9.6 | 0.00 | 0.00 | 0.00 | 100 | 1009.2 |
| 20260506165611 | 63 | 174 | 2.6 | 9.6 | 0.00 | 0.00 | 0.00 | 100 | 1009.2 |
| 20260506165510 | 63 | 174 | 2.6 | 9.6 | 0.00 | 0.00 | 0.00 | 100 | 1009.1 |
| 20260506165409 | 63 | 174 | 2.6 | 9.6 | 0.00 | 0.00 | 0.00 | 100 | 1009.1 |
| 20260506165309 | 63 | 174 | 2.6 | 9.6 | 0.00 | 0.00 | 0.00 | 100 | 1009.2 |
| 20260506165209 | 63 | 174 | 2.6 | 9.6 | 0.00 | 0.00 | 0.00 | 100 | 1009.1 |
| 20260506165158 | 63 | 174 | 2.6 | 9.6 | 0.00 | 0.00 | 0.00 | 100 | 1009.2 |
| 20260506165110 | 63 | 174 | 2.6 | 9.6 | 0.00 | 0.00 | 0.00 | 100 | 1009.2 |
| 20260506165011 | 63 | 174 | 2.6 | 9.6 | 0.00 | 0.00 | 0.00 | 100 | 1009.2 |
| 20260506164910 | 63 | 174 | 2.6 | 9.6 | 0.00 | 0.00 | 0.00 | 100 | 1009.1 |
| 20260506164811 | 63 | 174 | 2.6 | 7.8 | 0.00 | 0.00 | 0.00 | 100 | 1009.2 |
| 20260506164710 | 63 | 174 | 1.7 | 7.8 | 0.00 | 0.00 | 0.00 | 3 | 1009.2 |
| 20260506164657 | 63 | 174 | 1.7 | 7.8 | 0.00 | 0.00 | 0.00 | 3 | 1009.2 |
| 20260506164611 | 63 | 174 | 1.7 | 7.8 | 0.00 | 0.00 | 0.00 | 3 | 1009.2 |
| 20260506164510 | 63 | 174 | 2.6 | 7.8 | 0.00 | 0.00 | 0.00 | 3 | 1009.2 |
| 20260506164410 | 63 | 174 | 1.7 | 7.8 | 0.00 | 0.00 | 0.00 | 1 | 1009.4 |
| 20260506164310 | 63 | 174 | 1.7 | 7.8 | 0.00 | 0.00 | 0.00 | 100 | 1009.3 |
| 20260506164212 | 63 | 174 | 1.7 | 7.0 | 0.00 | 0.00 | 0.00 | 100 | 1009.5 |
| 20260506164111 | 63 | 174 | 1.7 | 7.0 | 0.00 | 0.00 | 0.00 | 100 | 1009.5 |
| 20260506164010 | 63 | 174 | 1.7 | 7.0 | 0.00 | 0.00 | 0.00 | 100 | 1009.5 |
| 20260506163910 | 63 | 174 | 1.7 | 7.0 | 0.00 | 0.00 | 0.00 | 100 | 1009.4 |
| 20260506163809 | 63 | 174 | 2.6 | 7.0 | 0.00 | 0.00 | 0.00 | 100 | 1009.4 |
| 20260506163711 | 63 | 174 | 2.6 | 7.0 | 0.00 | 0.00 | 0.00 | 100 | 1009.3 |
| 20260506163657 | 63 | 174 | 2.6 | 7.8 | 0.00 | 0.00 | 0.00 | 100 | 1009.3 |
| 20260506163610 | 63 | 174 | 2.6 | 7.8 | 0.00 | 0.00 | 0.00 | 100 | 1009.3 |
| 20260506163510 | 63 | 174 | 2.6 | 10.4 | 0.00 | 0.00 | 0.00 | 100 | 1009.3 |
| 20260506163410 | 63 | 174 | 2.6 | 10.4 | 0.00 | 0.00 | 0.00 | 100 | 1009.4 |
| 20260506163309 | 63 | 173 | 3.5 | 10.4 | 0.00 | 0.00 | 0.00 | 100 | 1009.3 |
| 20260506163209 | 63 | 174 | 3.5 | 10.4 | 0.00 | 0.00 | 0.00 | 100 | 1009.3 |
| 20260506163159 | 63 | 174 | 3.5 | 10.4 | 0.00 | 0.00 | 0.00 | 2 | 1009.3 |
| 20260506163110 | 63 | 174 | 3.5 | 10.4 | 0.00 | 0.00 | 0.00 | 2 | 1009.3 |
| 20260506163009 | 63 | 173 | 3.5 | 10.4 | 0.00 | 0.00 | 0.00 | 5 | 1009.3 |
| 20260506162909 | 63 | 173 | 3.5 | 10.4 | 0.00 | 0.00 | 0.00 | 5 | 1009.2 |
| 20260506162809 | 63 | 174 | 3.5 | 10.4 | 0.00 | 0.00 | 0.00 | 5 | 1009.3 |
| 20260506162710 | 63 | 174 | 3.5 | 10.4 | 0.00 | 0.00 | 0.00 | 5 | 1009.3 |
| 20260506162658 | 63 | 174 | 3.5 | 10.4 | 0.00 | 0.00 | 0.00 | 5 | 1009.3 |
| 20260506162609 | 63 | 174 | 3.5 | 10.4 | 0.00 | 0.00 | 0.00 | 8 | 1009.3 |
| 20260506162509 | 63 | 174 | 3.5 | 10.4 | 0.00 | 0.00 | 0.00 | 9 | 1009.4 |
| 20260506162410 | 63 | 174 | 2.6 | 10.4 | 0.00 | 0.00 | 0.00 | 9 | 1009.3 |
| 20260506162310 | 63 | 174 | 2.6 | 10.4 | 0.00 | 0.00 | 0.00 | 8 | 1009.3 |
| 20260506162210 | 63 | 174 | 2.6 | 12.2 | 0.00 | 0.00 | 0.00 | 7 | 1009.3 |
| 20260506162159 | 63 | 174 | 2.6 | 12.2 | 0.00 | 0.00 | 0.00 | 7 | 1009.3 |
| 20260506162110 | 63 | 174 | 2.6 | 12.2 | 0.00 | 0.00 | 0.00 | 8 | 1009.3 |
| 20260506162011 | 64 | 174 | 2.6 | 12.2 | 0.00 | 0.00 | 0.00 | 8 | 1009.2 |
| 20260506161910 | 64 | 174 | 2.6 | 12.2 | 0.00 | 0.00 | 0.00 | 9 | 1009.3 |
| 20260506161810 | 64 | 174 | 2.6 | 12.2 | 0.00 | 0.00 | 0.00 | 9 | 1009.3 |
| 20260506161709 | 64 | 174 | 2.6 | 12.2 | 0.00 | 0.00 | 0.00 | 7 | 1009.4 |
| 20260506161658 | 64 | 174 | 2.6 | 12.2 | 0.00 | 0.00 | 0.00 | 7 | 1009.3 |
| 20260506161609 | 64 | 174 | 2.6 | 12.2 | 0.00 | 0.00 | 0.00 | 7 | 1009.3 |
| 20260506161510 | 64 | 174 | 2.6 | 12.2 | 0.00 | 0.00 | 0.00 | 7 | 1009.4 |
| 20260506161409 | 64 | 174 | 2.6 | 12.2 | 0.00 | 0.00 | 0.00 | 10 | 1009.4 |
| 20260506161309 | 64 | 174 | 2.6 | 12.2 | 0.00 | 0.00 | 0.00 | 11 | 1009.5 |
| 20260506161210 | 64 | 174 | 2.6 | 7.8 | 0.00 | 0.00 | 0.00 | 10 | 1009.5 |
| 20260506161205 | 64 | 173 | 2.6 | 10.4 | 0.00 | 0.00 | 0.00 | 15 | 1009.6 |
| 20260506161159 | 64 | 174 | 2.6 | 7.8 | 0.00 | 0.00 | 0.00 | 10 | 1009.6 |
| 20260506161111 | 64 | 174 | 2.6 | 7.8 | 0.00 | 0.00 | 0.00 | 9 | 1009.6 |
| 20260506161011 | 64 | 174 | 2.6 | 7.8 | 0.00 | 0.00 | 0.00 | 9 | 1009.6 |
| 20260506160911 | 64 | 174 | 2.6 | 8.7 | 0.00 | 0.00 | 0.00 | 10 | 1009.5 |
| 20260506160822 | 64 | 174 | 2.6 | 8.7 | 0.00 | 0.00 | 0.00 | 12 | 1009.4 |
| 20260506160809 | 64 | 174 | 3.5 | 8.7 | 0.00 | 0.00 | 0.00 | 16 | 1009.5 |
| 20260506160658 | 64 | 174 | 2.6 | 8.7 | 0.00 | 0.00 | 0.00 | 16 | 1009.5 |
| 20260506160610 | 64 | 174 | 2.6 | 8.7 | 0.00 | 0.00 | 0.00 | 16 | 1009.5 |
| 20260506160511 | 64 | 174 | 2.6 | 8.7 | 0.00 | 0.00 | 0.00 | 17 | 1009.5 |
| 20260506160410 | 64 | 174 | 2.6 | 10.4 | 0.00 | 0.00 | 0.00 | 14 | 1009.7 |
| 20260506160326 | 65 | 173 | 2.6 | 13.9 | 0.00 | 0.00 | 0.00 | 9 | 1009.8 |
| 20260506160319 | 64 | 174 | 2.6 | 10.4 | 0.00 | 0.00 | 0.00 | 14 | 1009.6 |
| 20260506160305 | 64 | 173 | 2.6 | 10.4 | 0.00 | 0.00 | 0.00 | 14 | 1009.6 |
| 20260506160110 | 64 | 173 | 2.6 | 10.4 | 0.00 | 0.00 | 0.00 | 9 | 1009.6 |
| 20260506160009 | 65 | 174 | 2.6 | 10.4 | 0.00 | 0.00 | 0.00 | 9 | 1009.7 |
| 20260506155910 | 65 | 174 | 2.6 | 13.9 | 0.00 | 0.00 | 0.00 | 9 | 1009.7 |
| 20260506155818 | 65 | 173 | 2.6 | 13.9 | 0.00 | 0.00 | 0.00 | 9 | 1009.7 |
| 20260506155804 | 65 | 173 | 2.6 | 13.9 | 0.00 | 0.00 | 0.00 | 9 | 1009.9 |
| 20260506155609 | 65 | 173 | 2.6 | 13.9 | 0.00 | 0.00 | 0.00 | 9 | 1009.8 |
| 20260506155509 | 64 | 173 | 3.5 | 13.9 | 0.00 | 0.00 | 0.00 | 5 | 1009.8 |
| 20260506155411 | 64 | 173 | 2.6 | 13.9 | 0.00 | 0.00 | 0.00 | 2 | 1009.8 |
| 20260506155311 | 64 | 173 | 2.6 | 13.9 | 0.00 | 0.00 | 0.00 | 5 | 1009.9 |
| 20260506155210 | 64 | 173 | 2.6 | 13.9 | 0.00 | 0.00 | 0.00 | 5 | 1009.8 |
| 20260506155203 | 63 | 173 | 2.6 | 10.4 | 0.00 | 0.00 | 0.00 | 100 | 1009.8 |
| 20260506155158 | 64 | 173 | 2.6 | 13.9 | 0.00 | 0.00 | 0.00 | 5 | 1009.9 |
| 20260506155109 | 64 | 173 | 2.6 | 13.9 | 0.00 | 0.00 | 0.00 | 5 | 1009.9 |
| 20260506155011 | 64 | 173 | 2.6 | 13.9 | 0.00 | 0.00 | 0.00 | 3 | 1009.8 |
| 20260506154911 | 64 | 172 | 2.6 | 10.4 | 0.00 | 0.00 | 0.00 | 100 | 1010.0 |
| 20260506154819 | 64 | 172 | 2.6 | 10.4 | 0.00 | 0.00 | 0.00 | 100 | 1010.0 |
| 20260506154804 | 63 | 172 | 2.6 | 10.4 | 0.00 | 0.00 | 0.00 | 100 | 1009.9 |
| 20260506154610 | 63 | 172 | 2.6 | 10.4 | 0.00 | 0.00 | 0.00 | 100 | 1009.8 |
| 20260506154510 | 63 | 172 | 2.6 | 10.4 | 0.00 | 0.00 | 0.00 | 100 | 1010.0 |
| 20260506154410 | 63 | 173 | 2.6 | 10.4 | 0.00 | 0.00 | 0.00 | 100 | 1010.0 |
| 20260506154309 | 63 | 173 | 2.6 | 13.9 | 0.00 | 0.00 | 0.00 | 100 | 1010.1 |
| 20260506154210 | 63 | 173 | 2.6 | 13.9 | 0.00 | 0.00 | 0.00 | 100 | 1010.1 |
| 20260506154158 | 63 | 173 | 2.6 | 13.9 | 0.00 | 0.00 | 0.00 | 100 | 1010.1 |
| 20260506154109 | 63 | 173 | 2.6 | 13.9 | 0.00 | 0.00 | 0.00 | 1 | 1010.1 |
| 20260506154011 | 63 | 173 | 2.6 | 13.9 | 0.00 | 0.00 | 0.00 | 1 | 1010.0 |
| 20260506153911 | 63 | 172 | 2.6 | 13.9 | 0.00 | 0.00 | 0.00 | 1 | 1010.0 |
| 20260506153811 | 63 | 173 | 2.6 | 13.9 | 0.00 | 0.00 | 0.00 | 1 | 1009.9 |
| 20260506153710 | 63 | 173 | 2.6 | 13.9 | 0.00 | 0.00 | 0.00 | 100 | 1010.0 |
| 20260506153658 | 63 | 173 | 2.6 | 13.9 | 0.00 | 0.00 | 0.00 | 100 | 1009.9 |
| 20260506153610 | 63 | 173 | 2.6 | 13.9 | 0.00 | 0.00 | 0.00 | 100 | 1009.9 |
| 20260506153509 | 63 | 173 | 2.6 | 13.9 | 0.00 | 0.00 | 0.00 | 100 | 1010.0 |
| 20260506153410 | 63 | 173 | 3.5 | 13.9 | 0.00 | 0.00 | 0.00 | 100 | 1009.9 |
| 20260506153309 | 63 | 173 | 3.5 | 13.9 | 0.00 | 0.00 | 0.00 | 100 | 1010.1 |
| 20260506153210 | 63 | 173 | 3.5 | 13.9 | 0.00 | 0.00 | 0.00 | 100 | 1009.9 |
| 20260506153159 | 63 | 173 | 3.5 | 13.9 | 0.00 | 0.00 | 0.00 | 100 | 1010.0 |
| 20260506153110 | 63 | 173 | 3.5 | 13.9 | 0.00 | 0.00 | 0.00 | 100 | 1010.0 |
| 20260506153009 | 63 | 173 | 3.5 | 13.9 | 0.00 | 0.00 | 0.00 | 100 | 1009.9 |
| 20260506152909 | 63 | 173 | 3.5 | 13.9 | 0.00 | 0.00 | 0.00 | 100 | 1009.9 |
| 20260506152809 | 63 | 173 | 3.5 | 13.9 | 0.00 | 0.00 | 0.00 | 100 | 1010.1 |
| 20260506152709 | 63 | 173 | 3.5 | 13.9 | 0.00 | 0.00 | 0.00 | 100 | 1009.9 |
| 20260506152658 | 63 | 173 | 3.5 | 13.9 | 0.00 | 0.00 | 0.00 | 100 | 1009.9 |
| 20260506152609 | 63 | 173 | 3.5 | 13.9 | 0.00 | 0.00 | 0.00 | 100 | 1009.9 |
| 20260506152509 | 63 | 173 | 3.5 | 13.9 | 0.00 | 0.00 | 0.00 | 1 | 1009.9 |
| 20260506152410 | 63 | 173 | 3.5 | 13.9 | 0.00 | 0.00 | 0.00 | 100 | 1009.9 |
| 20260506152309 | 63 | 173 | 2.6 | 13.0 | 0.00 | 0.00 | 0.00 | 1 | 1009.9 |
| 20260506152210 | 63 | 173 | 2.6 | 13.0 | 0.00 | 0.00 | 0.00 | 1 | 1009.9 |
| 20260506152159 | 63 | 173 | 2.6 | 13.0 | 0.00 | 0.00 | 0.00 | 1 | 1009.9 |
| 20260506152109 | 63 | 173 | 2.6 | 13.0 | 0.00 | 0.00 | 0.00 | 1 | 1009.9 |
| 20260506152010 | 63 | 173 | 2.6 | 13.0 | 0.00 | 0.00 | 0.00 | 4 | 1009.9 |
| 20260506151910 | 63 | 173 | 2.6 | 9.6 | 0.00 | 0.00 | 0.00 | 4 | 1009.9 |
| 20260506151809 | 63 | 174 | 2.6 | 9.6 | 0.00 | 0.00 | 0.00 | 4 | 1009.8 |
| 20260506151712 | 63 | 173 | 2.6 | 9.6 | 0.00 | 0.00 | 0.00 | 5 | 1009.8 |
| 20260506151658 | 63 | 173 | 2.6 | 9.6 | 0.00 | 0.00 | 0.00 | 5 | 1009.8 |
| 20260506151611 | 63 | 174 | 2.6 | 9.6 | 0.00 | 0.00 | 0.00 | 6 | 1009.8 |
| 20260506151511 | 63 | 173 | 2.6 | 9.6 | 0.00 | 0.00 | 0.00 | 6 | 1009.8 |
| 20260506151410 | 63 | 173 | 2.6 | 9.6 | 0.00 | 0.00 | 0.00 | 6 | 1009.6 |
| 20260506151311 | 63 | 174 | 2.6 | 10.4 | 0.00 | 0.00 | 0.00 | 6 | 1009.7 |
| 20260506151210 | 63 | 174 | 3.5 | 10.4 | 0.00 | 0.00 | 0.00 | 7 | 1009.7 |
| 20260506151203 | 64 | 174 | 3.5 | 10.4 | 0.00 | 0.00 | 0.00 | 14 | 1009.9 |
| 20260506151159 | 63 | 174 | 3.5 | 10.4 | 0.00 | 0.00 | 0.00 | 7 | 1009.8 |
| 20260506151110 | 63 | 174 | 3.5 | 10.4 | 0.00 | 0.00 | 0.00 | 8 | 1009.8 |
| 20260506151010 | 63 | 174 | 3.5 | 10.4 | 0.00 | 0.00 | 0.00 | 13 | 1009.8 |
| 20260506150910 | 63 | 174 | 3.5 | 10.4 | 0.00 | 0.00 | 0.00 | 13 | 1009.8 |
| 20260506150820 | 63 | 174 | 3.5 | 10.4 | 0.00 | 0.00 | 0.00 | 13 | 1009.8 |
| 20260506150805 | 64 | 174 | 3.5 | 10.4 | 0.00 | 0.00 | 0.00 | 14 | 1009.9 |
| 20260506150610 | 64 | 175 | 3.5 | 10.4 | 0.00 | 0.00 | 0.00 | 15 | 1009.9 |
| 20260506150509 | 64 | 175 | 2.6 | 10.4 | 0.00 | 0.00 | 0.00 | 15 | 1009.9 |
| 20260506150409 | 64 | 175 | 2.6 | 10.4 | 0.00 | 0.00 | 0.00 | 16 | 1010.0 |
| 20260506150309 | 64 | 175 | 2.6 | 13.9 | 0.00 | 0.00 | 0.00 | 18 | 1009.9 |
| 20260506150209 | 64 | 176 | 2.6 | 13.9 | 0.00 | 0.00 | 0.00 | 17 | 1010.0 |
| 20260506150159 | 64 | 176 | 2.6 | 13.9 | 0.00 | 0.00 | 0.00 | 17 | 1010.0 |
| 20260506150110 | 64 | 176 | 2.6 | 13.9 | 0.00 | 0.00 | 0.00 | 18 | 1010.0 |
| 20260506150011 | 64 | 176 | 2.6 | 13.9 | 0.00 | 0.00 | 0.00 | 18 | 1010.0 |
| 20260506145909 | 64 | 176 | 2.6 | 13.9 | 0.00 | 0.00 | 0.00 | 17 | 1010.1 |
| 20260506145809 | 64 | 177 | 2.6 | 13.9 | 0.00 | 0.00 | 0.00 | 16 | 1010.0 |
| 20260506145709 | 64 | 177 | 2.6 | 13.9 | 0.00 | 0.00 | 0.00 | 18 | 1009.8 |
| 20260506145703 | 65 | 179 | 3.5 | 13.9 | 0.00 | 0.00 | 0.00 | 23 | 1009.9 |
| 20260506145658 | 64 | 178 | 2.6 | 13.9 | 0.00 | 0.00 | 0.00 | 18 | 1009.9 |
| 20260506145611 | 64 | 178 | 2.6 | 13.9 | 0.00 | 0.00 | 0.00 | 20 | 1009.9 |
| 20260506145510 | 64 | 178 | 3.5 | 13.9 | 0.00 | 0.00 | 0.00 | 21 | 1009.9 |
| 20260506145410 | 65 | 178 | 3.5 | 13.9 | 0.00 | 0.00 | 0.00 | 21 | 1009.8 |
| 20260506145318 | 65 | 178 | 3.5 | 13.9 | 0.00 | 0.00 | 0.00 | 21 | 1009.7 |
| 20260506145306 | 65 | 179 | 3.5 | 13.9 | 0.00 | 0.00 | 0.00 | 23 | 1009.8 |
| 20260506145110 | 65 | 179 | 3.5 | 13.9 | 0.00 | 0.00 | 0.00 | 24 | 1009.9 |
| 20260506145011 | 65 | 179 | 3.5 | 13.9 | 0.00 | 0.00 | 0.00 | 22 | 1009.8 |
| 20260506144910 | 65 | 179 | 3.5 | 13.9 | 0.00 | 0.00 | 0.00 | 21 | 1009.7 |
| 20260506144810 | 65 | 179 | 3.5 | 13.9 | 0.00 | 0.00 | 0.00 | 21 | 1009.8 |
| 20260506144709 | 65 | 180 | 3.5 | 11.3 | 0.00 | 0.00 | 0.00 | 24 | 1009.7 |
| 20260506144703 | 65 | 179 | 3.5 | 11.3 | 0.00 | 0.00 | 0.00 | 26 | 1009.9 |
| 20260506144659 | 65 | 181 | 3.5 | 11.3 | 0.00 | 0.00 | 0.00 | 24 | 1009.8 |
| 20260506144611 | 65 | 179 | 3.5 | 11.3 | 0.00 | 0.00 | 0.00 | 24 | 1009.8 |
| 20260506144510 | 65 | 179 | 3.5 | 11.3 | 0.00 | 0.00 | 0.00 | 24 | 1009.8 |
| 20260506144410 | 65 | 180 | 3.5 | 11.3 | 0.00 | 0.00 | 0.00 | 26 | 1009.9 |
| 20260506144319 | 65 | 180 | 3.5 | 11.3 | 0.00 | 0.00 | 0.00 | 26 | 1009.8 |
| 20260506144305 | 65 | 179 | 3.5 | 11.3 | 0.00 | 0.00 | 0.00 | 26 | 1009.8 |
| 20260506144110 | 65 | 179 | 3.5 | 11.3 | 0.00 | 0.00 | 0.00 | 26 | 1009.9 |
| 20260506144011 | 65 | 179 | 3.5 | 11.3 | 0.00 | 0.00 | 0.00 | 27 | 1009.8 |
| 20260506143909 | 65 | 179 | 2.6 | 11.3 | 0.00 | 0.00 | 0.00 | 24 | 1009.7 |
| 20260506143809 | 65 | 180 | 2.6 | 9.6 | 0.00 | 0.00 | 0.00 | 23 | 1009.9 |
| 20260506143709 | 65 | 179 | 2.6 | 9.6 | 0.00 | 0.00 | 0.00 | 23 | 1009.9 |
| 20260506143658 | 65 | 179 | 2.6 | 9.6 | 0.00 | 0.00 | 0.00 | 23 | 1009.9 |
| 20260506143610 | 65 | 179 | 2.6 | 9.6 | 0.00 | 0.00 | 0.00 | 20 | 1009.9 |
| 20260506143509 | 65 | 179 | 2.6 | 9.6 | 0.00 | 0.00 | 0.00 | 20 | 1009.8 |
| 20260506143410 | 65 | 179 | 2.6 | 9.6 | 0.00 | 0.00 | 0.00 | 18 | 1009.9 |
| 20260506143310 | 65 | 179 | 1.7 | 9.6 | 0.00 | 0.00 | 0.00 | 19 | 1010.0 |
| 20260506143209 | 65 | 179 | 2.6 | 8.7 | 0.00 | 0.00 | 0.00 | 20 | 1010.0 |
| 20260506143157 | 65 | 179 | 1.7 | 8.7 | 0.00 | 0.00 | 0.00 | 20 | 1009.9 |
| 20260506143110 | 65 | 179 | 1.7 | 8.7 | 0.00 | 0.00 | 0.00 | 14 | 1009.9 |
| 20260506143009 | 65 | 179 | 2.6 | 8.7 | 0.00 | 0.00 | 0.00 | 14 | 1009.9 |
| 20260506142910 | 65 | 180 | 2.6 | 8.7 | 0.00 | 0.00 | 0.00 | 14 | 1010.0 |
| 20260506142810 | 65 | 180 | 2.6 | 8.7 | 0.00 | 0.00 | 0.00 | 12 | 1010.0 |
| 20260506142709 | 65 | 180 | 2.6 | 8.7 | 0.00 | 0.00 | 0.00 | 6 | 1009.9 |
| 20260506142657 | 65 | 180 | 2.6 | 8.7 | 0.00 | 0.00 | 0.00 | 6 | 1010.0 |
| 20260506142609 | 65 | 179 | 2.6 | 8.7 | 0.00 | 0.00 | 0.00 | 6 | 1010.0 |
| 20260506142510 | 65 | 179 | 2.6 | 8.7 | 0.00 | 0.00 | 0.00 | 7 | 1010.0 |
| 20260506142411 | 64 | 179 | 2.6 | 8.7 | 0.00 | 0.00 | 0.00 | 9 | 1010.0 |
| 20260506142310 | 64 | 180 | 2.6 | 8.7 | 0.00 | 0.00 | 0.00 | 1 | 1010.1 |
| 20260506142210 | 64 | 179 | 2.6 | 8.7 | 0.00 | 0.00 | 0.00 | 1 | 1010.1 |
| 20260506142157 | 64 | 179 | 2.6 | 8.7 | 0.00 | 0.00 | 0.00 | 1 | 1010.1 |
| 20260506142111 | 64 | 179 | 2.6 | 8.7 | 0.00 | 0.00 | 0.00 | 1 | 1010.1 |
| 20260506142010 | 64 | 179 | 2.6 | 8.7 | 0.00 | 0.00 | 0.00 | 1 | 1010.1 |
| 20260506141911 | 64 | 179 | 2.6 | 8.7 | 0.00 | 0.00 | 0.00 | 3 | 1010.1 |
| 20260506141811 | 64 | 179 | 2.6 | 7.8 | 0.00 | 0.00 | 0.00 | 3 | 1010.3 |
| 20260506141710 | 64 | 180 | 2.6 | 7.8 | 0.00 | 0.00 | 0.00 | 100 | 1010.3 |
| 20260506141657 | 64 | 180 | 2.6 | 7.8 | 0.00 | 0.00 | 0.00 | 100 | 1010.3 |
| 20260506141610 | 64 | 180 | 2.6 | 7.8 | 0.00 | 0.00 | 0.00 | 100 | 1010.3 |
| 20260506141509 | 64 | 179 | 2.6 | 10.4 | 0.00 | 0.00 | 0.00 | 100 | 1010.4 |
| 20260506141409 | 64 | 179 | 2.6 | 10.4 | 0.00 | 0.00 | 0.00 | 100 | 1010.3 |
| 20260506141310 | 63 | 179 | 2.6 | 10.4 | 0.00 | 0.00 | 0.00 | 100 | 1010.4 |
| 20260506141210 | 63 | 179 | 2.6 | 10.4 | 0.00 | 0.00 | 0.00 | 100 | 1010.4 |
| 20260506141158 | 63 | 179 | 3.5 | 10.4 | 0.00 | 0.00 | 0.00 | 100 | 1010.4 |
| 20260506141110 | 63 | 179 | 3.5 | 10.4 | 0.00 | 0.00 | 0.00 | 100 | 1010.4 |
| 20260506141009 | 63 | 179 | 3.5 | 10.4 | 0.00 | 0.00 | 0.00 | 100 | 1010.5 |
| 20260506140909 | 63 | 179 | 3.5 | 10.4 | 0.00 | 0.00 | 0.00 | 100 | 1010.4 |
| 20260506140809 | 63 | 179 | 3.5 | 10.4 | 0.00 | 0.00 | 0.00 | 100 | 1010.5 |
| 20260506140709 | 63 | 179 | 3.5 | 10.4 | 0.00 | 0.00 | 0.00 | 100 | 1010.4 |
| 20260506140703 | 63 | 180 | 2.6 | 8.7 | 0.00 | 0.00 | 0.00 | 100 | 1010.3 |
| 20260506140657 | 63 | 179 | 3.5 | 10.4 | 0.00 | 0.00 | 0.00 | 100 | 1010.4 |
| 20260506140609 | 63 | 180 | 3.5 | 10.4 | 0.00 | 0.00 | 0.00 | 100 | 1010.4 |
| 20260506140510 | 63 | 181 | 2.6 | 10.4 | 0.00 | 0.00 | 0.00 | 100 | 1010.3 |
| 20260506140410 | 63 | 180 | 2.6 | 10.4 | 0.00 | 0.00 | 0.00 | 100 | 1010.3 |
| 20260506140319 | 63 | 180 | 2.6 | 10.4 | 0.00 | 0.00 | 0.00 | 100 | 1010.3 |
| 20260506140305 | 63 | 180 | 2.6 | 8.7 | 0.00 | 0.00 | 0.00 | 100 | 1010.3 |
| 20260506140110 | 63 | 180 | 2.6 | 8.7 | 0.00 | 0.00 | 0.00 | 100 | 1010.3 |
| 20260506140009 | 63 | 180 | 2.6 | 8.7 | 0.00 | 0.00 | 0.00 | 100 | 1010.3 |
| 20260506135910 | 63 | 180 | 3.5 | 10.4 | 0.00 | 0.00 | 0.00 | 100 | 1010.3 |
| 20260506135810 | 63 | 180 | 3.5 | 13.9 | 0.00 | 0.00 | 0.00 | 100 | 1010.3 |
| 20260506135710 | 63 | 180 | 3.5 | 13.9 | 0.00 | 0.00 | 0.00 | 100 | 1010.3 |
| 20260506135659 | 63 | 180 | 3.5 | 13.9 | 0.00 | 0.00 | 0.00 | 100 | 1010.3 |
| 20260506135610 | 63 | 179 | 3.5 | 13.9 | 0.00 | 0.00 | 0.00 | 100 | 1010.3 |
| 20260506135510 | 63 | 180 | 4.3 | 13.9 | 0.00 | 0.00 | 0.00 | 100 | 1010.3 |
| 20260506135410 | 63 | 180 | 4.3 | 13.9 | 0.00 | 0.00 | 0.00 | 100 | 1010.1 |
| 20260506135310 | 63 | 180 | 4.3 | 13.9 | 0.00 | 0.00 | 0.00 | 1 | 1010.0 |
| 20260506135211 | 63 | 180 | 4.3 | 13.9 | 0.00 | 0.00 | 0.00 | 3 | 1009.9 |
| 20260506135158 | 63 | 180 | 4.3 | 13.9 | 0.00 | 0.00 | 0.00 | 3 | 1010.0 |
| 20260506135110 | 63 | 179 | 4.3 | 13.9 | 0.00 | 0.00 | 0.00 | 4 | 1010.0 |
| 20260506135010 | 63 | 180 | 4.3 | 13.9 | 0.00 | 0.00 | 0.00 | 4 | 1009.9 |
| 20260506134909 | 63 | 180 | 4.3 | 13.9 | 0.00 | 0.00 | 0.00 | 3 | 1010.0 |
| 20260506134811 | 63 | 180 | 4.3 | 10.4 | 0.00 | 0.00 | 0.00 | 3 | 1009.9 |
| 20260506134709 | 63 | 179 | 4.3 | 10.4 | 0.00 | 0.00 | 0.00 | 4 | 1009.8 |
| 20260506134657 | 63 | 179 | 4.3 | 10.4 | 0.00 | 0.00 | 0.00 | 3 | 1009.8 |
| 20260506134609 | 63 | 179 | 4.3 | 10.4 | 0.00 | 0.00 | 0.00 | 3 | 1009.8 |
| 20260506134511 | 63 | 179 | 3.5 | 10.4 | 0.00 | 0.00 | 0.00 | 3 | 1010.0 |
| 20260506134410 | 63 | 180 | 3.5 | 10.4 | 0.00 | 0.00 | 0.00 | 2 | 1010.0 |
| 20260506134310 | 63 | 180 | 3.5 | 11.3 | 0.00 | 0.00 | 0.00 | 3 | 1009.8 |
| 20260506134211 | 63 | 180 | 3.5 | 11.3 | 0.00 | 0.00 | 0.00 | 3 | 1010.0 |
| 20260506134159 | 63 | 180 | 3.5 | 11.3 | 0.00 | 0.00 | 0.00 | 4 | 1010.1 |
| 20260506134109 | 63 | 180 | 3.5 | 11.3 | 0.00 | 0.00 | 0.00 | 5 | 1010.1 |
| 20260506134011 | 63 | 179 | 3.5 | 11.3 | 0.00 | 0.00 | 0.00 | 5 | 1009.9 |
| 20260506133909 | 63 | 179 | 3.5 | 11.3 | 0.00 | 0.00 | 0.00 | 6 | 1009.9 |
| 20260506133809 | 63 | 179 | 3.5 | 11.3 | 0.00 | 0.00 | 0.00 | 6 | 1009.8 |
| 20260506133709 | 63 | 181 | 3.5 | 11.3 | 0.00 | 0.00 | 0.00 | 7 | 1009.7 |
| 20260506133657 | 63 | 180 | 3.5 | 11.3 | 0.00 | 0.00 | 0.00 | 7 | 1009.8 |
| 20260506133610 | 64 | 180 | 3.5 | 11.3 | 0.00 | 0.00 | 0.00 | 8 | 1009.8 |
| 20260506133510 | 64 | 180 | 3.5 | 11.3 | 0.00 | 0.00 | 0.00 | 7 | 1009.7 |
| 20260506133410 | 64 | 180 | 3.5 | 11.3 | 0.00 | 0.00 | 0.00 | 5 | 1009.8 |
| 20260506133309 | 64 | 179 | 3.5 | 7.8 | 0.00 | 0.00 | 0.00 | 5 | 1009.7 |
| 20260506133210 | 64 | 180 | 3.5 | 13.0 | 0.00 | 0.00 | 0.00 | 7 | 1009.9 |
| 20260506133159 | 64 | 179 | 3.5 | 13.0 | 0.00 | 0.00 | 0.00 | 7 | 1009.9 |
| 20260506133110 | 64 | 180 | 3.5 | 13.0 | 0.00 | 0.00 | 0.00 | 4 | 1009.9 |
| 20260506133009 | 64 | 179 | 3.5 | 13.0 | 0.00 | 0.00 | 0.00 | 4 | 1010.0 |
| 20260506132909 | 63 | 180 | 2.6 | 13.0 | 0.00 | 0.00 | 0.00 | 6 | 1010.0 |
| 20260506132810 | 63 | 180 | 2.6 | 13.0 | 0.00 | 0.00 | 0.00 | 6 | 1010.0 |
| 20260506132710 | 63 | 180 | 2.6 | 13.0 | 0.00 | 0.00 | 0.00 | 8 | 1009.9 |
| 20260506132702 | 64 | 181 | 2.6 | 10.4 | 0.00 | 0.00 | 0.00 | 10 | 1009.8 |
| 20260506132658 | 63 | 180 | 2.6 | 13.0 | 0.00 | 0.00 | 0.00 | 8 | 1010.1 |
| 20260506132610 | 64 | 181 | 2.6 | 13.0 | 0.00 | 0.00 | 0.00 | 10 | 1010.1 |
| 20260506132510 | 64 | 180 | 2.6 | 13.0 | 0.00 | 0.00 | 0.00 | 10 | 1010.1 |
| 20260506132409 | 64 | 181 | 2.6 | 13.0 | 0.00 | 0.00 | 0.00 | 10 | 1010.1 |
| 20260506132324 | 64 | 181 | 2.6 | 13.0 | 0.00 | 0.00 | 0.00 | 8 | 1010.0 |
| 20260506132307 | 64 | 181 | 2.6 | 10.4 | 0.00 | 0.00 | 0.00 | 8 | 1009.9 |
| 20260506132301 | 64 | 181 | 2.6 | 10.4 | 0.00 | 0.00 | 0.00 | 8 | 1009.9 |
| 20260506132109 | 64 | 181 | 2.6 | 10.4 | 0.00 | 0.00 | 0.00 | 12 | 1009.9 |
| 20260506132009 | 64 | 181 | 2.6 | 10.4 | 0.00 | 0.00 | 0.00 | 12 | 1009.9 |
| 20260506131906 | 64 | 181 | 2.6 | 10.4 | 0.00 | 0.00 | 0.00 | 11 | 1009.9 |
| 20260506131823 | 64 | 180 | 2.6 | 10.4 | 0.00 | 0.00 | 0.00 | 11 | 1009.8 |
| 20260506131817 | 64 | 181 | 3.5 | 10.4 | 0.00 | 0.00 | 0.00 | 12 | 1009.8 |
| 20260506131800 | 64 | 181 | 2.6 | 10.4 | 0.00 | 0.00 | 0.00 | 10 | 1009.8 |
| 20260506131604 | 64 | 181 | 2.6 | 10.4 | 0.00 | 0.00 | 0.00 | 10 | 1009.7 |
| 20260506131504 | 64 | 181 | 2.6 | 10.4 | 0.00 | 0.00 | 0.00 | 9 | 1009.8 |
| 20260506131403 | 64 | 180 | 2.6 | 10.4 | 0.00 | 0.00 | 0.00 | 6 | 1009.8 |
| 20260506131316 | 64 | 180 | 2.6 | 10.4 | 0.00 | 0.00 | 0.00 | 6 | 1009.8 |
| 20260506131302 | 64 | 181 | 2.6 | 10.4 | 0.00 | 0.00 | 0.00 | 11 | 1009.8 |
| 20260506131102 | 64 | 180 | 3.5 | 10.4 | 0.00 | 0.00 | 0.00 | 10 | 1009.8 |
| 20260506131002 | 64 | 180 | 2.6 | 10.4 | 0.00 | 0.00 | 0.00 | 10 | 1009.9 |
| 20260506130901 | 64 | 179 | 2.6 | 7.0 | 0.00 | 0.00 | 0.00 | 10 | 1010.0 |
| 20260506130801 | 64 | 179 | 2.6 | 7.0 | 0.00 | 0.00 | 0.00 | 10 | 1010.1 |
| 20260506130657 | 64 | 179 | 2.6 | 7.0 | 0.00 | 0.00 | 0.00 | 10 | 1010.1 |
| 20260506130600 | 64 | 179 | 2.6 | 7.8 | 0.00 | 0.00 | 0.00 | 10 | 1010.1 |
| 20260506130501 | 64 | 179 | 2.6 | 7.8 | 0.00 | 0.00 | 0.00 | 11 | 1010.3 |
| 20260506130357 | 64 | 179 | 2.6 | 7.8 | 0.00 | 0.00 | 0.00 | 10 | 1010.1 |
| 20260506130257 | 64 | 179 | 2.6 | 7.8 | 0.00 | 0.00 | 0.00 | 9 | 1010.1 |
| 20260506130154 | 64 | 179 | 2.6 | 7.8 | 0.00 | 0.00 | 0.00 | 9 | 1010.1 |
| 20260506130056 | 64 | 179 | 2.6 | 7.8 | 0.00 | 0.00 | 0.00 | 9 | 1010.1 |
| 20260506125957 | 64 | 179 | 2.6 | 7.8 | 0.00 | 0.00 | 0.00 | 11 | 1010.3 |
| 20260506125857 | 64 | 179 | 2.6 | 7.8 | 0.00 | 0.00 | 0.00 | 11 | 1010.1 |
| 20260506125752 | 64 | 179 | 2.6 | 7.8 | 0.00 | 0.00 | 0.00 | 11 | 1010.1 |
| 20260506125651 | 64 | 179 | 2.6 | 7.8 | 0.00 | 0.00 | 0.00 | 11 | 1010.4 |
| 20260506125547 | 64 | 179 | 2.6 | 7.0 | 0.00 | 0.00 | 0.00 | 8 | 1010.3 |
| 20260506125447 | 64 | 179 | 2.6 | 7.0 | 0.00 | 0.00 | 0.00 | 8 | 1010.3 |
| 20260506125348 | 64 | 179 | 2.6 | 7.0 | 0.00 | 0.00 | 0.00 | 9 | 1010.4 |
| 20260506125248 | 64 | 179 | 2.6 | 12.2 | 0.00 | 0.00 | 0.00 | 100 | 1010.3 |
| 20260506125148 | 64 | 179 | 2.6 | 12.2 | 0.00 | 0.00 | 0.00 | 100 | 1010.4 |
| 20260506125047 | 64 | 179 | 2.6 | 12.2 | 0.00 | 0.00 | 0.00 | 100 | 1010.4 |
| 20260506124947 | 64 | 179 | 2.6 | 12.2 | 0.00 | 0.00 | 0.00 | 100 | 1010.3 |
| 20260506124847 | 64 | 180 | 2.6 | 12.2 | 0.00 | 0.00 | 0.00 | 4 | 1010.4 |
| 20260506124748 | 64 | 179 | 2.6 | 12.2 | 0.00 | 0.00 | 0.00 | 4 | 1010.3 |
| 20260506124652 | 64 | 179 | 2.6 | 12.2 | 0.00 | 0.00 | 0.00 | 2 | 1010.4 |
| 20260506124648 | 64 | 180 | 2.6 | 12.2 | 0.00 | 0.00 | 0.00 | 2 | 1010.4 |
| 20260506124546 | 64 | 180 | 2.6 | 12.2 | 0.00 | 0.00 | 0.00 | 1 | 1010.4 |
| 20260506124446 | 64 | 179 | 2.6 | 12.2 | 0.00 | 0.00 | 0.00 | 1 | 1010.4 |
| 20260506124347 | 64 | 179 | 2.6 | 12.2 | 0.00 | 0.00 | 0.00 | 100 | 1010.5 |
| 20260506124243 | 64 | 179 | 2.6 | 8.7 | 0.00 | 0.00 | 0.00 | 100 | 1010.5 |
| 20260506124144 | 64 | 179 | 2.6 | 8.7 | 0.00 | 0.00 | 0.00 | 100 | 1010.6 |
| 20260506124045 | 64 | 180 | 2.6 | 8.7 | 0.00 | 0.00 | 0.00 | 100 | 1010.5 |
| 20260506123944 | 64 | 179 | 2.6 | 8.7 | 0.00 | 0.00 | 0.00 | 100 | 1010.5 |
| 20260506123843 | 64 | 179 | 2.6 | 8.7 | 0.00 | 0.00 | 0.00 | 100 | 1010.5 |
| 20260506123743 | 64 | 180 | 2.6 | 8.7 | 0.00 | 0.00 | 0.00 | 100 | 1010.6 |
| 20260506123648 | 64 | 180 | 2.6 | 8.7 | 0.00 | 0.00 | 0.00 | 100 | 1010.4 |
| 20260506123643 | 64 | 179 | 2.6 | 8.7 | 0.00 | 0.00 | 0.00 | 100 | 1010.4 |
| 20260506123544 | 64 | 179 | 2.6 | 8.7 | 0.00 | 0.00 | 0.00 | 100 | 1010.4 |
| 20260506123443 | 64 | 179 | 2.6 | 8.7 | 0.00 | 0.00 | 0.00 | 100 | 1010.5 |
| 20260506123345 | 64 | 179 | 2.6 | 8.7 | 0.00 | 0.00 | 0.00 | 100 | 1010.4 |
| 20260506123243 | 64 | 179 | 2.6 | 8.7 | 0.00 | 0.00 | 0.00 | 100 | 1010.4 |
| 20260506123143 | 64 | 179 | 2.6 | 8.7 | 0.00 | 0.00 | 0.00 | 100 | 1010.5 |
| 20260506123044 | 64 | 179 | 2.6 | 9.6 | 0.00 | 0.00 | 0.00 | 100 | 1010.4 |
| 20260506122944 | 63 | 179 | 3.5 | 9.6 | 0.00 | 0.00 | 0.00 | 100 | 1010.5 |
| 20260506122843 | 63 | 179 | 2.6 | 9.6 | 0.00 | 0.00 | 0.00 | 100 | 1010.4 |
| 20260506122741 | 63 | 179 | 2.6 | 9.6 | 0.00 | 0.00 | 0.00 | 100 | 1010.4 |
| 20260506122639 | 63 | 179 | 3.5 | 9.6 | 0.00 | 0.00 | 0.00 | 100 | 1010.5 |
| 20260506122537 | 63 | 179 | 3.5 | 11.3 | 0.00 | 0.00 | 0.00 | 100 | 1010.5 |
| 20260506122438 | 63 | 179 | 3.5 | 11.3 | 0.00 | 0.00 | 0.00 | 100 | 1010.4 |
| 20260506122338 | 63 | 179 | 3.5 | 11.3 | 0.00 | 0.00 | 0.00 | 100 | 1010.5 |
| 20260506122236 | 63 | 179 | 3.5 | 11.3 | 0.00 | 0.00 | 0.00 | 100 | 1010.5 |
| 20260506122136 | 63 | 179 | 3.5 | 11.3 | 0.00 | 0.00 | 0.00 | 100 | 1010.4 |
| 20260506122036 | 63 | 179 | 3.5 | 11.3 | 0.00 | 0.00 | 0.00 | 100 | 1010.6 |
| 20260506121935 | 63 | 179 | 2.6 | 11.3 | 0.00 | 0.00 | 0.00 | 100 | 1010.6 |
| 20260506121835 | 63 | 179 | 2.6 | 11.3 | 0.00 | 0.00 | 0.00 | 100 | 1010.5 |
| 20260506121736 | 63 | 179 | 2.6 | 11.3 | 0.00 | 0.00 | 0.00 | 100 | 1010.6 |
| 20260506121632 | 63 | 179 | 2.6 | 11.3 | 0.00 | 0.00 | 0.00 | 100 | 1010.5 |
| 20260506121532 | 63 | 179 | 2.6 | 11.3 | 0.00 | 0.00 | 0.00 | 100 | 1010.5 |
| 20260506121431 | 63 | 178 | 2.6 | 11.3 | 0.00 | 0.00 | 0.00 | 100 | 1010.3 |
| 20260506121328 | 63 | 178 | 2.6 | 11.3 | 0.00 | 0.00 | 0.00 | 100 | 1010.3 |
| 20260506121228 | 63 | 178 | 2.6 | 11.3 | 0.00 | 0.00 | 0.00 | 100 | 1010.3 |
| 20260506121143 | 62 | 178 | 2.6 | 11.3 | 0.00 | 0.00 | 0.00 | 100 | 1010.3 |
| 20260506121127 | 62 | 179 | 2.6 | 11.3 | 0.00 | 0.00 | 0.00 | 100 | 1010.3 |
| 20260506121025 | 62 | 178 | 2.6 | 11.3 | 0.00 | 0.00 | 0.00 | 100 | 1010.4 |
| 20260506120925 | 62 | 179 | 2.6 | 11.3 | 0.00 | 0.00 | 0.00 | 100 | 1010.4 |
| 20260506120824 | 62 | 178 | 3.5 | 11.3 | 0.00 | 0.00 | 0.00 | 100 | 1010.5 |
| 20260506120725 | 62 | 178 | 3.5 | 11.3 | 0.00 | 0.00 | 0.00 | 100 | 1010.4 |
| 20260506120625 | 62 | 178 | 3.5 | 11.3 | 0.00 | 0.00 | 0.00 | 100 | 1010.3 |
| 20260506120524 | 62 | 178 | 2.6 | 8.7 | 0.00 | 0.00 | 0.00 | 100 | 1010.3 |
| 20260506120420 | 62 | 178 | 2.6 | 8.7 | 0.00 | 0.00 | 0.00 | 100 | 1010.4 |
| 20260506120320 | 62 | 178 | 2.6 | 9.6 | 0.00 | 0.00 | 0.00 | 100 | 1010.4 |
| 20260506120219 | 62 | 178 | 2.6 | 9.6 | 0.00 | 0.00 | 0.00 | 100 | 1010.3 |
| 20260506120121 | 62 | 178 | 2.6 | 9.6 | 0.00 | 0.00 | 0.00 | 100 | 1010.5 |
| 20260506120021 | 62 | 178 | 2.6 | 9.6 | 0.00 | 0.00 | 0.00 | 100 | 1010.4 |
| 20260506115919 | 62 | 178 | 2.6 | 9.6 | 0.00 | 0.00 | 0.00 | 100 | 1010.4 |
| 20260506115818 | 62 | 179 | 2.6 | 9.6 | 0.00 | 0.00 | 0.00 | 100 | 1010.4 |
| 20260506115717 | 62 | 178 | 2.6 | 9.6 | 0.00 | 0.00 | 0.00 | 100 | 1010.4 |
| 20260506115617 | 62 | 178 | 2.6 | 9.6 | 0.00 | 0.00 | 0.00 | 100 | 1010.4 |
| 20260506115517 | 62 | 178 | 2.6 | 9.6 | 0.00 | 0.00 | 0.00 | 100 | 1010.5 |
| 20260506115416 | 62 | 178 | 2.6 | 9.6 | 0.00 | 0.00 | 0.00 | 100 | 1010.5 |
| 20260506115314 | 62 | 178 | 2.6 | 9.6 | 0.00 | 0.00 | 0.00 | 100 | 1010.4 |
| 20260506115212 | 62 | 178 | 2.6 | 9.6 | 0.00 | 0.00 | 0.00 | 100 | 1010.5 |
| 20260506115112 | 62 | 178 | 2.6 | 9.6 | 0.00 | 0.00 | 0.00 | 100 | 1010.5 |
| 20260506115012 | 62 | 178 | 2.6 | 9.6 | 0.00 | 0.00 | 0.00 | 100 | 1010.4 |
| 20260506114913 | 62 | 178 | 2.6 | 9.6 | 0.00 | 0.00 | 0.00 | 100 | 1010.5 |
| 20260506114811 | 62 | 178 | 2.6 | 9.6 | 0.00 | 0.00 | 0.00 | 100 | 1010.4 |
| 20260506114712 | 61 | 178 | 2.6 | 9.6 | 0.00 | 0.00 | 0.00 | 100 | 1010.4 |
| 20260506114612 | 61 | 178 | 2.6 | 9.6 | 0.00 | 0.00 | 0.00 | 100 | 1010.4 |
| 20260506114512 | 61 | 178 | 2.6 | 9.6 | 0.00 | 0.00 | 0.00 | 100 | 1010.4 |
| 20260506114412 | 61 | 178 | 2.6 | 9.6 | 0.00 | 0.00 | 0.00 | 100 | 1010.4 |
| 20260506114311 | 61 | 178 | 2.6 | 8.7 | 0.00 | 0.00 | 0.00 | 100 | 1010.4 |
| 20260506114211 | 61 | 178 | 2.6 | 8.7 | 0.00 | 0.00 | 0.00 | 100 | 1010.4 |
| 20260506114109 | 61 | 178 | 2.6 | 8.7 | 0.00 | 0.00 | 0.00 | 100 | 1010.4 |
| 20260506114011 | 61 | 177 | 2.6 | 8.7 | 0.00 | 0.00 | 0.00 | 100 | 1010.5 |
| 20260506113911 | 61 | 177 | 2.6 | 8.7 | 0.00 | 0.00 | 0.00 | 100 | 1010.5 |
| 20260506113811 | 61 | 178 | 2.6 | 8.7 | 0.00 | 0.00 | 0.00 | 100 | 1010.5 |
| 20260506113710 | 61 | 178 | 2.6 | 15.6 | 0.00 | 0.00 | 0.00 | 100 | 1010.5 |
| 20260506113610 | 61 | 178 | 2.6 | 15.6 | 0.00 | 0.00 | 0.00 | 100 | 1010.4 |
| 20260506113508 | 61 | 179 | 2.6 | 15.6 | 0.00 | 0.00 | 0.00 | 100 | 1010.5 |
| 20260506113409 | 61 | 179 | 2.6 | 15.6 | 0.00 | 0.00 | 0.00 | 100 | 1010.5 |
| 20260506113308 | 61 | 179 | 2.6 | 15.6 | 0.00 | 0.00 | 0.00 | 100 | 1010.5 |
| 20260506113209 | 60 | 179 | 2.6 | 15.6 | 0.00 | 0.00 | 0.00 | 100 | 1010.5 |
| 20260506113135 | 60 | 179 | 2.6 | 15.6 | 0.00 | 0.00 | 0.00 | 100 | 1010.5 |
| 20260506113107 | 60 | 178 | 2.6 | 15.6 | 0.00 | 0.00 | 0.00 | 100 | 1010.4 |
| 20260506113009 | 60 | 178 | 2.6 | 15.6 | 0.00 | 0.00 | 0.00 | 100 | 1010.5 |
| 20260506112907 | 60 | 178 | 2.6 | 15.6 | 0.00 | 0.00 | 0.00 | 100 | 1010.5 |
| 20260506112809 | 60 | 178 | 2.6 | 15.6 | 0.00 | 0.00 | 0.00 | 100 | 1010.5 |
| 20260506112708 | 60 | 178 | 2.6 | 9.6 | 0.00 | 0.00 | 0.00 | 100 | 1010.5 |
| 20260506112608 | 60 | 178 | 2.6 | 9.6 | 0.00 | 0.00 | 0.00 | 100 | 1010.5 |
| 20260506112507 | 60 | 178 | 2.6 | 9.6 | 0.00 | 0.00 | 0.00 | 100 | 1010.5 |
| 20260506112408 | 60 | 178 | 2.6 | 9.6 | 0.00 | 0.00 | 0.00 | 100 | 1010.4 |
| 20260506112307 | 60 | 178 | 2.6 | 9.6 | 0.00 | 0.00 | 0.00 | 100 | 1010.4 |
| 20260506112207 | 60 | 178 | 3.5 | 9.6 | 0.00 | 0.00 | 0.00 | 100 | 1010.5 |
| 20260506112107 | 60 | 177 | 3.5 | 9.6 | 0.00 | 0.00 | 0.00 | 100 | 1010.5 |
| 20260506112008 | 60 | 177 | 3.5 | 9.6 | 0.00 | 0.00 | 0.00 | 100 | 1010.4 |
| 20260506111906 | 60 | 177 | 3.5 | 9.6 | 0.00 | 0.00 | 0.00 | 100 | 1010.5 |
| 20260506111805 | 60 | 176 | 3.5 | 9.6 | 0.00 | 0.00 | 0.00 | 100 | 1010.5 |
| 20260506111703 | 0 | 177 | 3.5 | 9.6 | 0.00 | 0.00 | 0.00 | 1010.5 | |
| 20260506111633 | 0 | 0.0 | 0.0 | 0.00 | 0.00 | 0.00 | 1010.5 | ||
| 20260506111601 | 0 | 0.0 | 0.0 | 0.00 | 0.00 | 0.00 | 1010.4 | ||
| 20260506111416 | 0 | 0.0 | 0.0 | 0.00 | 0.00 | 0.00 | 1010.4 | ||
| 20260506111309 | 0 | 0.0 | 0.0 | 0.00 | 0.00 | 0.00 | 1010.5 | ||
| 20260506111206 | 0 | 0.0 | 0.0 | 0.00 | 0.00 | 0.00 | 1010.5 | ||
| 20260506111106 | 0 | 0.0 | 0.0 | 0.00 | 0.00 | 0.00 | 1010.4 | ||
| 20260506111006 | 0 | 0.0 | 0.0 | 0.00 | 0.00 | 0.00 | 1010.4 | ||
| 20260506110830 | 0 | 0.0 | 0.0 | 0.00 | 0.00 | 0.00 | 1010.4 | ||
| 20260506110709 | 0 | 0.0 | 0.0 | 0.00 | 0.00 | 0.00 | 1010.4 | ||
| 20260506110610 | 0 | 0.0 | 0.0 | 0.00 | 0.00 | 0.00 | 1010.4 | ||
| 20260506110606 | 0 | 0.0 | 0.0 | 0.00 | 0.00 | 0.00 | 1010.3 | ||
| 20260506110507 | 0 | 0.0 | 0.0 | 0.00 | 0.00 | 0.00 | 1010.4 | ||
| 20260506110346 | 0 | 0.0 | 0.0 | 0.00 | 0.00 | 0.00 | 1010.3 | ||
| 20260506110209 | 0 | 0.0 | 0.0 | 0.00 | 0.00 | 0.00 | 1010.4 | ||
| 20260506110112 | 0 | 0.0 | 0.0 | 0.00 | 0.00 | 0.00 | 1010.3 | ||
| 20260506110107 | 0 | 0.0 | 0.0 | 0.00 | 0.00 | 0.00 | 1010.4 | ||
| 20260506110006 | 0 | 0.0 | 0.0 | 0.00 | 0.00 | 0.00 | 1010.3 | ||
| 20260506105900 | 0 | 0.0 | 0.0 | 0.00 | 0.00 | 0.00 | 1010.1 | ||
| 20260506105711 | 0 | 0.0 | 0.0 | 0.00 | 0.00 | 0.00 | 1010.3 | ||
| 20260506105608 | 0 | 0.0 | 0.0 | 0.00 | 0.00 | 0.00 | 1010.4 | ||
| 20260506105508 | 0 | 0.0 | 0.0 | 0.00 | 0.00 | 0.00 | 1010.3 | ||
| 20260506105407 | 0 | 0.0 | 0.0 | 0.00 | 0.00 | 0.00 | 1010.4 | ||
| 20260506105307 | 0 | 0.0 | 0.0 | 0.00 | 0.00 | 0.00 | 1010.3 | ||
| 20260506105207 | 0 | 0.0 | 0.0 | 0.00 | 0.00 | 0.00 | 1010.3 | ||
| 20260506105108 | 0 | 0.0 | 0.0 | 0.00 | 0.00 | 0.00 | 1010.4 | ||
| 20260506105006 | 0 | 0.0 | 0.0 | 0.00 | 0.00 | 0.00 | 1010.3 | ||
| 20260506104905 | 0 | 0.0 | 0.0 | 0.00 | 0.00 | 0.00 | 1010.4 | ||
| 20260506104738 | 0 | 0.0 | 0.0 | 0.00 | 0.00 | 0.00 | 1010.4 | ||
| 20260506104611 | 0 | 0.0 | 0.0 | 0.00 | 0.00 | 0.00 | 1010.5 | ||
| 20260506104607 | 0 | 0.0 | 0.0 | 0.00 | 0.00 | 0.00 | 1010.4 | ||
| 20260506104509 | 0 | 0.0 | 0.0 | 0.00 | 0.00 | 0.00 | 1010.4 | ||
| 20260506104408 | 0 | 0.0 | 0.0 | 0.00 | 0.00 | 0.00 | 1010.3 | ||
| 20260506104307 | 0 | 0.0 | 0.0 | 0.00 | 0.00 | 0.00 | 1010.3 | ||
| 20260506104209 | 0 | 0.0 | 0.0 | 0.00 | 0.00 | 0.00 | 1010.3 | ||
| 20260506104106 | 0 | 0.0 | 0.0 | 0.00 | 0.00 | 0.00 | 1010.3 | ||
| 20260506104005 | 0 | 0.0 | 0.0 | 0.00 | 0.00 | 0.00 | 1010.4 | ||
| 20260506103904 | 0 | 0.0 | 0.0 | 0.00 | 0.00 | 0.00 | 1010.4 | ||
| 20260506103710 | 0 | 0.0 | 0.0 | 0.00 | 0.00 | 0.00 | 1010.4 | ||
| 20260506103605 | 0 | 0.0 | 0.0 | 0.00 | 0.00 | 0.00 | 1010.4 | ||
| 20260506103505 | 0 | 0.0 | 0.0 | 0.00 | 0.00 | 0.00 | 1010.4 | ||
| 20260506103405 | 0 | 0.0 | 0.0 | 0.00 | 0.00 | 0.00 | 1010.4 | ||
| 20260506103304 | 0 | 0.0 | 0.0 | 0.00 | 0.00 | 0.00 | 1010.5 | ||
| 20260506103204 | 0 | 0.0 | 0.0 | 0.00 | 0.00 | 0.00 | 1010.4 | ||
| 20260506103103 | 0 | 0.0 | 0.0 | 0.00 | 0.00 | 0.00 | 1010.4 | ||
| 20260506103004 | 0 | 0.0 | 0.0 | 0.00 | 0.00 | 0.00 | 1010.4 | ||
| 20260506102836 | 0 | 0.0 | 0.0 | 0.00 | 0.00 | 0.00 | 1010.4 | ||
| 20260506102706 | 0 | 0.0 | 0.0 | 0.00 | 0.00 | 0.00 | 1010.4 | ||
| 20260506102604 | 0 | 0.0 | 0.0 | 0.00 | 0.00 | 0.00 | 1010.4 | ||
| 20260506102507 | 0 | 0.0 | 0.0 | 0.00 | 0.00 | 0.00 | 1010.4 | ||
| 20260506102408 | 0 | 0.0 | 0.0 | 0.00 | 0.00 | 0.00 | 1010.5 | ||
| 20260506102305 | 0 | 0.0 | 0.0 | 0.00 | 0.00 | 0.00 | 1010.3 | ||
| 20260506102200 | 0 | 0.0 | 0.0 | 0.00 | 0.00 | 0.00 | 1010.3 | ||
| 20260506102102 | 0 | 0.0 | 0.0 | 0.00 | 0.00 | 0.00 | 1010.3 | ||
| 20260506102009 | 0 | 0.0 | 0.0 | 0.00 | 0.00 | 0.00 | 1010.3 | ||
| 20260506101908 | 0 | 0.0 | 0.0 | 0.00 | 0.00 | 0.00 | 1010.3 | ||
| 20260506101756 | 0 | 0.0 | 0.0 | 0.00 | 0.00 | 0.00 | 1010.1 | ||
| 20260506101602 | 0 | 0.0 | 0.0 | 0.00 | 0.00 | 0.00 | 1010.1 | ||
| 20260506101506 | 0 | 0.0 | 0.0 | 0.00 | 0.00 | 0.00 | 1010.1 | ||
| 20260506101358 | 0 | 0.0 | 0.0 | 0.00 | 0.00 | 0.00 | 1010.1 | ||
| 20260506101231 | 0 | 0.0 | 0.0 | 0.00 | 0.00 | 0.00 | 1010.1 | ||
| 20260506101105 | 0 | 0.0 | 0.0 | 0.00 | 0.00 | 0.00 | 1010.3 | ||
| 20260506101037 | 0 | 0.0 | 0.0 | 0.00 | 0.00 | 0.00 | 1010.3 | ||
| 20260506101006 | 0 | 0.0 | 0.0 | 0.00 | 0.00 | 0.00 | 1010.3 | ||
| 20260506100904 | 0 | 0.0 | 0.0 | 0.00 | 0.00 | 0.00 | 1010.3 | ||
| 20260506100744 | 0 | 0.0 | 0.0 | 0.00 | 0.00 | 0.00 | 1010.1 | ||
| 20260506100608 | 0 | 0.0 | 0.0 | 0.00 | 0.00 | 0.00 | 1010.1 | ||
| 20260506100513 | 0 | 0.0 | 0.0 | 0.00 | 0.00 | 0.00 | 1010.1 | ||
| 20260506100506 | 0 | 0.0 | 0.0 | 0.00 | 0.00 | 0.00 | 1010.3 | ||
| 20260506100408 | 0 | 0.0 | 0.0 | 0.00 | 0.00 | 0.00 | 1010.3 | ||
| 20260506100306 | 0 | 0.0 | 0.0 | 0.00 | 0.00 | 0.00 | 1010.1 | ||
| 20260506100207 | 0 | 0.0 | 0.0 | 0.00 | 0.00 | 0.00 | 1010.1 | ||
| 20260506100108 | 0 | 0.0 | 0.0 | 0.00 | 0.00 | 0.00 | 1010.1 | ||
| 20260506100012 | 0 | 0.0 | 0.0 | 0.00 | 0.00 | 0.00 | 1010.1 | ||
| 20260506100008 | 0 | 0.0 | 0.0 | 0.00 | 0.00 | 0.00 | 1010.0 | ||
| 20260506095907 | 0 | 0.0 | 0.0 | 0.00 | 0.00 | 0.00 | 1010.0 | ||
| 20260506095729 | 0 | 0.0 | 0.0 | 0.00 | 0.00 | 0.00 | 1010.1 | ||
| 20260506095607 | 0 | 0.0 | 0.0 | 0.00 | 0.00 | 0.00 | 1010.1 | ||
| 20260506095510 | 0 | 0.0 | 0.0 | 0.00 | 0.00 | 0.00 | 1010.1 | ||
| 20260506095506 | 0 | 0.0 | 0.0 | 0.00 | 0.00 | 0.00 | 1010.0 | ||
| 20260506095359 | 0 | 0.0 | 0.0 | 0.00 | 0.00 | 0.00 | 1010.0 | ||
| 20260506095242 | 0 | 0.0 | 0.0 | 0.00 | 0.00 | 0.00 | 1010.0 | ||
| 20260506095107 | 0 | 0.0 | 0.0 | 0.00 | 0.00 | 0.00 | 1010.0 | ||
| 20260506095011 | 0 | 0.0 | 0.0 | 0.00 | 0.00 | 0.00 | 1010.0 | ||
| 20260506095007 | 0 | 0.0 | 0.0 | 0.00 | 0.00 | 0.00 | 1010.1 | ||
| 20260506094857 | 0 | 0.0 | 0.0 | 0.00 | 0.00 | 0.00 | 1010.0 | ||
| 20260506094756 | 0 | 0.0 | 0.0 | 0.00 | 0.00 | 0.00 | 1010.0 | ||
| 20260506094606 | 0 | 0.0 | 0.0 | 0.00 | 0.00 | 0.00 | 1010.0 | ||
| 20260506094511 | 0 | 0.0 | 0.0 | 0.00 | 0.00 | 0.00 | 1010.0 | ||
| 20260506094507 | 0 | 0.0 | 0.0 | 0.00 | 0.00 | 0.00 | 1010.1 | ||
| 20260506094312 | 0 | 0.0 | 0.0 | 0.00 | 0.00 | 0.00 | 1010.0 | ||
| 20260506094210 | 0 | 0.0 | 0.0 | 0.00 | 0.00 | 0.00 | 1010.0 | ||
| 20260506094107 | 0 | 0.0 | 0.0 | 0.00 | 0.00 | 0.00 | 1010.1 | ||
| 20260506094008 | 0 | 0.0 | 0.0 | 0.00 | 0.00 | 0.00 | 1010.0 | ||
| 20260506093908 | 0 | 0.0 | 0.0 | 0.00 | 0.00 | 0.00 | 1009.9 | ||
| 20260506093807 | 0 | 0.0 | 0.0 | 0.00 | 0.00 | 0.00 | 1010.0 | ||
| 20260506093708 | 0 | 0.0 | 0.0 | 0.00 | 0.00 | 0.00 | 1010.0 | ||
| 20260506093606 | 0 | 0.0 | 0.0 | 0.00 | 0.00 | 0.00 | 1010.1 | ||
| 20260506093508 | 0 | 0.0 | 0.0 | 0.00 | 0.00 | 0.00 | 1010.1 | ||
| 20260506093409 | 0 | 0.0 | 0.0 | 0.00 | 0.00 | 0.00 | 1010.0 | ||
| 20260506093300 | 0 | 0.0 | 0.0 | 0.00 | 0.00 | 0.00 | 1010.1 | ||
| 20260506093152 | 0 | 0.0 | 0.0 | 0.00 | 0.00 | 0.00 | 1010.1 | ||
| 20260506093015 | 0 | 0.0 | 0.0 | 0.00 | 0.00 | 0.00 | 1010.1 | ||
| 20260506093010 | 0 | 0.0 | 0.0 | 0.00 | 0.00 | 0.00 | 1010.0 | ||
| 20260506093004 | 0 | 0.0 | 0.0 | 0.00 | 0.00 | 0.00 | 1010.3 | ||
| 20260506092908 | 0 | 0.0 | 0.0 | 0.00 | 0.00 | 0.00 | 1010.0 | ||
| 20260506092804 | 0 | 0.0 | 0.0 | 0.00 | 0.00 | 0.00 | 1010.1 | ||
| 20260506092619 | 0 | 0.0 | 0.0 | 0.00 | 0.00 | 0.00 | 1010.3 | ||
| 20260506092613 | 0 | 0.0 | 0.0 | 0.00 | 0.00 | 0.00 | 1010.1 | ||
| 20260506092609 | 0 | 0.0 | 0.0 | 0.00 | 0.00 | 0.00 | 1010.3 | ||
| 20260506092407 | 0 | 0.0 | 0.0 | 0.00 | 0.00 | 0.00 | 1010.3 | ||
| 20260506092308 | 0 | 0.0 | 0.0 | 0.00 | 0.00 | 0.00 | 1010.1 | ||
| 20260506092204 | 0 | 0.0 | 0.0 | 0.00 | 0.00 | 0.00 | 1010.3 | ||
| 20260506092113 | 0 | 0.0 | 0.0 | 0.00 | 0.00 | 0.00 | 1010.3 | ||
| 20260506092106 | 0 | 0.0 | 0.0 | 0.00 | 0.00 | 0.00 | 1010.3 | ||
| 20260506091835 | 0 | 0.0 | 0.0 | 0.00 | 0.00 | 0.00 | 1010.3 | ||
| 20260506091709 | 0 | 0.0 | 0.0 | 0.00 | 0.00 | 0.00 | 1010.1 | ||
| 20260506091608 | 0 | 0.0 | 0.0 | 0.00 | 0.00 | 0.00 | 1010.1 | ||
| 20260506091506 | 0 | 0.0 | 0.0 | 0.00 | 0.00 | 0.00 | 1010.3 | ||
| 20260506091448 | 0 | 0.0 | 0.0 | 0.00 | 0.00 | 0.00 | 1010.3 | ||
| 20260506091408 | 0 | 0.0 | 0.0 | 0.00 | 0.00 | 0.00 | 1010.3 | ||
| 20260506091304 | 0 | 0.0 | 0.0 | 0.00 | 0.00 | 0.00 | 1010.3 | ||
| 20260506091203 | 0 | 0.0 | 0.0 | 0.00 | 0.00 | 0.00 | 1010.3 | ||
| 20260506091103 | 0 | 0.0 | 0.0 | 0.00 | 0.00 | 0.00 | 1010.3 | ||
| 20260506091003 | 0 | 0.0 | 0.0 | 0.00 | 0.00 | 0.00 | 1010.3 | ||
| 20260506090908 | 0 | 0.0 | 0.0 | 0.00 | 0.00 | 0.00 | 1010.4 | ||
| 20260506090902 | 0 | 0.0 | 0.0 | 0.00 | 0.00 | 0.00 | 1010.3 | ||
| 20260506090713 | 0 | 0.0 | 0.0 | 0.00 | 0.00 | 0.00 | 1010.3 | ||
| 20260506090614 | 0 | 0.0 | 0.0 | 0.00 | 0.00 | 0.00 | 1010.3 | ||
| 20260506090519 | 0 | 0.0 | 0.0 | 0.00 | 0.00 | 0.00 | 1010.3 | ||
| 20260506090512 | 0 | 0.0 | 0.0 | 0.00 | 0.00 | 0.00 | 1010.4 | ||
| 20260506090307 | 0 | 0.0 | 0.0 | 0.00 | 0.00 | 0.00 | 1010.4 | ||
| 20260506090209 | 0 | 0.0 | 0.0 | 0.00 | 0.00 | 0.00 | 1010.3 | ||
| 20260506090106 | 0 | 0.0 | 0.0 | 0.00 | 0.00 | 0.00 | 1010.3 | ||
| 20260506090006 | 0 | 0.0 | 0.0 | 0.00 | 0.00 | 0.00 | 1010.4 | ||
| 20260506085912 | 0 | 0.0 | 0.0 | 0.00 | 0.00 | 0.00 | 1010.5 | ||
| 20260506085907 | 0 | 0.0 | 0.0 | 0.00 | 0.00 | 0.00 | 1010.4 | ||
| 20260506085839 | 0 | 0.0 | 0.0 | 0.00 | 0.00 | 0.00 | 1010.4 | ||
| 20260506085710 | 0 | 0.0 | 0.0 | 0.00 | 0.00 | 0.00 | 1010.4 | ||
| 20260506085606 | 0 | 0.0 | 0.0 | 0.00 | 0.00 | 0.00 | 1010.4 | ||
| 20260506085514 | 0 | 0.0 | 0.0 | 0.00 | 0.00 | 0.00 | 1010.5 | ||
| 20260506085354 | 0 | 0.0 | 0.0 | 0.00 | 0.00 | 0.00 | 1010.4 | ||
| 20260506085211 | 0 | 0.0 | 0.0 | 0.00 | 0.00 | 0.00 | 1010.6 | ||
| 20260506085106 | 0 | 0.0 | 0.0 | 0.00 | 0.00 | 0.00 | 1010.6 | ||
| 20260506085007 | 0 | 0.0 | 0.0 | 0.00 | 0.00 | 0.00 | 1010.5 | ||
| 20260506084907 | 0 | 0.0 | 0.0 | 0.00 | 0.00 | 0.00 | 1010.5 | ||
| 20260506084808 | 0 | 0.0 | 0.0 | 0.00 | 0.00 | 0.00 | 1010.6 | ||
| 20260506084704 | 0 | 0.0 | 0.0 | 0.00 | 0.00 | 0.00 | 1010.5 | ||
| 20260506084604 | 0 | 0.0 | 0.0 | 0.00 | 0.00 | 0.00 | 1010.5 | ||
| 20260506084406 | 0 | 0.0 | 0.0 | 0.00 | 0.00 | 0.00 | 1010.5 | ||
| 20260506084308 | 0 | 0.0 | 0.0 | 0.00 | 0.00 | 0.00 | 1010.6 | ||
| 20260506084208 | 0 | 0.0 | 0.0 | 0.00 | 0.00 | 0.00 | 1010.5 | ||
| 20260506084105 | 0 | 0.0 | 0.0 | 0.00 | 0.00 | 0.00 | 1010.6 | ||
| 20260506084006 | 0 | 0.0 | 0.0 | 0.00 | 0.00 | 0.00 | 1010.6 | ||
| 20260506083850 | 0 | 0.0 | 0.0 | 0.00 | 0.00 | 0.00 | 1010.6 | ||
| 20260506083752 | 0 | 0.0 | 0.0 | 0.00 | 0.00 | 0.00 | 1010.6 | ||
| 20260506083606 | 0 | 0.0 | 0.0 | 0.00 | 0.00 | 0.00 | 1010.6 | ||
| 20260506083505 | 0 | 0.0 | 0.0 | 0.00 | 0.00 | 0.00 | 1010.6 | ||
| 20260506083404 | 0 | 0.0 | 0.0 | 0.00 | 0.00 | 0.00 | 1010.5 | ||
| 20260506083308 | 0 | 0.0 | 0.0 | 0.00 | 0.00 | 0.00 | 1010.5 | ||
| 20260506083210 | 0 | 0.0 | 0.0 | 0.00 | 0.00 | 0.00 | 1010.6 | ||
| 20260506083107 | 0 | 0.0 | 0.0 | 0.00 | 0.00 | 0.00 | 1010.7 | ||
| 20260506083007 | 0 | 0.0 | 0.0 | 0.00 | 0.00 | 0.00 | 1010.6 | ||
| 20260506082808 | 0 | 0.0 | 0.0 | 0.00 | 0.00 | 0.00 | 1010.6 | ||
| 20260506082711 | 0 | 0.0 | 0.0 | 0.00 | 0.00 | 0.00 | 1010.6 | ||
| 20260506082608 | 0 | 0.0 | 0.0 | 0.00 | 0.00 | 0.00 | 1010.7 | ||
| 20260506082508 | 0 | 0.0 | 0.0 | 0.00 | 0.00 | 0.00 | 1010.6 | ||
| 20260506082408 | 0 | 0.0 | 0.0 | 0.00 | 0.00 | 0.00 | 1010.7 | ||
| 20260506082315 | 0 | 0.0 | 0.0 | 0.00 | 0.00 | 0.00 | 1010.7 | ||
| 20260506082306 | 0 | 0.0 | 0.0 | 0.00 | 0.00 | 0.00 | 1010.6 | ||
| 20260506082208 | 0 | 0.0 | 0.0 | 0.00 | 0.00 | 0.00 | 1010.6 | ||
| 20260506082051 | 0 | 0.0 | 0.0 | 0.00 | 0.00 | 0.00 | 1010.7 | ||
| 20260506081914 | 0 | 0.0 | 0.0 | 0.00 | 0.00 | 0.00 | 1010.7 | ||
| 20260506081800 | 0 | 0.0 | 0.0 | 0.00 | 0.00 | 0.00 | 1010.7 | ||
| 20260506081610 | 0 | 0.0 | 0.0 | 0.00 | 0.00 | 0.00 | 1010.7 | ||
| 20260506081509 | 0 | 0.0 | 0.0 | 0.00 | 0.00 | 0.00 | 1010.6 | ||
| 20260506081407 | 0 | 0.0 | 0.0 | 0.00 | 0.00 | 0.00 | 1010.6 | ||
| 20260506081308 | 0 | 0.0 | 0.0 | 0.00 | 0.00 | 0.00 | 1010.6 | ||
| 20260506081207 | 0 | 0.0 | 0.0 | 0.00 | 0.00 | 0.00 | 1010.7 | ||
| 20260506081107 | 0 | 0.0 | 0.0 | 0.00 | 0.00 | 0.00 | 1010.6 | ||
| 20260506081005 | 0 | 0.0 | 0.0 | 0.00 | 0.00 | 0.00 | 1010.5 | ||
| 20260506080903 | 0 | 0.0 | 0.0 | 0.00 | 0.00 | 0.00 | 1010.5 | ||
| 20260506080808 | 0 | 0.0 | 0.0 | 0.00 | 0.00 | 0.00 | 1010.5 | ||
| 20260506080734 | 0 | 0.0 | 0.0 | 0.00 | 0.00 | 0.00 | 1010.6 | ||
| 20260506080605 | 0 | 0.0 | 0.0 | 0.00 | 0.00 | 0.00 | 1010.6 | ||
| 20260506080505 | 0 | 0.0 | 0.0 | 0.00 | 0.00 | 0.00 | 1010.6 | ||
| 20260506080405 | 0 | 0.0 | 0.0 | 0.00 | 0.00 | 0.00 | 1010.6 | ||
| 20260506080308 | 0 | 0.0 | 0.0 | 0.00 | 0.00 | 0.00 | 1010.6 | ||
| 20260506080304 | 0 | 0.0 | 0.0 | 0.00 | 0.00 | 0.00 | 1010.7 | ||
| 20260506080200 | 0 | 0.0 | 0.0 | 0.00 | 0.00 | 0.00 | 1010.7 | ||
| 20260506073500 | 59 | 179 | 3.5 | 11.3 | 0.00 | 0.00 | 0.00 | 100 | 1010.8 |
| 20260506073400 | 59 | 179 | 3.5 | 11.3 | 0.00 | 0.00 | 0.00 | 100 | 1010.8 |
| 20260506073301 | 59 | 179 | 3.5 | 11.3 | 0.00 | 0.00 | 0.00 | 100 | 1010.8 |
| 20260506073239 | 59 | 168 | 2.6 | 11.3 | 0.00 | 0.00 | 0.00 | 100 | 1010.8 |
| 20260506073230 | 59 | 179 | 3.5 | 11.3 | 0.00 | 0.00 | 0.00 | 100 | 1010.8 |
| 20260506073102 | 59 | 179 | 3.5 | 11.3 | 0.00 | 0.00 | 0.00 | 100 | 1010.8 |
| 20260506073001 | 59 | 179 | 3.5 | 11.3 | 0.00 | 0.00 | 0.00 | 100 | 1010.9 |
| 20260506072859 | 59 | 179 | 3.5 | 11.3 | 0.00 | 0.00 | 0.00 | 100 | 1010.8 |
| 20260506072757 | 59 | 179 | 3.5 | 11.3 | 0.00 | 0.00 | 0.00 | 100 | 1010.8 |
| 20260506072731 | 59 | 179 | 2.6 | 11.3 | 0.00 | 0.00 | 0.00 | 100 | 1010.8 |
| 20260506072553 | 58 | 179 | 2.6 | 7.8 | 0.00 | 0.00 | 0.00 | 100 | 1010.7 |
| 20260506072452 | 59 | 179 | 2.6 | 7.8 | 0.00 | 0.00 | 0.00 | 100 | 1010.7 |
| 20260506072351 | 59 | 179 | 2.6 | 7.8 | 0.00 | 0.00 | 0.00 | 100 | 1010.9 |
| 20260506072251 | 59 | 179 | 3.5 | 7.8 | 0.00 | 0.00 | 0.00 | 100 | 1010.8 |
| 20260506072150 | 59 | 179 | 2.6 | 7.8 | 0.00 | 0.00 | 0.00 | 100 | 1010.7 |
| 20260506072120 | 59 | 179 | 2.6 | 7.0 | 0.00 | 0.00 | 0.00 | 100 | 1010.7 |
| 20260506072049 | 59 | 179 | 2.6 | 7.0 | 0.00 | 0.00 | 0.00 | 100 | 1010.8 |
| 20260506071947 | 59 | 179 | 3.5 | 7.0 | 0.00 | 0.00 | 0.00 | 100 | 1010.9 |
| 20260506071849 | 59 | 179 | 3.5 | 7.0 | 0.00 | 0.00 | 0.00 | 100 | 1010.8 |
| 20260506071748 | 59 | 179 | 2.6 | 7.0 | 0.00 | 0.00 | 0.00 | 100 | 1010.8 |
| 20260506071620 | 59 | 179 | 2.6 | 7.0 | 0.00 | 0.00 | 0.00 | 100 | 1010.9 |
| 20260506071546 | 59 | 179 | 2.6 | 7.0 | 0.00 | 0.00 | 0.00 | 100 | 1010.8 |
| 20260506071446 | 59 | 179 | 2.6 | 7.0 | 0.00 | 0.00 | 0.00 | 100 | 1010.8 |
| 20260506071346 | 59 | 179 | 2.6 | 7.0 | 0.00 | 0.00 | 0.00 | 100 | 1010.8 |
| 20260506071245 | 59 | 179 | 3.5 | 13.0 | 0.00 | 0.00 | 0.00 | 100 | 1010.7 |
| 20260506071120 | 59 | 179 | 3.5 | 13.0 | 0.00 | 0.00 | 0.00 | 100 | 1010.8 |
| 20260506071046 | 59 | 179 | 3.5 | 13.0 | 0.00 | 0.00 | 0.00 | 100 | 1010.9 |
| 20260506070947 | 59 | 179 | 3.5 | 13.0 | 0.00 | 0.00 | 0.00 | 100 | 1010.8 |
| 20260506070846 | 59 | 179 | 3.5 | 13.0 | 0.00 | 0.00 | 0.00 | 100 | 1010.7 |
| 20260506070747 | 59 | 179 | 3.5 | 13.0 | 0.00 | 0.00 | 0.00 | 100 | 1010.8 |
| 20260506070625 | 59 | 179 | 2.6 | 12.2 | 0.00 | 0.00 | 0.00 | 100 | 1010.8 |
| 20260506070620 | 59 | 179 | 3.5 | 13.0 | 0.00 | 0.00 | 0.00 | 100 | 1010.7 |
| 20260506070547 | 59 | 179 | 3.5 | 13.0 | 0.00 | 0.00 | 0.00 | 100 | 1010.8 |
| 20260506070444 | 59 | 179 | 3.5 | 13.0 | 0.00 | 0.00 | 0.00 | 100 | 1010.8 |
| 20260506070345 | 59 | 179 | 2.6 | 13.0 | 0.00 | 0.00 | 0.00 | 100 | 1010.8 |
| 20260506070243 | 59 | 179 | 2.6 | 12.2 | 0.00 | 0.00 | 0.00 | 100 | 1010.8 |
| 20260506070229 | 59 | 179 | 2.6 | 12.2 | 0.00 | 0.00 | 0.00 | 100 | 1010.8 |
| 20260506062426 | 59 | 178 | 2.6 | 13.0 | 0.00 | 0.00 | 0.00 | 100 | 1010.7 |
| 20260506062327 | 59 | 177 | 2.6 | 13.0 | 0.00 | 0.00 | 0.00 | 100 | 1010.7 |
| 20260506062226 | 59 | 177 | 2.6 | 13.0 | 0.00 | 0.00 | 0.00 | 100 | 1010.6 |
| 20260506062119 | 59 | 177 | 2.6 | 13.0 | 0.00 | 0.00 | 0.00 | 100 | 1010.8 |
| 20260506062026 | 59 | 177 | 2.6 | 9.6 | 0.00 | 0.00 | 0.00 | 100 | 1010.7 |
| 20260506061926 | 59 | 176 | 2.6 | 9.6 | 0.00 | 0.00 | 0.00 | 100 | 1010.7 |
| 20260506061826 | 59 | 176 | 2.6 | 9.6 | 0.00 | 0.00 | 0.00 | 100 | 1010.8 |
| 20260506061725 | 59 | 176 | 2.6 | 9.6 | 0.00 | 0.00 | 0.00 | 100 | 1010.8 |
| 20260506061618 | 59 | 176 | 2.6 | 9.6 | 0.00 | 0.00 | 0.00 | 100 | 1010.8 |
| 20260506061525 | 59 | 176 | 2.6 | 9.6 | 0.00 | 0.00 | 0.00 | 100 | 1010.7 |
| 20260506061425 | 59 | 176 | 2.6 | 9.6 | 0.00 | 0.00 | 0.00 | 100 | 1010.7 |
| 20260506061322 | 59 | 176 | 3.5 | 9.6 | 0.00 | 0.00 | 0.00 | 100 | 1010.7 |
| 20260506061222 | 59 | 176 | 3.5 | 13.0 | 0.00 | 0.00 | 0.00 | 100 | 1010.8 |
| 20260506061117 | 59 | 176 | 3.5 | 13.0 | 0.00 | 0.00 | 0.00 | 100 | 1010.7 |
| 20260506061020 | 59 | 176 | 3.5 | 13.0 | 0.00 | 0.00 | 0.00 | 100 | 1010.7 |
| 20260506060921 | 59 | 176 | 3.5 | 13.0 | 0.00 | 0.00 | 0.00 | 100 | 1010.7 |
| 20260506060821 | 59 | 176 | 3.5 | 13.0 | 0.00 | 0.00 | 0.00 | 100 | 1010.7 |
| 20260506060720 | 59 | 176 | 2.6 | 13.0 | 0.00 | 0.00 | 0.00 | 100 | 1010.7 |
| 20260506060618 | 59 | 176 | 2.6 | 13.0 | 0.00 | 0.00 | 0.00 | 100 | 1010.7 |
| 20260506060520 | 59 | 176 | 2.6 | 13.0 | 0.00 | 0.00 | 0.00 | 100 | 1010.7 |
| 20260506060421 | 59 | 176 | 2.6 | 13.0 | 0.00 | 0.00 | 0.00 | 100 | 1010.7 |
| 20260506060318 | 59 | 176 | 2.6 | 13.0 | 0.00 | 0.00 | 0.00 | 100 | 1010.7 |
| 20260506060218 | 59 | 176 | 2.6 | 9.6 | 0.00 | 0.00 | 0.00 | 100 | 1010.8 |
| 20260506060119 | 59 | 176 | 2.6 | 8.7 | 0.00 | 0.00 | 0.00 | 100 | 1010.7 |
| 20260506051409 | 59 | 174 | 3.5 | 11.3 | 0.00 | 0.00 | 0.00 | 100 | 1010.9 |
| 20260506051306 | 59 | 174 | 3.5 | 11.3 | 0.00 | 0.00 | 0.00 | 100 | 1010.9 |
| 20260506051205 | 59 | 172 | 3.5 | 11.3 | 0.00 | 0.00 | 0.00 | 100 | 1010.9 |
| 20260506051118 | 59 | 172 | 2.6 | 11.3 | 0.00 | 0.00 | 0.00 | 100 | 1010.9 |
| 20260506051107 | 59 | 172 | 2.6 | 11.3 | 0.00 | 0.00 | 0.00 | 100 | 1011.0 |
| 20260506051006 | 59 | 172 | 2.6 | 11.3 | 0.00 | 0.00 | 0.00 | 100 | 1010.8 |
| 20260506050907 | 59 | 172 | 3.5 | 11.3 | 0.00 | 0.00 | 0.00 | 100 | 1010.8 |
| 20260506050807 | 59 | 172 | 3.5 | 11.3 | 0.00 | 0.00 | 0.00 | 100 | 1010.9 |
| 20260506050707 | 59 | 172 | 3.5 | 11.3 | 0.00 | 0.00 | 0.00 | 100 | 1010.8 |
| 20260506050621 | 59 | 170 | 2.6 | 10.4 | 0.00 | 0.00 | 0.00 | 100 | 1010.8 |
| 20260506050616 | 59 | 172 | 3.5 | 11.3 | 0.00 | 0.00 | 0.00 | 100 | 1010.8 |
| 20260506050606 | 59 | 171 | 3.5 | 10.4 | 0.00 | 0.00 | 0.00 | 100 | 1010.9 |
| 20260506050506 | 59 | 172 | 3.5 | 10.4 | 0.00 | 0.00 | 0.00 | 100 | 1010.8 |
| 20260506050407 | 59 | 171 | 3.5 | 10.4 | 0.00 | 0.00 | 0.00 | 100 | 1010.8 |
| 20260506050305 | 59 | 170 | 3.5 | 10.4 | 0.00 | 0.00 | 0.00 | 100 | 1010.8 |
| 20260506050229 | 59 | 170 | 2.6 | 10.4 | 0.00 | 0.00 | 0.00 | 100 | 1010.8 |
| 20260506050106 | 59 | 169 | 2.6 | 10.4 | 0.00 | 0.00 | 0.00 | 100 | 1010.6 |
| 20260506045114 | 60 | 167 | 3.5 | 11.3 | 0.00 | 0.00 | 0.00 | 100 | 1010.7 |
| 20260506045103 | 60 | 167 | 3.5 | 11.3 | 0.00 | 0.00 | 0.00 | 100 | 1010.9 |
| 20260506045003 | 60 | 167 | 3.5 | 11.3 | 0.00 | 0.00 | 0.00 | 100 | 1010.9 |
| 20260506044902 | 60 | 167 | 3.5 | 11.3 | 0.00 | 0.00 | 0.00 | 100 | 1010.7 |
| 20260506044802 | 60 | 167 | 3.5 | 11.3 | 0.00 | 0.00 | 0.00 | 100 | 1010.8 |
| 20260506044702 | 60 | 167 | 3.5 | 11.3 | 0.00 | 0.00 | 0.00 | 100 | 1010.8 |
| 20260506044603 | 60 | 165 | 3.5 | 11.3 | 0.00 | 0.00 | 0.00 | 100 | 1010.8 |
| 20260506044502 | 60 | 165 | 2.6 | 11.3 | 0.00 | 0.00 | 0.00 | 100 | 1010.8 |
| 20260506044402 | 60 | 162 | 2.6 | 11.3 | 0.00 | 0.00 | 0.00 | 100 | 1010.7 |
| 20260506044259 | 60 | 161 | 2.6 | 8.7 | 0.00 | 0.00 | 0.00 | 100 | 1010.8 |
| 20260506044201 | 60 | 160 | 2.6 | 8.7 | 0.00 | 0.00 | 0.00 | 100 | 1010.7 |
| 20260506044113 | 60 | 160 | 2.6 | 8.7 | 0.00 | 0.00 | 0.00 | 100 | 1010.7 |
| 20260506044059 | 60 | 160 | 2.6 | 8.7 | 0.00 | 0.00 | 0.00 | 100 | 1010.8 |
| 20260506043959 | 60 | 160 | 2.6 | 8.7 | 0.00 | 0.00 | 0.00 | 100 | 1010.8 |
| 20260506043858 | 60 | 159 | 2.6 | 8.7 | 0.00 | 0.00 | 0.00 | 100 | 1010.7 |
| 20260506043759 | 60 | 159 | 2.6 | 8.7 | 0.00 | 0.00 | 0.00 | 100 | 1010.8 |
| 20260506043658 | 60 | 159 | 2.6 | 8.7 | 0.00 | 0.00 | 0.00 | 100 | 1010.8 |
| 20260506043614 | 60 | 158 | 2.6 | 8.7 | 0.00 | 0.00 | 0.00 | 100 | 1010.8 |
| 20260506043557 | 60 | 158 | 2.6 | 8.7 | 0.00 | 0.00 | 0.00 | 100 | 1010.8 |
| 20260506043457 | 60 | 158 | 2.6 | 8.7 | 0.00 | 0.00 | 0.00 | 100 | 1010.8 |
| 20260506043358 | 60 | 158 | 2.6 | 9.6 | 0.00 | 0.00 | 0.00 | 100 | 1010.8 |
| 20260506043257 | 60 | 158 | 3.5 | 9.6 | 0.00 | 0.00 | 0.00 | 100 | 1010.8 |
| 20260506043159 | 60 | 158 | 2.6 | 9.6 | 0.00 | 0.00 | 0.00 | 100 | 1011.0 |
| 20260506043115 | 60 | 158 | 2.6 | 9.6 | 0.00 | 0.00 | 0.00 | 100 | 1011.0 |
| 20260506043057 | 60 | 158 | 3.5 | 9.6 | 0.00 | 0.00 | 0.00 | 100 | 1010.9 |
| 20260506042959 | 60 | 157 | 2.6 | 9.6 | 0.00 | 0.00 | 0.00 | 100 | 1010.9 |
| 20260506042856 | 60 | 157 | 3.5 | 9.6 | 0.00 | 0.00 | 0.00 | 100 | 1011.0 |
| 20260506042756 | 60 | 157 | 3.5 | 9.6 | 0.00 | 0.00 | 0.00 | 100 | 1011.0 |
| 20260506042657 | 60 | 156 | 3.5 | 9.6 | 0.00 | 0.00 | 0.00 | 100 | 1011.0 |
| 20260506042615 | 60 | 156 | 3.5 | 9.6 | 0.00 | 0.00 | 0.00 | 100 | 1011.0 |
| 20260506042556 | 60 | 156 | 3.5 | 9.6 | 0.00 | 0.00 | 0.00 | 100 | 1010.9 |
| 20260506042456 | 60 | 156 | 3.5 | 9.6 | 0.00 | 0.00 | 0.00 | 100 | 1010.9 |
| 20260506042356 | 60 | 155 | 3.5 | 8.7 | 0.00 | 0.00 | 0.00 | 100 | 1011.0 |
| 20260506042256 | 60 | 155 | 3.5 | 8.7 | 0.00 | 0.00 | 0.00 | 100 | 1011.0 |
| 20260506042157 | 60 | 155 | 3.5 | 8.7 | 0.00 | 0.00 | 0.00 | 100 | 1010.9 |
| 20260506042114 | 60 | 155 | 3.5 | 8.7 | 0.00 | 0.00 | 0.00 | 100 | 1010.9 |
| 20260506042055 | 60 | 155 | 3.5 | 8.7 | 0.00 | 0.00 | 0.00 | 100 | 1011.0 |
| 20260506041954 | 60 | 155 | 3.5 | 12.2 | 0.00 | 0.00 | 0.00 | 100 | 1011.1 |
| 20260506041853 | 60 | 155 | 3.5 | 12.2 | 0.00 | 0.00 | 0.00 | 100 | 1010.9 |
| 20260506041753 | 60 | 153 | 3.5 | 12.2 | 0.00 | 0.00 | 0.00 | 100 | 1011.1 |
| 20260506041653 | 60 | 153 | 3.5 | 12.2 | 0.00 | 0.00 | 0.00 | 100 | 1010.9 |
| 20260506041615 | 60 | 153 | 3.5 | 12.2 | 0.00 | 0.00 | 0.00 | 100 | 1010.9 |
| 20260506041550 | 60 | 153 | 3.5 | 12.2 | 0.00 | 0.00 | 0.00 | 100 | 1010.8 |
| 20260506041451 | 60 | 151 | 3.5 | 12.2 | 0.00 | 0.00 | 0.00 | 100 | 1010.9 |
| 20260506041350 | 60 | 150 | 3.5 | 12.2 | 0.00 | 0.00 | 0.00 | 100 | 1010.9 |
| 20260506041248 | 60 | 149 | 3.5 | 13.9 | 0.00 | 0.00 | 0.00 | 100 | 1010.8 |
| 20260506041148 | 60 | 148 | 3.5 | 13.9 | 0.00 | 0.00 | 0.00 | 100 | 1010.9 |
| 20260506041114 | 60 | 147 | 3.5 | 13.9 | 0.00 | 0.00 | 0.00 | 100 | 1010.9 |
| 20260506041046 | 60 | 147 | 3.5 | 13.9 | 0.00 | 0.00 | 0.00 | 100 | 1010.9 |
| 20260506040944 | 60 | 146 | 3.5 | 13.9 | 0.00 | 0.00 | 0.00 | 100 | 1010.9 |
| 20260506040843 | 60 | 146 | 3.5 | 13.9 | 0.00 | 0.00 | 0.00 | 100 | 1010.7 |
| 20260506040742 | 60 | 146 | 2.6 | 13.9 | 0.00 | 0.00 | 0.00 | 100 | 1010.9 |
| 20260506040641 | 60 | 143 | 2.6 | 13.9 | 0.00 | 0.00 | 0.00 | 100 | 1010.9 |
| 20260506040613 | 60 | 141 | 2.6 | 13.9 | 0.00 | 0.00 | 0.00 | 100 | 1010.9 |
| 20260506040541 | 60 | 141 | 2.6 | 13.9 | 0.00 | 0.00 | 0.00 | 100 | 1010.8 |
| 20260506040440 | 60 | 139 | 2.6 | 13.9 | 0.00 | 0.00 | 0.00 | 100 | 1010.8 |
| 20260506040339 | 60 | 136 | 2.6 | 13.9 | 0.00 | 0.00 | 0.00 | 100 | 1010.8 |
| 20260506040238 | 59 | 135 | 2.6 | 8.7 | 0.00 | 0.00 | 0.00 | 100 | 1010.8 |
| 20260506040115 | 59 | 181 | 2.6 | 8.7 | 0.00 | 0.00 | 0.00 | 100 | 1010.9 |
| 20260506040035 | 59 | 181 | 2.6 | 8.7 | 0.00 | 0.00 | 0.00 | 100 | 1010.8 |
| 20260506035936 | 59 | 181 | 2.6 | 8.7 | 0.00 | 0.00 | 0.00 | 100 | 1011.0 |
| 20260506035837 | 59 | 182 | 3.5 | 11.3 | 0.00 | 0.00 | 0.00 | 100 | 1010.9 |
| 20260506035737 | 59 | 181 | 2.6 | 11.3 | 0.00 | 0.00 | 0.00 | 100 | 1010.8 |
| 20260506035635 | 59 | 182 | 2.6 | 11.3 | 0.00 | 0.00 | 0.00 | 100 | 1011.0 |
| 20260506035614 | 59 | 181 | 2.6 | 11.3 | 0.00 | 0.00 | 0.00 | 100 | 1011.0 |
| 20260506035537 | 59 | 181 | 2.6 | 11.3 | 0.00 | 0.00 | 0.00 | 100 | 1010.9 |
| 20260506035437 | 59 | 181 | 2.6 | 11.3 | 0.00 | 0.00 | 0.00 | 100 | 1011.0 |
| 20260506035334 | 59 | 181 | 2.6 | 11.3 | 0.00 | 0.00 | 0.00 | 100 | 1010.9 |
| 20260506035233 | 59 | 182 | 2.6 | 11.3 | 0.00 | 0.00 | 0.00 | 100 | 1010.8 |
| 20260506035132 | 59 | 181 | 2.6 | 11.3 | 0.00 | 0.00 | 0.00 | 100 | 1010.9 |
| 20260506035119 | 59 | 181 | 3.5 | 10.4 | 0.00 | 0.00 | 0.00 | 100 | 1010.9 |
| 20260506035114 | 59 | 182 | 2.6 | 11.3 | 0.00 | 0.00 | 0.00 | 100 | 1010.9 |
| 20260506035032 | 59 | 183 | 2.6 | 11.3 | 0.00 | 0.00 | 0.00 | 100 | 1011.0 |
| 20260506034932 | 59 | 182 | 3.5 | 11.3 | 0.00 | 0.00 | 0.00 | 100 | 1010.9 |
| 20260506034833 | 59 | 182 | 2.6 | 10.4 | 0.00 | 0.00 | 0.00 | 100 | 1011.0 |
| 20260506034734 | 59 | 181 | 3.5 | 10.4 | 0.00 | 0.00 | 0.00 | 100 | 1010.8 |
| 20260506034721 | 59 | 181 | 3.5 | 10.4 | 0.00 | 0.00 | 0.00 | 100 | 1010.9 |
| 20260506034533 | 59 | 181 | 3.5 | 10.4 | 0.00 | 0.00 | 0.00 | 100 | 1010.8 |
| 20260506034432 | 60 | 181 | 3.5 | 10.4 | 0.00 | 0.00 | 0.00 | 100 | 1010.8 |
| 20260506034331 | 60 | 181 | 3.5 | 10.4 | 0.00 | 0.00 | 0.00 | 100 | 1010.7 |
| 20260506034228 | 60 | 182 | 3.5 | 10.4 | 0.00 | 0.00 | 0.00 | 100 | 1010.9 |
| 20260506034114 | 60 | 181 | 3.5 | 10.4 | 0.00 | 0.00 | 0.00 | 100 | 1010.9 |
| 20260506034028 | 60 | 182 | 3.5 | 10.4 | 0.00 | 0.00 | 0.00 | 100 | 1010.8 |
| 20260506033929 | 60 | 182 | 3.5 | 9.6 | 0.00 | 0.00 | 0.00 | 100 | 1010.9 |
| 20260506033827 | 60 | 181 | 3.5 | 9.6 | 0.00 | 0.00 | 0.00 | 100 | 1010.8 |
| 20260506033727 | 60 | 182 | 3.5 | 9.6 | 0.00 | 0.00 | 0.00 | 100 | 1010.8 |
| 20260506033615 | 60 | 182 | 2.6 | 9.6 | 0.00 | 0.00 | 0.00 | 100 | 1010.8 |
| 20260506033525 | 60 | 182 | 2.6 | 9.6 | 0.00 | 0.00 | 0.00 | 100 | 1011.0 |
| 20260506033425 | 60 | 182 | 2.6 | 9.6 | 0.00 | 0.00 | 0.00 | 100 | 1010.8 |
| 20260506033323 | 60 | 182 | 2.6 | 9.6 | 0.00 | 0.00 | 0.00 | 100 | 1010.9 |
| 20260506033221 | 60 | 183 | 3.5 | 9.6 | 0.00 | 0.00 | 0.00 | 100 | 1010.9 |
| 20260506033114 | 60 | 183 | 3.5 | 9.6 | 0.00 | 0.00 | 0.00 | 100 | 1010.9 |
| 20260506033022 | 60 | 183 | 3.5 | 12.2 | 0.00 | 0.00 | 0.00 | 100 | 1011.0 |
| 20260506032923 | 60 | 183 | 3.5 | 12.2 | 0.00 | 0.00 | 0.00 | 100 | 1010.7 |
| 20260506032823 | 60 | 183 | 3.5 | 12.2 | 0.00 | 0.00 | 0.00 | 100 | 1010.9 |
| 20260506032722 | 60 | 183 | 3.5 | 12.2 | 0.00 | 0.00 | 0.00 | 100 | 1010.8 |
| 20260506032623 | 60 | 182 | 3.5 | 12.2 | 0.00 | 0.00 | 0.00 | 100 | 1011.0 |
| 20260506032619 | 60 | 182 | 2.6 | 12.2 | 0.00 | 0.00 | 0.00 | 3 | 1010.8 |
| 20260506032613 | 60 | 183 | 3.5 | 12.2 | 0.00 | 0.00 | 0.00 | 100 | 1011.0 |
| 20260506032520 | 60 | 183 | 3.5 | 12.2 | 0.00 | 0.00 | 0.00 | 100 | 1010.9 |
| 20260506032421 | 60 | 183 | 3.5 | 12.2 | 0.00 | 0.00 | 0.00 | 100 | 1010.8 |
| 20260506032320 | 60 | 183 | 3.5 | 12.2 | 0.00 | 0.00 | 0.00 | 1 | 1010.9 |
| 20260506032234 | 60 | 182 | 3.5 | 12.2 | 0.00 | 0.00 | 0.00 | 1 | 1011.0 |
| 20260506032220 | 60 | 182 | 2.6 | 12.2 | 0.00 | 0.00 | 0.00 | 3 | 1010.8 |
| 20260506032019 | 60 | 182 | 2.6 | 9.6 | 0.00 | 0.00 | 0.00 | 4 | 1010.8 |
| 20260506031917 | 60 | 182 | 3.5 | 14.8 | 0.00 | 0.00 | 0.00 | 5 | 1010.9 |
| 20260506031816 | 60 | 183 | 2.6 | 14.8 | 0.00 | 0.00 | 0.00 | 5 | 1010.8 |
| 20260506031715 | 60 | 182 | 2.6 | 14.8 | 0.00 | 0.00 | 0.00 | 5 | 1010.7 |
| 20260506031615 | 60 | 182 | 2.6 | 14.8 | 0.00 | 0.00 | 0.00 | 6 | 1010.8 |
| 20260506031513 | 60 | 182 | 2.6 | 14.8 | 0.00 | 0.00 | 0.00 | 6 | 1010.9 |
| 20260506031414 | 60 | 182 | 2.6 | 14.8 | 0.00 | 0.00 | 0.00 | 7 | 1010.9 |
| 20260506031316 | 60 | 182 | 2.6 | 14.8 | 0.00 | 0.00 | 0.00 | 7 | 1010.8 |
| 20260506031214 | 60 | 182 | 2.6 | 14.8 | 0.00 | 0.00 | 0.00 | 7 | 1010.8 |
| 20260506031114 | 60 | 183 | 3.5 | 14.8 | 0.00 | 0.00 | 0.00 | 7 | 1010.7 |
| 20260506031012 | 60 | 183 | 2.6 | 14.8 | 0.00 | 0.00 | 0.00 | 8 | 1010.8 |
| 20260506030913 | 60 | 184 | 2.6 | 10.4 | 0.00 | 0.00 | 0.00 | 9 | 1010.9 |
| 20260506030812 | 60 | 184 | 3.5 | 12.2 | 0.00 | 0.00 | 0.00 | 9 | 1010.8 |
| 20260506030714 | 60 | 184 | 3.5 | 12.2 | 0.00 | 0.00 | 0.00 | 10 | 1010.9 |
| 20260506030612 | 60 | 184 | 3.5 | 12.2 | 0.00 | 0.00 | 0.00 | 10 | 1011.0 |
| 20260506030512 | 60 | 184 | 3.5 | 12.2 | 0.00 | 0.00 | 0.00 | 10 | 1010.9 |
| 20260506030411 | 60 | 184 | 3.5 | 12.2 | 0.00 | 0.00 | 0.00 | 11 | 1011.1 |
| 20260506030310 | 60 | 183 | 3.5 | 12.2 | 0.00 | 0.00 | 0.00 | 11 | 1011.0 |
| 20260506030210 | 60 | 183 | 3.5 | 12.2 | 0.00 | 0.00 | 0.00 | 12 | 1010.9 |
| 20260506030110 | 60 | 183 | 3.5 | 12.2 | 0.00 | 0.00 | 0.00 | 12 | 1010.7 |
| 20260506030010 | 60 | 183 | 3.5 | 12.2 | 0.00 | 0.00 | 0.00 | 13 | 1010.9 |
| 20260506025911 | 60 | 183 | 3.5 | 12.2 | 0.00 | 0.00 | 0.00 | 13 | 1010.9 |
| 20260506025809 | 60 | 183 | 3.5 | 10.4 | 0.00 | 0.00 | 0.00 | 14 | 1011.0 |
| 20260506025709 | 60 | 183 | 3.5 | 10.4 | 0.00 | 0.00 | 0.00 | 15 | 1010.9 |
| 20260506025610 | 60 | 182 | 3.5 | 10.4 | 0.00 | 0.00 | 0.00 | 16 | 1010.8 |
| 20260506025511 | 60 | 182 | 3.5 | 10.4 | 0.00 | 0.00 | 0.00 | 17 | 1011.1 |
| 20260506025410 | 60 | 182 | 3.5 | 10.4 | 0.00 | 0.00 | 0.00 | 17 | 1011.0 |
| 20260506025310 | 60 | 183 | 3.5 | 10.4 | 0.00 | 0.00 | 0.00 | 17 | 1010.9 |
| 20260506025209 | 60 | 182 | 3.5 | 10.4 | 0.00 | 0.00 | 0.00 | 18 | 1011.0 |
| 20260506025120 | 61 | 183 | 3.5 | 9.6 | 0.00 | 0.00 | 0.00 | 24 | 1010.9 |
| 20260506025113 | 60 | 183 | 3.5 | 10.4 | 0.00 | 0.00 | 0.00 | 18 | 1011.0 |
| 20260506025109 | 60 | 183 | 3.5 | 10.4 | 0.00 | 0.00 | 0.00 | 18 | 1010.9 |
| 20260506025007 | 60 | 183 | 3.5 | 9.6 | 0.00 | 0.00 | 0.00 | 19 | 1010.9 |
| 20260506024909 | 61 | 183 | 2.6 | 8.7 | 0.00 | 0.00 | 0.00 | 20 | 1010.9 |
| 20260506024809 | 61 | 183 | 2.6 | 9.6 | 0.00 | 0.00 | 0.00 | 22 | 1011.0 |
| 20260506024732 | 61 | 183 | 3.5 | 9.6 | 0.00 | 0.00 | 0.00 | 22 | 1010.8 |
| 20260506024614 | 61 | 182 | 2.6 | 9.6 | 0.00 | 0.00 | 0.00 | 22 | 1010.8 |
| 20260506024608 | 61 | 182 | 2.6 | 9.6 | 0.00 | 0.00 | 0.00 | 22 | 1010.9 |
| 20260506024509 | 61 | 182 | 3.5 | 9.6 | 0.00 | 0.00 | 0.00 | 23 | 1010.8 |
| 20260506024408 | 61 | 182 | 3.5 | 9.6 | 0.00 | 0.00 | 0.00 | 23 | 1010.8 |
| 20260506024308 | 61 | 183 | 3.5 | 9.6 | 0.00 | 0.00 | 0.00 | 23 | 1010.8 |
| 20260506024227 | 61 | 183 | 3.5 | 9.6 | 0.00 | 0.00 | 0.00 | 23 | 1010.9 |
| 20260506024107 | 61 | 183 | 3.5 | 9.6 | 0.00 | 0.00 | 0.00 | 24 | 1010.9 |
| 20260506024005 | 61 | 183 | 3.5 | 9.6 | 0.00 | 0.00 | 0.00 | 24 | 1010.9 |
| 20260506023906 | 61 | 182 | 3.5 | 9.6 | 0.00 | 0.00 | 0.00 | 25 | 1010.9 |
| 20260506023806 | 61 | 183 | 3.5 | 9.6 | 0.00 | 0.00 | 0.00 | 26 | 1010.8 |
| 20260506023706 | 61 | 182 | 3.5 | 9.6 | 0.00 | 0.00 | 0.00 | 27 | 1010.8 |
| 20260506023606 | 61 | 182 | 3.5 | 9.6 | 0.00 | 0.00 | 0.00 | 27 | 1010.8 |
| 20260506023506 | 61 | 182 | 2.6 | 9.6 | 0.00 | 0.00 | 0.00 | 27 | 1010.7 |
| 20260506023406 | 61 | 182 | 2.6 | 9.6 | 0.00 | 0.00 | 0.00 | 28 | 1010.8 |
| 20260506023306 | 61 | 182 | 3.5 | 8.7 | 0.00 | 0.00 | 0.00 | 29 | 1010.8 |
| 20260506023206 | 61 | 182 | 2.6 | 8.7 | 0.00 | 0.00 | 0.00 | 30 | 1010.8 |
| 20260506023105 | 61 | 182 | 2.6 | 8.7 | 0.00 | 0.00 | 0.00 | 30 | 1010.8 |
| 20260506023006 | 61 | 182 | 2.6 | 8.7 | 0.00 | 0.00 | 0.00 | 31 | 1010.8 |
| 20260506022905 | 61 | 182 | 2.6 | 9.6 | 0.00 | 0.00 | 0.00 | 31 | 1010.7 |
| 20260506022805 | 61 | 182 | 2.6 | 9.6 | 0.00 | 0.00 | 0.00 | 32 | 1010.7 |
| 20260506022704 | 61 | 182 | 2.6 | 9.6 | 0.00 | 0.00 | 0.00 | 33 | 1010.7 |
| 20260506022603 | 61 | 182 | 2.6 | 9.6 | 0.00 | 0.00 | 0.00 | 33 | 1010.7 |
| 20260506022503 | 61 | 182 | 2.6 | 9.6 | 0.00 | 0.00 | 0.00 | 33 | 1010.8 |
| 20260506022404 | 61 | 182 | 2.6 | 9.6 | 0.00 | 0.00 | 0.00 | 33 | 1010.8 |
| 20260506022306 | 61 | 182 | 2.6 | 9.6 | 0.00 | 0.00 | 0.00 | 33 | 1010.9 |
| 20260506022204 | 61 | 182 | 2.6 | 9.6 | 0.00 | 0.00 | 0.00 | 33 | 1010.7 |
| 20260506022110 | 61 | 182 | 2.6 | 9.6 | 0.00 | 0.00 | 0.00 | 33 | 1010.7 |
| 20260506022102 | 61 | 182 | 2.6 | 9.6 | 0.00 | 0.00 | 0.00 | 33 | 1010.8 |
| 20260506022001 | 61 | 182 | 2.6 | 9.6 | 0.00 | 0.00 | 0.00 | 33 | 1010.8 |
| 20260506021900 | 61 | 183 | 2.6 | 12.2 | 0.00 | 0.00 | 0.00 | 33 | 1010.8 |
| 20260506021800 | 61 | 182 | 2.6 | 12.2 | 0.00 | 0.00 | 0.00 | 33 | 1010.7 |
| 20260506021700 | 61 | 182 | 2.6 | 12.2 | 0.00 | 0.00 | 0.00 | 33 | 1010.8 |
| 20260506021609 | 61 | 182 | 2.6 | 12.2 | 0.00 | 0.00 | 0.00 | 33 | 1010.8 |
| 20260506021558 | 61 | 183 | 2.6 | 12.2 | 0.00 | 0.00 | 0.00 | 33 | 1011.0 |
| 20260506021457 | 61 | 183 | 2.6 | 12.2 | 0.00 | 0.00 | 0.00 | 33 | 1010.8 |
| 20260506021357 | 61 | 183 | 3.5 | 12.2 | 0.00 | 0.00 | 0.00 | 33 | 1010.9 |
| 20260506021256 | 61 | 182 | 3.5 | 12.2 | 0.00 | 0.00 | 0.00 | 33 | 1010.8 |
| 20260506021157 | 61 | 183 | 3.5 | 12.2 | 0.00 | 0.00 | 0.00 | 32 | 1010.8 |
| 20260506021111 | 61 | 183 | 3.5 | 12.2 | 0.00 | 0.00 | 0.00 | 32 | 1010.8 |
| 20260506021058 | 61 | 183 | 3.5 | 12.2 | 0.00 | 0.00 | 0.00 | 32 | 1010.8 |
| 20260506020957 | 61 | 183 | 3.5 | 12.2 | 0.00 | 0.00 | 0.00 | 32 | 1010.8 |
| 20260506020857 | 61 | 184 | 3.5 | 10.4 | 0.00 | 0.00 | 0.00 | 32 | 1010.8 |
| 20260506020756 | 61 | 183 | 3.5 | 10.4 | 0.00 | 0.00 | 0.00 | 33 | 1010.8 |
| 20260506020658 | 61 | 183 | 3.5 | 10.4 | 0.00 | 0.00 | 0.00 | 32 | 1010.8 |
| 20260506020607 | 61 | 183 | 3.5 | 10.4 | 0.00 | 0.00 | 0.00 | 32 | 1010.8 |
| 20260506020556 | 61 | 183 | 3.5 | 10.4 | 0.00 | 0.00 | 0.00 | 32 | 1010.8 |
| 20260506020457 | 61 | 183 | 3.5 | 10.4 | 0.00 | 0.00 | 0.00 | 32 | 1010.8 |
| 20260506020356 | 61 | 183 | 3.5 | 10.4 | 0.00 | 0.00 | 0.00 | 32 | 1010.8 |
| 20260506020254 | 61 | 184 | 2.6 | 10.4 | 0.00 | 0.00 | 0.00 | 32 | 1010.8 |
| 20260506020155 | 61 | 184 | 2.6 | 10.4 | 0.00 | 0.00 | 0.00 | 31 | 1010.8 |
| 20260506020108 | 61 | 184 | 2.6 | 10.4 | 0.00 | 0.00 | 0.00 | 31 | 1010.8 |
| 20260506020054 | 61 | 184 | 2.6 | 10.4 | 0.00 | 0.00 | 0.00 | 31 | 1010.8 |
| 20260506015953 | 61 | 184 | 2.6 | 10.4 | 0.00 | 0.00 | 0.00 | 31 | 1011.0 |
| 20260506015855 | 61 | 184 | 2.6 | 10.4 | 0.00 | 0.00 | 0.00 | 30 | 1010.9 |
| 20260506015752 | 61 | 183 | 2.6 | 10.4 | 0.00 | 0.00 | 0.00 | 30 | 1010.8 |
| 20260506015652 | 61 | 184 | 2.6 | 10.4 | 0.00 | 0.00 | 0.00 | 30 | 1010.9 |
| 20260506015609 | 61 | 183 | 2.6 | 8.7 | 0.00 | 0.00 | 0.00 | 31 | 1010.9 |
| 20260506015551 | 61 | 183 | 2.6 | 8.7 | 0.00 | 0.00 | 0.00 | 31 | 1010.9 |
| 20260506015451 | 61 | 183 | 2.6 | 8.7 | 0.00 | 0.00 | 0.00 | 31 | 1010.9 |
| 20260506015351 | 61 | 183 | 2.6 | 7.0 | 0.00 | 0.00 | 0.00 | 31 | 1010.9 |
| 20260506015248 | 61 | 183 | 2.6 | 7.0 | 0.00 | 0.00 | 0.00 | 32 | 1010.9 |
| 20260506015148 | 61 | 183 | 2.6 | 11.3 | 0.00 | 0.00 | 0.00 | 32 | 1011.0 |
| 20260506015107 | 61 | 183 | 2.6 | 11.3 | 0.00 | 0.00 | 0.00 | 32 | 1011.0 |
| 20260506015048 | 61 | 183 | 2.6 | 11.3 | 0.00 | 0.00 | 0.00 | 32 | 1010.8 |
| 20260506014949 | 61 | 183 | 2.6 | 11.3 | 0.00 | 0.00 | 0.00 | 32 | 1010.9 |
| 20260506014847 | 61 | 183 | 2.6 | 11.3 | 0.00 | 0.00 | 0.00 | 33 | 1010.9 |
| 20260506014743 | 61 | 183 | 2.6 | 11.3 | 0.00 | 0.00 | 0.00 | 33 | 1010.9 |
| 20260506014644 | 61 | 183 | 2.6 | 11.3 | 0.00 | 0.00 | 0.00 | 33 | 1010.8 |
| 20260506014613 | 61 | 184 | 2.6 | 9.6 | 0.00 | 0.00 | 0.00 | 33 | 1010.5 |
| 20260506014609 | 61 | 183 | 2.6 | 11.3 | 0.00 | 0.00 | 0.00 | 33 | 1010.8 |
| 20260506014545 | 61 | 183 | 2.6 | 11.3 | 0.00 | 0.00 | 0.00 | 33 | 1010.9 |
| 20260506014444 | 61 | 183 | 2.6 | 11.3 | 0.00 | 0.00 | 0.00 | 33 | 1010.9 |
| 20260506014341 | 61 | 183 | 2.6 | 11.3 | 0.00 | 0.00 | 0.00 | 33 | 1010.9 |
| 20260506014241 | 61 | 184 | 2.6 | 11.3 | 0.00 | 0.00 | 0.00 | 33 | 1010.7 |
| 20260506014217 | 61 | 184 | 2.6 | 9.6 | 0.00 | 0.00 | 0.00 | 33 | 1010.5 |
| 20260506014040 | 61 | 184 | 2.6 | 9.6 | 0.00 | 0.00 | 0.00 | 33 | 1010.8 |
| 20260506013941 | 61 | 184 | 2.6 | 9.6 | 0.00 | 0.00 | 0.00 | 33 | 1010.7 |
| 20260506013838 | 61 | 184 | 2.6 | 9.6 | 0.00 | 0.00 | 0.00 | 33 | 1010.7 |
| 20260506013736 | 61 | 184 | 2.6 | 9.6 | 0.00 | 0.00 | 0.00 | 33 | 1010.5 |
| 20260506013635 | 61 | 184 | 3.5 | 9.6 | 0.00 | 0.00 | 0.00 | 33 | 1010.6 |
| 20260506013609 | 61 | 184 | 3.5 | 9.6 | 0.00 | 0.00 | 0.00 | 33 | 1010.4 |
| 20260506013535 | 61 | 184 | 3.5 | 9.6 | 0.00 | 0.00 | 0.00 | 33 | 1010.4 |
| 20260506013434 | 61 | 184 | 3.5 | 9.6 | 0.00 | 0.00 | 0.00 | 34 | 1010.5 |
| 20260506013333 | 61 | 184 | 3.5 | 10.4 | 0.00 | 0.00 | 0.00 | 34 | 1010.5 |
| 20260506013231 | 61 | 184 | 3.5 | 10.4 | 0.00 | 0.00 | 0.00 | 34 | 1010.6 |
| 20260506013131 | 61 | 184 | 3.5 | 10.4 | 0.00 | 0.00 | 0.00 | 34 | 1010.5 |
| 20260506013107 | 61 | 184 | 3.5 | 10.4 | 0.00 | 0.00 | 0.00 | 34 | 1010.4 |
| 20260506013030 | 61 | 184 | 3.5 | 10.4 | 0.00 | 0.00 | 0.00 | 34 | 1010.4 |
| 20260506012932 | 61 | 184 | 3.5 | 10.4 | 0.00 | 0.00 | 0.00 | 34 | 1010.5 |
| 20260506012828 | 61 | 184 | 3.5 | 10.4 | 0.00 | 0.00 | 0.00 | 35 | 1010.5 |
| 20260506012728 | 61 | 184 | 3.5 | 10.4 | 0.00 | 0.00 | 0.00 | 35 | 1010.5 |
| 20260506012608 | 61 | 184 | 3.5 | 10.4 | 0.00 | 0.00 | 0.00 | 35 | 1010.5 |
| 20260506012526 | 61 | 184 | 3.5 | 10.4 | 0.00 | 0.00 | 0.00 | 35 | 1010.5 |
| 20260506012427 | 61 | 184 | 3.5 | 10.4 | 0.00 | 0.00 | 0.00 | 36 | 1010.5 |
| 20260506012326 | 61 | 184 | 3.5 | 8.7 | 0.00 | 0.00 | 0.00 | 35 | 1010.4 |
| 20260506012223 | 61 | 184 | 3.5 | 9.6 | 0.00 | 0.00 | 0.00 | 36 | 1010.4 |
| 20260506012123 | 61 | 184 | 2.6 | 9.6 | 0.00 | 0.00 | 0.00 | 36 | 1010.3 |
| 20260506012109 | 61 | 184 | 2.6 | 9.6 | 0.00 | 0.00 | 0.00 | 36 | 1010.4 |
| 20260506012022 | 61 | 183 | 2.6 | 9.6 | 0.00 | 0.00 | 0.00 | 37 | 1010.4 |
| 20260506011922 | 61 | 183 | 2.6 | 9.6 | 0.00 | 0.00 | 0.00 | 37 | 1010.4 |
| 20260506011819 | 61 | 183 | 2.6 | 9.6 | 0.00 | 0.00 | 0.00 | 37 | 1010.4 |
| 20260506011721 | 61 | 183 | 2.6 | 9.6 | 0.00 | 0.00 | 0.00 | 38 | 1010.4 |
| 20260506011620 | 61 | 183 | 3.5 | 9.6 | 0.00 | 0.00 | 0.00 | 38 | 1010.5 |
| 20260506011607 | 61 | 183 | 3.5 | 9.6 | 0.00 | 0.00 | 0.00 | 38 | 1010.4 |
| 20260506011519 | 61 | 183 | 3.5 | 9.6 | 0.00 | 0.00 | 0.00 | 39 | 1010.4 |
| 20260506011419 | 61 | 183 | 3.5 | 9.6 | 0.00 | 0.00 | 0.00 | 39 | 1010.4 |
| 20260506011317 | 61 | 183 | 3.5 | 9.6 | 0.00 | 0.00 | 0.00 | 39 | 1010.4 |
| 20260506011218 | 61 | 182 | 3.5 | 9.6 | 0.00 | 0.00 | 0.00 | 40 | 1010.1 |
| 20260506011118 | 61 | 182 | 3.5 | 9.6 | 0.00 | 0.00 | 0.00 | 40 | 1010.3 |
| 20260506011107 | 61 | 183 | 3.5 | 9.6 | 0.00 | 0.00 | 0.00 | 40 | 1010.3 |
| 20260506011018 | 61 | 183 | 3.5 | 9.6 | 0.00 | 0.00 | 0.00 | 40 | 1010.3 |
| 20260506010915 | 61 | 183 | 3.5 | 9.6 | 0.00 | 0.00 | 0.00 | 40 | 1010.1 |
| 20260506010816 | 61 | 182 | 3.5 | 9.6 | 0.00 | 0.00 | 0.00 | 40 | 1010.3 |
| 20260506010715 | 61 | 182 | 3.5 | 9.6 | 0.00 | 0.00 | 0.00 | 40 | 1010.3 |
| 20260506010616 | 61 | 182 | 3.5 | 9.6 | 0.00 | 0.00 | 0.00 | 40 | 1010.3 |
| 20260506010608 | 61 | 182 | 3.5 | 9.6 | 0.00 | 0.00 | 0.00 | 41 | 1010.3 |
| 20260506010517 | 61 | 182 | 3.5 | 9.6 | 0.00 | 0.00 | 0.00 | 41 | 1010.3 |
| 20260506010416 | 61 | 182 | 3.5 | 9.6 | 0.00 | 0.00 | 0.00 | 41 | 1010.3 |
| 20260506010316 | 61 | 182 | 3.5 | 9.6 | 0.00 | 0.00 | 0.00 | 41 | 1010.1 |
| 20260506010216 | 61 | 183 | 3.5 | 7.0 | 0.00 | 0.00 | 0.00 | 41 | 1010.0 |
| 20260506010107 | 62 | 182 | 3.5 | 7.8 | 0.00 | 0.00 | 0.00 | 42 | 1010.1 |
| 20260506010014 | 62 | 182 | 3.5 | 7.8 | 0.00 | 0.00 | 0.00 | 42 | 1010.0 |
| 20260506005913 | 62 | 182 | 3.5 | 7.8 | 0.00 | 0.00 | 0.00 | 42 | 1010.1 |
| 20260506005812 | 62 | 182 | 3.5 | 7.8 | 0.00 | 0.00 | 0.00 | 42 | 1010.3 |
| 20260506005712 | 62 | 182 | 3.5 | 7.8 | 0.00 | 0.00 | 0.00 | 43 | 1010.0 |
| 20260506005618 | 62 | 182 | 3.5 | 7.8 | 0.00 | 0.00 | 0.00 | 43 | 1010.0 |
| 20260506005609 | 62 | 182 | 3.5 | 7.8 | 0.00 | 0.00 | 0.00 | 43 | 1010.0 |
| 20260506005509 | 62 | 182 | 3.5 | 7.8 | 0.00 | 0.00 | 0.00 | 43 | 1010.1 |
| 20260506005411 | 62 | 182 | 3.5 | 7.8 | 0.00 | 0.00 | 0.00 | 43 | 1010.1 |
| 20260506005310 | 62 | 182 | 3.5 | 7.8 | 0.00 | 0.00 | 0.00 | 43 | 1010.1 |
| 20260506005227 | 62 | 182 | 3.5 | 7.8 | 0.00 | 0.00 | 0.00 | 43 | 1010.1 |
| 20260506005213 | 62 | 182 | 3.5 | 7.8 | 0.00 | 0.00 | 0.00 | 43 | 1010.0 |
| 20260506005009 | 62 | 182 | 3.5 | 7.8 | 0.00 | 0.00 | 0.00 | 43 | 1009.9 |
| 20260506004909 | 62 | 182 | 3.5 | 7.8 | 0.00 | 0.00 | 0.00 | 43 | 1009.9 |
| 20260506004808 | 62 | 182 | 3.5 | 9.6 | 0.00 | 0.00 | 0.00 | 43 | 1009.9 |
| 20260506004708 | 62 | 182 | 3.5 | 12.2 | 0.00 | 0.00 | 0.00 | 43 | 1009.9 |
| 20260506004607 | 62 | 182 | 3.5 | 12.2 | 0.00 | 0.00 | 0.00 | 43 | 1009.9 |
| 20260506004509 | 62 | 182 | 3.5 | 12.2 | 0.00 | 0.00 | 0.00 | 43 | 1009.9 |
| 20260506004406 | 62 | 182 | 3.5 | 12.2 | 0.00 | 0.00 | 0.00 | 43 | 1009.9 |
| 20260506004306 | 62 | 182 | 3.5 | 12.2 | 0.00 | 0.00 | 0.00 | 43 | 1009.9 |
| 20260506004205 | 62 | 182 | 3.5 | 12.2 | 0.00 | 0.00 | 0.00 | 43 | 1010.0 |
| 20260506004118 | 61 | 182 | 3.5 | 9.6 | 0.00 | 0.00 | 0.00 | 42 | 1009.9 |
| 20260506004107 | 61 | 182 | 3.5 | 12.2 | 0.00 | 0.00 | 0.00 | 43 | 1009.9 |
| 20260506004006 | 61 | 182 | 3.5 | 12.2 | 0.00 | 0.00 | 0.00 | 42 | 1009.9 |
| 20260506003907 | 61 | 183 | 3.5 | 12.2 | 0.00 | 0.00 | 0.00 | 42 | 1009.8 |
| 20260506003806 | 61 | 183 | 3.5 | 12.2 | 0.00 | 0.00 | 0.00 | 42 | 1009.8 |
| 20260506003726 | 61 | 182 | 3.5 | 7.8 | 0.00 | 0.00 | 0.00 | 42 | 1009.8 |
| 20260506003710 | 61 | 182 | 3.5 | 9.6 | 0.00 | 0.00 | 0.00 | 42 | 1009.9 |
| 20260506003505 | 61 | 182 | 3.5 | 9.6 | 0.00 | 0.00 | 0.00 | 42 | 1009.7 |
| 20260506003405 | 61 | 182 | 3.5 | 11.3 | 0.00 | 0.00 | 0.00 | 42 | 1009.7 |
| 20260506003303 | 61 | 182 | 3.5 | 11.3 | 0.00 | 0.00 | 0.00 | 42 | 1009.7 |
| 20260506003203 | 61 | 182 | 3.5 | 11.3 | 0.00 | 0.00 | 0.00 | 42 | 1009.8 |
| 20260506003101 | 61 | 182 | 3.5 | 11.3 | 0.00 | 0.00 | 0.00 | 42 | 1009.7 |
| 20260506003002 | 61 | 182 | 3.5 | 11.3 | 0.00 | 0.00 | 0.00 | 42 | 1009.6 |
| 20260506002901 | 61 | 183 | 4.3 | 11.3 | 0.00 | 0.00 | 0.00 | 43 | 1009.6 |
| 20260506002803 | 61 | 183 | 4.3 | 11.3 | 0.00 | 0.00 | 0.00 | 43 | 1009.6 |
| 20260506002702 | 61 | 182 | 4.3 | 11.3 | 0.00 | 0.00 | 0.00 | 43 | 1009.6 |
| 20260506002606 | 61 | 183 | 4.3 | 11.3 | 0.00 | 0.00 | 0.00 | 43 | 1009.4 |
| 20260506002600 | 61 | 182 | 4.3 | 11.3 | 0.00 | 0.00 | 0.00 | 43 | 1009.4 |
| 20260506002500 | 61 | 183 | 3.5 | 11.3 | 0.00 | 0.00 | 0.00 | 43 | 1009.4 |
| 20260506002359 | 61 | 183 | 3.5 | 10.4 | 0.00 | 0.00 | 0.00 | 42 | 1009.4 |
| 20260506002258 | 61 | 181 | 3.5 | 10.4 | 0.00 | 0.00 | 0.00 | 42 | 1009.3 |
| 20260506002158 | 61 | 181 | 3.5 | 10.4 | 0.00 | 0.00 | 0.00 | 43 | 1009.5 |
| 20260506002106 | 61 | 181 | 3.5 | 10.4 | 0.00 | 0.00 | 0.00 | 42 | 1009.4 |
| 20260506002059 | 61 | 181 | 3.5 | 10.4 | 0.00 | 0.00 | 0.00 | 42 | 1009.4 |
| 20260506001956 | 61 | 180 | 3.5 | 10.4 | 0.00 | 0.00 | 0.00 | 42 | 1009.5 |
| 20260506001856 | 61 | 181 | 3.5 | 10.4 | 0.00 | 0.00 | 0.00 | 42 | 1009.4 |
| 20260506001756 | 61 | 181 | 3.5 | 10.4 | 0.00 | 0.00 | 0.00 | 42 | 1009.4 |
| 20260506001656 | 61 | 181 | 3.5 | 10.4 | 0.00 | 0.00 | 0.00 | 42 | 1009.5 |
| 20260506001606 | 61 | 181 | 3.5 | 10.4 | 0.00 | 0.00 | 0.00 | 42 | 1009.5 |
| 20260506001556 | 61 | 181 | 3.5 | 10.4 | 0.00 | 0.00 | 0.00 | 42 | 1009.5 |
| 20260506001454 | 61 | 181 | 3.5 | 10.4 | 0.00 | 0.00 | 0.00 | 42 | 1009.5 |
| 20260506001354 | 61 | 181 | 3.5 | 10.4 | 0.00 | 0.00 | 0.00 | 42 | 1009.3 |
| 20260506001251 | 61 | 181 | 3.5 | 10.4 | 0.00 | 0.00 | 0.00 | 42 | 1009.2 |
| 20260506001151 | 61 | 181 | 2.6 | 10.4 | 0.00 | 0.00 | 0.00 | 42 | 1009.4 |
| 20260506001107 | 61 | 181 | 2.6 | 8.7 | 0.00 | 0.00 | 0.00 | 42 | 1009.3 |
| 20260506001053 | 61 | 181 | 2.6 | 8.7 | 0.00 | 0.00 | 0.00 | 42 | 1009.3 |
| 20260506000951 | 61 | 181 | 3.5 | 8.7 | 0.00 | 0.00 | 0.00 | 42 | 1009.3 |
| 20260506000851 | 61 | 181 | 3.5 | 8.7 | 0.00 | 0.00 | 0.00 | 41 | 1009.2 |
| 20260506000751 | 61 | 181 | 3.5 | 8.7 | 0.00 | 0.00 | 0.00 | 41 | 1009.2 |
| 20260506000652 | 61 | 181 | 3.5 | 8.7 | 0.00 | 0.00 | 0.00 | 41 | 1009.1 |
| 20260506000607 | 61 | 181 | 3.5 | 8.7 | 0.00 | 0.00 | 0.00 | 41 | 1009.3 |
| 20260506000549 | 61 | 181 | 2.6 | 8.7 | 0.00 | 0.00 | 0.00 | 41 | 1009.3 |
| 20260506000450 | 61 | 181 | 2.6 | 8.7 | 0.00 | 0.00 | 0.00 | 41 | 1009.1 |
| 20260506000348 | 61 | 181 | 2.6 | 11.3 | 0.00 | 0.00 | 0.00 | 39 | 1008.9 |
| 20260506000248 | 61 | 181 | 2.6 | 11.3 | 0.00 | 0.00 | 0.00 | 39 | 1009.2 |
| 20260506000147 | 61 | 181 | 2.6 | 11.3 | 0.00 | 0.00 | 0.00 | 39 | 1009.2 |
| 20260506000107 | 61 | 181 | 2.6 | 11.3 | 0.00 | 0.00 | 0.00 | 39 | 1009.1 |
| 20260506000047 | 61 | 181 | 2.6 | 11.3 | 0.00 | 0.00 | 0.00 | 39 | 1009.1 |
| 20260505235949 | 61 | 181 | 2.6 | 11.3 | 0.00 | 0.00 | 0.00 | 38 | 1009.1 |
| 20260505235847 | 61 | 181 | 2.6 | 11.3 | 0.00 | 0.00 | 0.00 | 38 | 1009.1 |
| 20260505235746 | 61 | 180 | 2.6 | 11.3 | 0.00 | 0.00 | 0.00 | 37 | 1009.2 |
| 20260505235646 | 61 | 181 | 2.6 | 11.3 | 0.00 | 0.00 | 0.00 | 38 | 1009.2 |
| 20260505235606 | 61 | 180 | 2.6 | 11.3 | 0.00 | 0.00 | 0.00 | 38 | 1009.2 |
| 20260505235547 | 61 | 180 | 2.6 | 11.3 | 0.00 | 0.00 | 0.00 | 38 | 1009.2 |
| 20260505235447 | 61 | 181 | 2.6 | 11.3 | 0.00 | 0.00 | 0.00 | 38 | 1009.4 |
| 20260505235345 | 61 | 181 | 2.6 | 7.0 | 0.00 | 0.00 | 0.00 | 38 | 1009.3 |
| 20260505235246 | 61 | 181 | 2.6 | 7.0 | 0.00 | 0.00 | 0.00 | 38 | 1009.3 |
| 20260505235147 | 61 | 180 | 2.6 | 7.0 | 0.00 | 0.00 | 0.00 | 38 | 1009.3 |
| 20260505235107 | 61 | 181 | 2.6 | 9.6 | 0.00 | 0.00 | 0.00 | 38 | 1009.3 |
| 20260505235043 | 61 | 181 | 2.6 | 9.6 | 0.00 | 0.00 | 0.00 | 38 | 1009.3 |
| 20260505234943 | 61 | 181 | 2.6 | 9.6 | 0.00 | 0.00 | 0.00 | 38 | 1009.4 |
| 20260505234845 | 61 | 181 | 2.6 | 9.6 | 0.00 | 0.00 | 0.00 | 39 | 1009.4 |
| 20260505234744 | 61 | 180 | 2.6 | 9.6 | 0.00 | 0.00 | 0.00 | 39 | 1009.3 |
| 20260505234645 | 61 | 180 | 2.6 | 9.6 | 0.00 | 0.00 | 0.00 | 39 | 1009.2 |
| 20260505234606 | 61 | 180 | 2.6 | 9.6 | 0.00 | 0.00 | 0.00 | 39 | 1009.3 |
| 20260505234542 | 61 | 180 | 2.6 | 9.6 | 0.00 | 0.00 | 0.00 | 39 | 1009.3 |
| 20260505234443 | 61 | 180 | 2.6 | 9.6 | 0.00 | 0.00 | 0.00 | 39 | 1009.3 |
| 20260505234340 | 61 | 180 | 2.6 | 9.6 | 0.00 | 0.00 | 0.00 | 40 | 1009.2 |
| 20260505234240 | 61 | 181 | 2.6 | 9.6 | 0.00 | 0.00 | 0.00 | 40 | 1009.2 |
| 20260505234140 | 61 | 180 | 2.6 | 7.0 | 0.00 | 0.00 | 0.00 | 40 | 1009.2 |
| 20260505234106 | 61 | 181 | 2.6 | 7.0 | 0.00 | 0.00 | 0.00 | 40 | 1009.1 |
| 20260505234039 | 61 | 180 | 2.6 | 7.0 | 0.00 | 0.00 | 0.00 | 40 | 1009.1 |
| 20260505233937 | 61 | 180 | 2.6 | 7.0 | 0.00 | 0.00 | 0.00 | 40 | 1009.2 |
| 20260505233837 | 61 | 181 | 2.6 | 7.0 | 0.00 | 0.00 | 0.00 | 40 | 1009.1 |
| 20260505233737 | 61 | 181 | 2.6 | 7.0 | 0.00 | 0.00 | 0.00 | 41 | 1009.2 |
| 20260505233636 | 61 | 181 | 2.6 | 6.1 | 0.00 | 0.00 | 0.00 | 41 | 1009.2 |
| 20260505233605 | 61 | 181 | 1.7 | 6.1 | 0.00 | 0.00 | 0.00 | 41 | 1009.1 |
| 20260505233535 | 61 | 181 | 1.7 | 6.1 | 0.00 | 0.00 | 0.00 | 41 | 1009.1 |
| 20260505233432 | 61 | 180 | 1.7 | 6.1 | 0.00 | 0.00 | 0.00 | 41 | 1009.0 |
| 20260505233333 | 61 | 181 | 1.7 | 6.1 | 0.00 | 0.00 | 0.00 | 41 | 1009.1 |
| 20260505233233 | 62 | 181 | 1.7 | 6.1 | 0.00 | 0.00 | 0.00 | 42 | 1009.1 |
| 20260505233107 | 62 | 180 | 1.7 | 6.1 | 0.00 | 0.00 | 0.00 | 42 | 1009.0 |
| 20260505233031 | 62 | 180 | 1.7 | 6.1 | 0.00 | 0.00 | 0.00 | 42 | 1009.0 |
| 20260505232930 | 62 | 180 | 2.6 | 8.7 | 0.00 | 0.00 | 0.00 | 43 | 1009.1 |
| 20260505232830 | 62 | 180 | 2.6 | 8.7 | 0.00 | 0.00 | 0.00 | 43 | 1009.0 |
| 20260505232731 | 62 | 180 | 2.6 | 8.7 | 0.00 | 0.00 | 0.00 | 43 | 1009.0 |
| 20260505232629 | 62 | 180 | 2.6 | 8.7 | 0.00 | 0.00 | 0.00 | 43 | 1008.9 |
| 20260505232606 | 62 | 180 | 2.6 | 8.7 | 0.00 | 0.00 | 0.00 | 43 | 1009.0 |
| 20260505232531 | 62 | 180 | 2.6 | 8.7 | 0.00 | 0.00 | 0.00 | 43 | 1009.0 |
| 20260505232429 | 62 | 180 | 2.6 | 8.7 | 0.00 | 0.00 | 0.00 | 44 | 1009.0 |
| 20260505232329 | 62 | 180 | 2.6 | 8.7 | 0.00 | 0.00 | 0.00 | 45 | 1009.1 |
| 20260505232228 | 62 | 180 | 2.6 | 8.7 | 0.00 | 0.00 | 0.00 | 45 | 1009.0 |
| 20260505232126 | 62 | 180 | 2.6 | 8.7 | 0.00 | 0.00 | 0.00 | 45 | 1009.1 |
| 20260505232111 | 62 | 180 | 2.6 | 7.8 | 0.00 | 0.00 | 0.00 | 45 | 1009.1 |
| 20260505232105 | 62 | 180 | 2.6 | 8.7 | 0.00 | 0.00 | 0.00 | 44 | 1009.0 |
| 20260505232026 | 62 | 180 | 2.6 | 8.7 | 0.00 | 0.00 | 0.00 | 44 | 1009.0 |
| 20260505231927 | 62 | 179 | 2.6 | 7.8 | 0.00 | 0.00 | 0.00 | 44 | 1009.0 |
| 20260505231825 | 62 | 180 | 2.6 | 7.8 | 0.00 | 0.00 | 0.00 | 44 | 1009.0 |
| 20260505231729 | 62 | 180 | 2.6 | 7.8 | 0.00 | 0.00 | 0.00 | 45 | 1008.9 |
| 20260505231713 | 62 | 179 | 2.6 | 7.8 | 0.00 | 0.00 | 0.00 | 45 | 1009.1 |
| 20260505231521 | 62 | 179 | 2.6 | 7.8 | 0.00 | 0.00 | 0.00 | 45 | 1009.1 |
| 20260505231419 | 62 | 179 | 2.6 | 7.8 | 0.00 | 0.00 | 0.00 | 45 | 1009.0 |
| 20260505231321 | 62 | 180 | 2.6 | 7.8 | 0.00 | 0.00 | 0.00 | 45 | 1009.0 |
| 20260505231217 | 62 | 180 | 2.6 | 7.8 | 0.00 | 0.00 | 0.00 | 45 | 1009.0 |
| 20260505231118 | 62 | 180 | 2.6 | 7.8 | 0.00 | 0.00 | 0.00 | 45 | 1008.9 |
| 20260505231110 | 62 | 181 | 2.6 | 7.8 | 0.00 | 0.00 | 0.00 | 45 | 1008.9 |
| 20260505231105 | 63 | 181 | 3.5 | 11.3 | 0.00 | 0.00 | 0.00 | 49 | 1008.9 |
| 20260505231017 | 62 | 181 | 2.6 | 8.7 | 0.00 | 0.00 | 0.00 | 46 | 1008.9 |
| 20260505230919 | 62 | 181 | 2.6 | 11.3 | 0.00 | 0.00 | 0.00 | 46 | 1009.0 |
| 20260505230818 | 62 | 181 | 2.6 | 11.3 | 0.00 | 0.00 | 0.00 | 46 | 1009.0 |
| 20260505230733 | 62 | 180 | 2.6 | 11.3 | 0.00 | 0.00 | 0.00 | 47 | 1009.0 |
| 20260505230716 | 62 | 180 | 2.6 | 11.3 | 0.00 | 0.00 | 0.00 | 48 | 1008.9 |
| 20260505230711 | 62 | 181 | 2.6 | 11.3 | 0.00 | 0.00 | 0.00 | 48 | 1009.1 |
| 20260505230512 | 62 | 181 | 2.6 | 11.3 | 0.00 | 0.00 | 0.00 | 48 | 1009.1 |
| 20260505230411 | 62 | 181 | 2.6 | 11.3 | 0.00 | 0.00 | 0.00 | 48 | 1009.0 |
| 20260505230312 | 62 | 181 | 3.5 | 11.3 | 0.00 | 0.00 | 0.00 | 48 | 1009.0 |
| 20260505230230 | 63 | 180 | 3.5 | 11.3 | 0.00 | 0.00 | 0.00 | 49 | 1008.9 |
| 20260505230223 | 62 | 181 | 3.5 | 11.3 | 0.00 | 0.00 | 0.00 | 49 | 1009.0 |
| 20260505230209 | 63 | 181 | 3.5 | 11.3 | 0.00 | 0.00 | 0.00 | 49 | 1009.0 |
| 20260505230012 | 63 | 181 | 3.5 | 11.3 | 0.00 | 0.00 | 0.00 | 49 | 1008.9 |
| 20260505225913 | 63 | 181 | 3.5 | 11.3 | 0.00 | 0.00 | 0.00 | 49 | 1009.0 |
| 20260505225809 | 63 | 180 | 3.5 | 11.3 | 0.00 | 0.00 | 0.00 | 49 | 1009.0 |
| 20260505225722 | 63 | 180 | 3.5 | 11.3 | 0.00 | 0.00 | 0.00 | 49 | 1008.8 |
| 20260505225708 | 63 | 180 | 3.5 | 11.3 | 0.00 | 0.00 | 0.00 | 49 | 1008.9 |
| 20260505225509 | 63 | 180 | 3.5 | 11.3 | 0.00 | 0.00 | 0.00 | 50 | 1008.9 |
| 20260505225411 | 63 | 180 | 3.5 | 11.3 | 0.00 | 0.00 | 0.00 | 50 | 1009.0 |
| 20260505225309 | 63 | 179 | 2.6 | 11.3 | 0.00 | 0.00 | 0.00 | 50 | 1008.9 |
| 20260505225210 | 63 | 179 | 2.6 | 11.3 | 0.00 | 0.00 | 0.00 | 50 | 1008.8 |
| 20260505225110 | 63 | 179 | 2.6 | 11.3 | 0.00 | 0.00 | 0.00 | 50 | 1008.9 |
| 20260505225105 | 63 | 179 | 2.6 | 11.3 | 0.00 | 0.00 | 0.00 | 50 | 1008.8 |
| 20260505225011 | 63 | 179 | 2.6 | 10.4 | 0.00 | 0.00 | 0.00 | 50 | 1008.8 |
| 20260505224911 | 63 | 180 | 3.5 | 10.4 | 0.00 | 0.00 | 0.00 | 50 | 1008.8 |
| 20260505224811 | 63 | 180 | 3.5 | 10.4 | 0.00 | 0.00 | 0.00 | 50 | 1008.8 |
| 20260505224710 | 63 | 180 | 3.5 | 10.4 | 0.00 | 0.00 | 0.00 | 50 | 1008.7 |
| 20260505224611 | 63 | 180 | 3.5 | 10.4 | 0.00 | 0.00 | 0.00 | 50 | 1008.8 |
| 20260505224604 | 63 | 181 | 3.5 | 10.4 | 0.00 | 0.00 | 0.00 | 49 | 1008.8 |
| 20260505224511 | 63 | 181 | 3.5 | 10.4 | 0.00 | 0.00 | 0.00 | 49 | 1008.8 |
| 20260505224410 | 63 | 181 | 2.6 | 10.4 | 0.00 | 0.00 | 0.00 | 49 | 1008.7 |
| 20260505224309 | 62 | 181 | 3.5 | 10.4 | 0.00 | 0.00 | 0.00 | 49 | 1008.7 |
| 20260505224208 | 62 | 182 | 3.5 | 7.8 | 0.00 | 0.00 | 0.00 | 48 | 1009.0 |
| 20260505224108 | 62 | 181 | 2.6 | 13.0 | 0.00 | 0.00 | 0.00 | 48 | 1008.7 |
| 20260505224103 | 62 | 181 | 3.5 | 13.0 | 0.00 | 0.00 | 0.00 | 48 | 1008.7 |
| 20260505224007 | 62 | 181 | 3.5 | 13.0 | 0.00 | 0.00 | 0.00 | 50 | 1008.7 |
| 20260505223908 | 62 | 181 | 3.5 | 13.0 | 0.00 | 0.00 | 0.00 | 50 | 1008.7 |
| 20260505223807 | 62 | 181 | 3.5 | 13.0 | 0.00 | 0.00 | 0.00 | 50 | 1008.7 |
| 20260505223709 | 62 | 181 | 3.5 | 13.0 | 0.00 | 0.00 | 0.00 | 50 | 1008.7 |
| 20260505223604 | 62 | 181 | 3.5 | 13.0 | 0.00 | 0.00 | 0.00 | 51 | 1008.7 |
| 20260505223508 | 63 | 181 | 3.5 | 13.0 | 0.00 | 0.00 | 0.00 | 51 | 1008.7 |
| 20260505223405 | 63 | 181 | 3.5 | 13.0 | 0.00 | 0.00 | 0.00 | 52 | 1008.7 |
| 20260505223306 | 63 | 181 | 3.5 | 13.0 | 0.00 | 0.00 | 0.00 | 53 | 1008.5 |
| 20260505223206 | 63 | 181 | 3.5 | 13.0 | 0.00 | 0.00 | 0.00 | 54 | 1008.5 |
| 20260505223101 | 63 | 182 | 3.5 | 11.3 | 0.00 | 0.00 | 0.00 | 54 | 1008.6 |
| 20260505223005 | 63 | 183 | 3.5 | 11.3 | 0.00 | 0.00 | 0.00 | 54 | 1008.6 |
| 20260505222906 | 63 | 183 | 3.5 | 11.3 | 0.00 | 0.00 | 0.00 | 55 | 1008.6 |
| 20260505222805 | 63 | 183 | 3.5 | 11.3 | 0.00 | 0.00 | 0.00 | 57 | 1008.7 |
| 20260505222707 | 64 | 182 | 3.5 | 11.3 | 0.00 | 0.00 | 0.00 | 57 | 1008.7 |
| 20260505222603 | 64 | 182 | 3.5 | 11.3 | 0.00 | 0.00 | 0.00 | 57 | 1008.6 |
| 20260505222506 | 64 | 182 | 3.5 | 11.3 | 0.00 | 0.00 | 0.00 | 57 | 1008.6 |
| 20260505222406 | 64 | 182 | 3.5 | 11.3 | 0.00 | 0.00 | 0.00 | 57 | 1008.7 |
| 20260505222306 | 64 | 182 | 3.5 | 11.3 | 0.00 | 0.00 | 0.00 | 58 | 1008.6 |
| 20260505222206 | 65 | 181 | 2.6 | 10.4 | 0.00 | 0.00 | 0.00 | 59 | 1008.7 |
| 20260505222110 | 65 | 181 | 2.6 | 10.4 | 0.00 | 0.00 | 0.00 | 59 | 1008.6 |
| 20260505222105 | 66 | 181 | 1.7 | 7.8 | 0.00 | 0.00 | 0.00 | 60 | 1008.7 |
| 20260505222101 | 65 | 181 | 2.6 | 10.4 | 0.00 | 0.00 | 0.00 | 59 | 1008.6 |
| 20260505222005 | 65 | 181 | 2.6 | 10.4 | 0.00 | 0.00 | 0.00 | 59 | 1008.6 |
| 20260505221905 | 65 | 181 | 2.6 | 8.7 | 0.00 | 0.00 | 0.00 | 59 | 1008.7 |
| 20260505221806 | 66 | 182 | 2.6 | 8.7 | 0.00 | 0.00 | 0.00 | 60 | 1008.6 |
| 20260505221720 | 66 | 182 | 2.6 | 7.8 | 0.00 | 0.00 | 0.00 | 60 | 1008.7 |
| 20260505221706 | 66 | 181 | 1.7 | 7.8 | 0.00 | 0.00 | 0.00 | 60 | 1008.7 |
| 20260505221506 | 66 | 182 | 1.7 | 7.8 | 0.00 | 0.00 | 0.00 | 60 | 1008.6 |
| 20260505221406 | 66 | 182 | 1.7 | 7.8 | 0.00 | 0.00 | 0.00 | 60 | 1008.6 |
| 20260505221305 | 66 | 182 | 1.7 | 7.8 | 0.00 | 0.00 | 0.00 | 60 | 1008.6 |
| 20260505221205 | 66 | 182 | 2.6 | 7.8 | 0.00 | 0.00 | 0.00 | 60 | 1008.6 |
| 20260505221107 | 66 | 182 | 2.6 | 7.8 | 0.00 | 0.00 | 0.00 | 60 | 1008.5 |
| 20260505221101 | 66 | 181 | 2.6 | 7.8 | 0.00 | 0.00 | 0.00 | 60 | 1008.5 |
| 20260505221007 | 66 | 181 | 1.7 | 7.8 | 0.00 | 0.00 | 0.00 | 60 | 1008.5 |
| 20260505220906 | 66 | 181 | 1.7 | 7.8 | 0.00 | 0.00 | 0.00 | 60 | 1008.5 |
| 20260505220806 | 66 | 181 | 1.7 | 7.8 | 0.00 | 0.00 | 0.00 | 60 | 1008.6 |
| 20260505220707 | 66 | 181 | 1.7 | 7.8 | 0.00 | 0.00 | 0.00 | 60 | 1008.5 |
| 20260505220607 | 66 | 182 | 2.6 | 7.8 | 0.00 | 0.00 | 0.00 | 60 | 1008.3 |
| 20260505220558 | 66 | 181 | 2.6 | 7.8 | 0.00 | 0.00 | 0.00 | 60 | 1008.3 |
| 20260505220506 | 66 | 181 | 2.6 | 7.8 | 0.00 | 0.00 | 0.00 | 60 | 1008.4 |
| 20260505220405 | 66 | 181 | 2.6 | 7.8 | 0.00 | 0.00 | 0.00 | 60 | 1008.4 |
| 20260505220306 | 66 | 182 | 2.6 | 7.8 | 0.00 | 0.00 | 0.00 | 60 | 1008.4 |
| 20260505220205 | 66 | 181 | 2.6 | 7.8 | 0.00 | 0.00 | 0.00 | 60 | 1008.3 |
| 20260505220105 | 66 | 181 | 2.6 | 7.8 | 0.00 | 0.00 | 0.00 | 60 | 1008.3 |
| 20260505220059 | 66 | 181 | 2.6 | 8.7 | 0.00 | 0.00 | 0.00 | 60 | 1008.3 |
| 20260505220007 | 66 | 181 | 2.6 | 8.7 | 0.00 | 0.00 | 0.00 | 60 | 1008.3 |
| 20260505215905 | 66 | 181 | 3.5 | 8.7 | 0.00 | 0.00 | 0.00 | 60 | 1008.3 |
| 20260505215804 | 66 | 181 | 2.6 | 8.7 | 0.00 | 0.00 | 0.00 | 60 | 1008.5 |
| 20260505215705 | 66 | 181 | 3.5 | 8.7 | 0.00 | 0.00 | 0.00 | 60 | 1008.3 |
| 20260505215605 | 66 | 181 | 2.6 | 8.7 | 0.00 | 0.00 | 0.00 | 60 | 1008.2 |
| 20260505215558 | 66 | 181 | 2.6 | 8.7 | 0.00 | 0.00 | 0.00 | 60 | 1008.2 |
| 20260505215504 | 66 | 181 | 2.6 | 8.7 | 0.00 | 0.00 | 0.00 | 60 | 1008.3 |
| 20260505215405 | 66 | 181 | 2.6 | 8.7 | 0.00 | 0.00 | 0.00 | 60 | 1008.3 |
| 20260505215305 | 66 | 181 | 2.6 | 8.7 | 0.00 | 0.00 | 0.00 | 60 | 1008.2 |
| 20260505215203 | 66 | 181 | 3.5 | 8.7 | 0.00 | 0.00 | 0.00 | 60 | 1008.4 |
| 20260505215106 | 66 | 181 | 2.6 | 8.7 | 0.00 | 0.00 | 0.00 | 60 | 1008.3 |
| 20260505215102 | 66 | 181 | 3.5 | 9.6 | 0.00 | 0.00 | 0.00 | 60 | 1008.4 |
| 20260505215056 | 66 | 181 | 2.6 | 9.6 | 0.00 | 0.00 | 0.00 | 60 | 1008.3 |
| 20260505215003 | 66 | 181 | 2.6 | 9.6 | 0.00 | 0.00 | 0.00 | 60 | 1008.3 |
| 20260505214904 | 66 | 181 | 2.6 | 9.6 | 0.00 | 0.00 | 0.00 | 60 | 1008.3 |
| 20260505214804 | 66 | 181 | 3.5 | 9.6 | 0.00 | 0.00 | 0.00 | 60 | 1008.3 |
| 20260505214723 | 66 | 181 | 3.5 | 7.8 | 0.00 | 0.00 | 0.00 | 60 | 1008.4 |
| 20260505214716 | 66 | 181 | 3.5 | 9.6 | 0.00 | 0.00 | 0.00 | 60 | 1008.4 |
| 20260505214702 | 66 | 182 | 3.5 | 9.6 | 0.00 | 0.00 | 0.00 | 60 | 1008.4 |
| 20260505214502 | 66 | 181 | 3.5 | 9.6 | 0.00 | 0.00 | 0.00 | 60 | 1008.5 |
| 20260505214403 | 66 | 181 | 3.5 | 9.6 | 0.00 | 0.00 | 0.00 | 60 | 1008.3 |
| 20260505214302 | 66 | 181 | 3.5 | 9.6 | 0.00 | 0.00 | 0.00 | 60 | 1008.4 |
| 20260505214216 | 66 | 181 | 3.5 | 9.6 | 0.00 | 0.00 | 0.00 | 60 | 1008.4 |
| 20260505214202 | 66 | 181 | 3.5 | 7.8 | 0.00 | 0.00 | 0.00 | 60 | 1008.4 |
| 20260505214002 | 66 | 181 | 3.5 | 7.8 | 0.00 | 0.00 | 0.00 | 60 | 1008.4 |
| 20260505213903 | 66 | 181 | 3.5 | 7.8 | 0.00 | 0.00 | 0.00 | 60 | 1008.5 |
| 20260505213803 | 66 | 181 | 3.5 | 7.8 | 0.00 | 0.00 | 0.00 | 60 | 1008.5 |
| 20260505213702 | 66 | 181 | 3.5 | 7.8 | 0.00 | 0.00 | 0.00 | 60 | 1008.4 |
| 20260505213603 | 67 | 181 | 3.5 | 7.8 | 0.00 | 0.00 | 0.00 | 60 | 1008.5 |
| 20260505213555 | 67 | 180 | 3.5 | 7.8 | 0.00 | 0.00 | 0.00 | 60 | 1008.5 |
| 20260505213503 | 67 | 180 | 2.6 | 7.8 | 0.00 | 0.00 | 0.00 | 60 | 1008.5 |
| 20260505213401 | 67 | 181 | 3.5 | 12.2 | 0.00 | 0.00 | 0.00 | 60 | 1008.3 |
| 20260505213303 | 67 | 181 | 2.6 | 12.2 | 0.00 | 0.00 | 0.00 | 60 | 1008.4 |
| 20260505213202 | 67 | 180 | 2.6 | 12.2 | 0.00 | 0.00 | 0.00 | 60 | 1008.5 |
| 20260505213102 | 67 | 180 | 2.6 | 12.2 | 0.00 | 0.00 | 0.00 | 60 | 1008.4 |
| 20260505213053 | 67 | 180 | 2.6 | 12.2 | 0.00 | 0.00 | 0.00 | 60 | 1008.4 |
| 20260505213002 | 67 | 180 | 2.6 | 12.2 | 0.00 | 0.00 | 0.00 | 60 | 1008.5 |
| 20260505212903 | 67 | 180 | 2.6 | 12.2 | 0.00 | 0.00 | 0.00 | 60 | 1008.4 |
| 20260505212801 | 68 | 180 | 2.6 | 12.2 | 0.00 | 0.00 | 0.00 | 60 | 1008.4 |
| 20260505212701 | 68 | 180 | 2.6 | 12.2 | 0.00 | 0.00 | 0.00 | 60 | 1008.5 |
| 20260505212601 | 68 | 180 | 2.6 | 12.2 | 0.00 | 0.00 | 0.00 | 60 | 1008.3 |
| 20260505212554 | 68 | 181 | 2.6 | 12.2 | 0.00 | 0.00 | 0.00 | 60 | 1008.3 |
| 20260505212459 | 68 | 181 | 2.6 | 12.2 | 0.00 | 0.00 | 0.00 | 60 | 1008.4 |
| 20260505212359 | 68 | 181 | 2.6 | 12.2 | 0.00 | 0.00 | 0.00 | 60 | 1008.3 |
| 20260505212259 | 68 | 181 | 2.6 | 12.2 | 0.00 | 0.00 | 0.00 | 60 | 1008.5 |
| 20260505212159 | 68 | 181 | 2.6 | 12.2 | 0.00 | 0.00 | 0.00 | 60 | 1008.4 |
| 20260505212055 | 68 | 181 | 2.6 | 13.0 | 0.00 | 0.00 | 0.00 | 60 | 1008.4 |
| 20260505212000 | 68 | 181 | 2.6 | 13.0 | 0.00 | 0.00 | 0.00 | 60 | 1008.4 |